[[{"header":{"parameterUnit":"m.s-1","parameterCategory":1,"la1":31.0,"la2":29.5877,"lo1":-88.7671,"lo2":-86.6584,"dy":0.0162,"dx":0.0185,"nx":115,"ny":88,"refTime":"2023-07-14T18:00:00:Z","depth":0,"parameterNumber":2,"parameterNumberName":"U-component_of_WINDS"},"data":[0.0,0.0,0.0,0.0,0.0,0.0,0.0,0.0,0.0,0.0,0.0,0.0,0.0,0.0,0.0,0.0,0.0,0.0,0.0,0.0,0.0,0.0,0.0,0.0,0.0,0.0,0.0,0.0,0.0,0.0,0.0,0.0,0.0,0.0,0.0,0.0,0.0,0.0,0.0,0.0,0.0,0.0,0.0,0.0,0.0,0.0,0.0,0.0,0.0,0.0,0.0,0.0,0.0,0.0,0.0,0.0,0.0,0.0,0.0,0.0,0.0,0.0,0.0,0.0,0.0,0.0,0.0,0.0,0.0,0.0,0.0,0.0,0.0,0.0,0.0,0.0,0.0,0.0,0.0,0.0,0.0,0.0,0.0,0.0,0.0,0.0,0.0,0.0,0.0,0.0,0.0,0.0,0.0,0.0,0.0,0.0,0.0,0.0,0.0,0.0,0.0,0.0,0.0,0.0,0.0,0.0,0.0,0.0,0.0,0.0,0.0,0.0,0.0,0.0,0.0,0.0,0.0,0.0,0.0,0.0,0.0,0.0,0.0,0.0,0.0,0.0,0.0,0.0,0.0,0.0,0.0,0.0,0.0,0.0,0.0,0.0,0.0,0.0,0.0,0.0,0.0,0.0,0.0,0.0,0.0,0.0,0.0,0.0,0.0,0.0,0.0,0.0,0.0,0.0,0.0,0.0,0.0,0.0,0.0,0.0,0.0,0.0,0.0,0.0,0.0,0.0,0.0,0.0,0.0,0.0,0.0,0.0,0.0,0.0,0.0,0.0,0.0,0.0,0.0,0.0,0.0,0.0,0.0,0.0,0.0,0.0,0.0,0.0,0.0,0.0,0.0,0.0,0.0,0.0,0.0,0.0,0.0,0.0,0.0,0.0,0.0,0.0,0.0,0.0,0.0,0.0,0.0,0.0,0.0,0.0,0.0,0.0,0.0,0.0,0.0,0.0,0.0,0.0,0.0,0.0,0.0,0.0,0.0,0.0,0.0,0.0,0.0,0.0,0.0,0.0,0.0,0.0,0.0,0.0,0.0,0.0,0.0,0.0,0.0,0.0,0.0,0.0,0.0,0.0,0.0,0.0,0.0,0.0,0.0,0.0,0.0,0.0,0.0,0.0,0.0,0.0,0.0,0.0,0.0,0.0,0.0,0.0,0.0,0.0,0.0,0.0,0.0,0.0,0.0,0.0,0.0,0.0,0.0,0.0,0.0,0.0,0.0,0.0,0.0,0.0,0.0,0.0,0.0,0.0,0.0,0.0,0.0,0.0,0.0,0.0,0.0,0.0,0.0,0.0,0.0,0.0,0.0,0.0,0.0,0.0,0.0,0.0,0.0,0.0,0.0,0.0,0.0,0.0,0.0,0.0,0.0,0.0,0.0,0.0,0.0,0.0,0.0,0.0,0.0,0.0,0.0,0.0,0.0,0.0,0.0,0.0,0.0,0.0,0.0,0.0,0.0,0.0,0.0,0.0,0.0,0.0,0.0,0.0,0.0,0.0,0.0,0.0,0.0,0.0,0.0,0.0,0.0,0.0,0.0,0.0,0.0,0.0,0.0,0.0,0.0,0.0,0.0,0.0,0.0,0.0,0.0,0.0,0.0,0.0,0.0,0.0,0.0,0.0,0.0,0.0,0.0,0.0,0.0,0.0,0.0,0.0,0.0,0.0,0.0,0.0,0.0,0.0,0.0,0.0,0.0,0.0,0.0,0.0,0.0,0.0,0.0,0.0,0.0,0.0,0.0,0.0,0.0,0.0,0.0,0.0,0.0,0.0,0.0,0.0,0.0,0.0,0.0,0.0,0.0,0.0,0.0,0.0,0.0,0.0,0.0,0.0,0.0,0.0,0.0,0.0,0.0,0.0,0.0,0.0,0.0,0.0,0.0,0.0,0.0,0.0,0.0,0.0,0.0,0.0,0.0,0.0,0.0,0.0,0.0,0.0,0.0,0.0,0.0,0.0,0.0,0.0,0.0,0.0,0.0,0.0,0.0,0.0,0.0,0.0,0.0,0.0,0.0,0.0,0.0,0.0,0.0,0.0,0.0,0.0,0.0,0.0,0.0,0.0,0.0,0.0,0.0,0.0,0.0,0.0,0.0,0.0,0.0,0.0,0.0,0.0,0.0,0.0,0.0,0.0,0.0,0.0,0.0,0.0,0.0,0.0,0.0,0.0,0.0,0.0,0.0,0.0,0.0,0.0,0.0,0.0,0.0,0.0,0.0,0.0,0.0,0.0,0.0,0.0,0.0,0.0,0.0,0.0,0.0,0.0,0.0,0.0,0.0,0.0,0.0,0.0,0.0,0.0,0.0,0.0,0.0,0.0,0.0,0.0,0.0,0.0,0.0,0.0,0.0,0.0,0.0,0.0,0.0,0.0,0.0,0.0,0.0,0.0,0.0,0.0,0.0,0.0,0.0,0.0,0.0,0.0,0.0,0.0,0.0,0.0,0.0,0.0,0.0,0.0,0.0,0.0,0.0,0.0,0.0,0.0,0.0,0.0,0.0,0.0,0.0,0.0,0.0,0.0,0.0,0.0,0.0,0.0,0.0,0.0,0.0,0.0,0.0,0.0,0.0,0.0,0.0,0.0,0.0,0.0,0.0,0.0,0.0,0.0,0.0,0.0,0.0,0.0,0.0,0.0,0.0,0.0,0.0,0.0,0.0,0.0,0.0,0.0,0.0,0.0,0.0,0.0,0.0,0.0,0.0,0.0,0.0,0.0,0.0,0.0,0.0,0.0,0.0,0.0,0.0,0.0,0.0,0.0,0.0,0.0,0.0,0.0,0.0,0.0,0.0,0.0,0.0,0.0,0.0,0.0,0.0,0.0,0.0,0.0,0.0,0.0,0.0,0.0,0.0,0.0,0.0,0.0,0.0,0.0,0.0,0.0,0.0,0.0,0.0,0.0,0.0,0.0,0.0,0.0,0.0,0.0,0.0,0.0,0.0,0.0,0.0,0.0,0.0,0.0,0.0,0.0,0.0,0.0,0.0,0.0,0.0,0.0,0.0,0.0,0.0,0.0,0.0,0.0,0.0,0.0,0.0,0.0,0.0,0.0,0.0,0.0,0.0,0.0,0.0,0.0,0.0,0.0,0.0,0.0,0.0,0.0,0.0,0.0,0.0,0.0,0.0,0.0,0.0,0.0,0.0,0.0,0.0,0.0,0.0,0.0,0.0,0.0,0.0,0.0,0.0,0.0,0.0,0.0,0.0,0.0,0.0,0.0,0.0,0.0,0.0,0.0,0.0,0.0,0.0,0.0,0.0,0.0,0.0,0.0,0.0,0.0,0.0,0.0,0.0,0.0,0.0,0.0,0.0,0.0,0.0,0.0,0.0,0.0,0.0,0.0,0.0,0.0,0.0,0.0,0.0,0.0,0.0,0.0,0.0,0.0,0.0,0.0,0.0,0.0,0.0,0.0,0.0,0.0,0.0,0.0,0.0,0.0,0.0,0.0,0.0,0.0,0.0,0.0,0.0,0.0,0.0,0.0,0.0,0.0,0.0,0.0,0.0,0.0,0.0,0.0,0.0,0.0,0.0,0.0,0.0,0.0,0.0,0.0,0.0,0.0,0.0,0.0,0.0,0.0,0.0,0.0,0.0,0.0,0.0,0.0,0.0,0.0,0.0,0.0,0.0,0.0,0.0,0.0,0.0,0.0,0.0,0.0,0.0,0.0,0.0,0.0,0.0,0.0,0.0,0.0,0.0,0.0,0.0,0.0,0.0,0.0,0.0,0.0,0.0,0.0,0.0,0.0,0.0,0.0,0.0,0.0,0.0,0.0,0.0,0.0,0.0,0.0,0.0,0.0,0.0,0.0,0.0,0.0,0.0,0.0,0.0,0.0,0.0,0.0,0.0,0.0,0.0,0.0,0.0,0.0,0.0,0.0,0.0,0.0,0.0,0.0,0.0,0.0,0.0,0.0,0.0,0.0,0.0,0.0,0.0,0.0,0.0,0.0,0.0,0.0,0.0,0.0,0.0,0.0,0.0,0.0,0.0,0.0,0.0,0.0,0.0,0.0,0.0,0.0,0.0,0.0,0.0,0.0,0.0,0.0,0.0,0.0,0.0,0.0,0.0,0.0,0.0,0.0,0.0,0.0,0.0,0.0,0.0,0.0,0.0,0.0,0.0,0.0,0.0,0.0,0.0,0.0,0.0,0.0,0.0,0.0,0.0,0.0,0.0,0.0,0.0,0.0,0.0,0.0,0.0,0.0,0.0,0.0,0.0,0.0,0.0,0.0,0.0,0.0,0.0,0.0,0.0,0.0,-1.2251,0.0,0.0,0.0,0.0,0.0,0.0,0.0,0.0,0.0,0.0,0.0,0.0,0.0,0.0,0.0,0.0,0.0,0.0,0.0,0.0,0.0,0.0,0.0,0.0,0.0,0.0,0.0,0.0,0.0,0.0,0.0,0.0,0.0,0.0,0.0,0.0,0.0,0.0,0.0,0.0,0.0,0.0,0.0,0.0,0.0,0.0,0.0,0.0,0.0,0.0,0.0,0.0,0.0,0.0,0.0,0.0,0.0,0.0,0.0,0.0,0.0,0.0,0.0,0.0,0.0,0.0,0.0,0.0,0.0,0.0,0.0,0.0,0.0,0.0,0.0,0.0,0.0,0.0,0.0,0.0,0.0,0.0,0.0,0.0,0.0,0.0,0.0,0.0,0.0,0.0,0.0,0.0,0.0,0.0,0.0,0.0,0.0,0.0,0.0,0.0,0.0,0.0,0.0,0.0,0.0,0.0,0.0,0.0,0.0,0.0,-1.3052,-1.3134,-1.2617,-1.2339,-1.2325,0.0,0.0,0.0,0.0,0.0,0.0,0.0,0.0,0.0,0.0,0.0,0.0,0.0,0.0,0.0,0.0,0.0,0.0,0.0,0.0,0.0,0.0,0.0,0.0,0.0,0.0,0.0,0.0,0.0,0.0,0.0,0.0,0.0,0.0,0.0,0.0,0.0,0.0,0.0,0.0,0.0,0.0,0.0,0.0,0.0,0.0,0.0,0.0,0.0,0.0,0.0,0.0,0.0,0.0,0.0,0.0,0.0,0.0,0.0,0.0,0.0,0.0,0.0,0.0,0.0,0.0,0.0,0.0,0.0,0.0,0.0,0.0,0.0,0.0,0.0,0.0,0.0,0.0,0.0,0.0,0.0,0.0,0.0,0.0,0.0,0.0,0.0,0.0,0.0,0.0,0.0,0.0,0.0,0.0,0.0,0.0,0.0,0.0,0.0,0.0,0.0,0.0,0.0,0.0,0.0,0.0,0.0,0.0,0.0,0.0,0.0,0.0,-1.2771,-1.2497,-1.2337,0.0,0.0,0.0,0.0,0.0,0.0,0.0,0.0,0.0,0.0,0.0,0.0,0.0,0.0,0.0,0.0,0.0,0.0,0.0,0.0,0.0,0.0,0.0,0.0,0.0,0.0,0.0,0.0,0.0,0.0,0.0,0.0,0.0,0.0,0.0,0.0,0.0,0.0,0.0,0.0,0.0,0.0,0.0,0.0,0.0,0.0,0.0,0.0,0.0,0.0,0.0,0.0,0.0,0.0,0.0,0.0,0.0,0.0,0.0,0.0,0.0,0.0,0.0,0.0,0.0,0.0,0.0,0.0,0.0,0.0,0.0,0.0,0.0,0.0,0.0,0.0,0.0,0.0,0.0,0.0,0.0,0.0,0.0,0.0,0.0,0.0,0.0,0.0,0.0,0.0,0.0,0.0,0.0,0.0,0.0,0.0,0.0,0.0,0.0,0.0,0.0,0.0,0.0,0.0,0.0,0.0,0.0,0.0,0.0,0.0,-1.3399,-1.3453,-1.3578,0.0,-1.2829,0.0,0.0,0.0,0.0,0.0,0.0,0.0,0.0,0.0,0.0,0.0,0.0,0.0,0.0,0.0,0.0,0.0,0.0,0.0,0.0,0.0,0.0,0.0,0.0,0.0,0.0,0.0,0.0,0.0,0.0,0.0,0.0,0.0,0.0,0.0,0.0,0.0,0.0,0.0,0.0,0.0,0.0,0.0,0.0,0.0,0.0,0.0,0.0,0.0,0.0,0.0,0.0,0.0,0.0,0.0,0.0,0.0,0.0,0.0,0.0,0.0,0.0,0.0,0.0,0.0,0.0,0.0,0.0,0.0,0.0,0.0,0.0,0.0,0.0,0.0,0.0,0.0,0.0,0.0,0.0,0.0,0.0,0.0,0.0,0.0,0.0,0.0,0.0,0.0,0.0,0.0,0.0,0.0,0.0,0.0,0.0,0.0,0.0,0.0,0.0,0.0,0.0,0.0,0.0,0.0,0.0,0.0,0.0,0.0,0.0,-1.3151,-1.3267,-1.3387,-1.3183,0.0,0.0,0.0,0.0,0.0,0.0,0.0,0.0,0.0,0.0,0.0,0.0,0.0,0.0,0.0,0.0,0.0,0.0,0.0,0.0,0.0,0.0,0.0,0.0,0.0,0.0,0.0,0.0,0.0,0.0,0.0,0.0,0.0,0.0,0.0,0.0,0.0,0.0,0.0,0.0,0.0,0.0,0.0,0.0,0.0,0.0,0.0,0.0,0.0,0.0,0.0,0.0,0.0,0.0,0.0,0.0,0.0,0.0,0.0,0.0,0.0,0.0,0.0,0.0,0.0,0.0,0.0,0.0,0.0,0.0,0.0,0.0,0.0,0.0,0.0,0.0,0.0,0.0,0.0,0.0,0.0,0.0,0.0,0.0,0.0,0.0,0.0,0.0,0.0,0.0,0.0,0.0,0.0,0.0,0.0,0.0,0.0,0.0,0.0,0.0,0.0,0.0,0.0,0.0,0.0,0.0,0.0,0.0,0.0,0.0,-1.2838,-1.2925,-1.3042,-1.3094,-1.2942,-1.256,0.0,0.0,0.0,0.0,0.0,0.0,0.0,0.0,0.0,0.0,0.0,0.0,0.0,0.0,0.0,0.0,0.0,0.0,0.0,0.0,0.0,0.0,0.0,0.0,0.0,0.0,0.0,0.0,0.0,0.0,0.0,0.0,0.0,0.0,0.0,0.0,0.0,0.0,0.0,0.0,0.0,0.0,0.0,0.0,0.0,0.0,0.0,0.0,0.0,0.0,0.0,0.0,0.0,0.0,0.0,0.0,0.0,0.0,0.0,0.0,0.0,0.0,0.0,0.0,0.0,0.0,0.0,0.0,0.0,0.0,0.0,0.0,0.0,0.0,0.0,0.0,0.0,0.0,0.0,0.0,0.0,0.0,0.0,0.0,0.0,0.0,0.0,0.0,0.0,0.0,0.0,0.0,0.0,0.0,0.0,0.0,0.0,0.0,0.0,0.0,0.0,0.0,0.0,0.0,0.0,0.0,0.0,0.0,-1.2709,-1.2768,-1.2838,-1.2896,-1.2913,-1.2901,0.0,0.0,0.0,0.0,0.0,0.0,0.0,0.0,0.0,0.0,0.0,0.0,0.0,0.0,0.0,0.0,0.0,0.0,0.0,0.0,0.0,0.0,0.0,0.0,0.0,0.0,0.0,0.0,0.0,0.0,0.0,0.0,0.0,0.0,0.0,0.0,0.0,0.0,0.0,0.0,0.0,0.0,0.0,0.0,0.0,0.0,0.0,0.0,0.0,0.0,0.0,0.0,0.0,0.0,0.0,0.0,0.0,0.0,0.0,0.0,0.0,0.0,0.0,0.0,0.0,0.0,0.0,0.0,0.0,0.0,0.0,0.0,0.0,0.0,0.0,0.0,0.0,0.0,0.0,0.0,0.0,0.0,0.0,0.0,0.0,0.0,0.0,0.0,0.0,0.0,0.0,0.0,0.0,0.0,0.0,0.0,0.0,0.0,0.0,0.0,0.0,0.0,0.0,0.0,0.0,0.0,0.0,0.0,0.0,-1.2692,-1.2727,-1.275,-1.2768,-1.2768,-1.2768,0.0,0.0,0.0,0.0,0.0,0.0,0.0,0.0,0.0,0.0,0.0,0.0,0.0,0.0,0.0,0.0,0.0,0.0,0.0,0.0,0.0,0.0,0.0,0.0,0.0,0.0,0.0,0.0,0.0,0.0,0.0,0.0,0.0,0.0,0.0,0.0,0.0,0.0,0.0,0.0,0.0,0.0,0.0,0.0,0.0,0.0,0.0,0.0,0.0,0.0,0.0,0.0,0.0,0.0,0.0,0.0,0.0,0.0,0.0,0.0,0.0,0.0,0.0,0.0,0.0,0.0,0.0,0.0,0.0,0.0,0.0,0.0,0.0,0.0,0.0,0.0,0.0,0.0,0.0,0.0,0.0,0.0,0.0,0.0,0.0,0.0,0.0,0.0,0.0,0.0,0.0,0.0,0.0,0.0,0.0,0.0,0.0,0.0,0.0,0.0,0.0,0.0,0.0,0.0,0.0,0.0,0.0,0.0,0.0,-1.2692,0.0,-1.2692,-1.2692,-1.2692,-1.2692,0.0,0.0,0.0,0.0,0.0,0.0,0.0,0.0,0.0,0.0,0.0,0.0,0.0,0.0,0.0,0.0,0.0,0.0,0.0,0.0,0.0,0.0,0.0,0.0,0.0,0.0,0.0,0.0,0.0,0.0,0.0,0.0,0.0,0.0,0.0,0.0,0.0,0.0,0.0,0.0,0.0,0.0,0.0,0.0,0.0,0.0,0.0,0.0,0.0,0.0,0.0,0.0,0.0,0.0,0.0,0.0,0.0,0.0,0.0,0.0,0.0,0.0,0.0,0.0,0.0,0.0,0.0,0.0,0.0,0.0,0.0,0.0,0.0,0.0,0.0,0.0,0.0,0.0,0.0,0.0,0.0,0.0,0.0,0.0,0.0,0.0,0.0,0.0,0.0,0.0,0.0,0.0,0.0,0.0,0.0,0.0,0.0,0.0,0.0,0.0,0.0,0.0,0.0,0.0,0.0,0.0,0.0,0.0,-1.2585,-1.2692,-1.2692,-1.2692,-1.2692,-1.2692,-1.2692,0.0,0.0,0.0,0.0,0.0,0.0,0.0,0.0,0.0,0.0,0.0,0.0,0.0,0.0,0.0,0.0,0.0,0.0,0.0,0.0,0.0,0.0,0.0,0.0,0.0,0.0,0.0,0.0,0.0,0.0,0.0,0.0,0.0,0.0,0.0,0.0,0.0,0.0,0.0,0.0,0.0,0.0,0.0,0.0,0.0,0.0,0.0,0.0,0.0,0.0,0.0,0.0,0.0,0.0,0.0,0.0,0.0,0.0,0.0,0.0,0.0,0.0,0.0,0.0,0.0,0.0,0.0,0.0,0.0,0.0,0.0,0.0,0.0,0.0,0.0,0.0,0.0,0.0,0.0,0.0,0.0,0.0,0.0,0.0,0.0,0.0,0.0,0.0,0.0,0.0,0.0,0.0,0.0,0.0,0.0,0.0,0.0,0.0,0.0,0.0,0.0,0.0,0.0,0.0,0.0,0.0,0.0,0.0,0.0,-1.2704,-1.2692,-1.2692,-1.2692,-1.2692,-1.2692,0.0,0.0,0.0,0.0,0.0,0.0,0.0,0.0,0.0,0.0,0.0,0.0,0.0,0.0,0.0,0.0,0.0,0.0,0.0,0.0,0.0,0.0,0.0,0.0,0.0,0.0,0.0,0.0,0.0,0.0,0.0,0.0,0.0,0.0,0.0,0.0,0.0,0.0,0.0,0.0,0.0,0.0,0.0,0.0,0.0,0.0,0.0,0.0,0.0,0.0,0.0,0.0,0.0,0.0,0.0,0.0,0.0,0.0,0.0,0.0,0.0,0.0,0.0,0.0,0.0,0.0,0.0,0.0,0.0,0.0,0.0,0.0,0.0,0.0,0.0,0.0,0.0,0.0,0.0,0.0,0.0,0.0,0.0,0.0,0.0,0.0,0.0,0.0,0.0,0.0,0.0,0.0,0.0,0.0,0.0,0.0,0.0,0.0,0.0,0.0,0.0,0.0,0.0,0.0,0.0,0.0,0.0,0.0,0.0,-1.3564,-1.3564,-1.3552,-1.3552,-1.3378,-1.3204,-1.2993,0.0,0.0,0.0,0.0,0.0,0.0,0.0,0.0,0.0,0.0,0.0,0.0,0.0,0.0,0.0,0.0,0.0,0.0,0.0,0.0,0.0,0.0,0.0,0.0,0.0,0.0,0.0,0.0,0.0,0.0,0.0,0.0,0.0,0.0,0.0,0.0,0.0,0.0,0.0,0.0,0.0,0.0,0.0,0.0,0.0,0.0,0.0,0.0,0.0,0.0,0.0,0.0,0.0,0.0,0.0,0.0,0.0,0.0,0.0,0.0,0.0,0.0,0.0,0.0,0.0,0.0,0.0,0.0,0.0,0.0,0.0,0.0,0.0,0.0,0.0,0.0,0.0,0.0,0.0,0.0,0.0,0.0,0.0,0.0,0.0,0.0,0.0,0.0,0.0,0.0,0.0,0.0,0.0,0.0,0.0,0.0,0.0,0.0,0.0,0.0,0.0,0.0,0.0,0.0,0.0,0.0,0.0,0.0,-1.5099,-1.5169,-1.5133,-1.5004,-1.4582,-1.4084,0.0,0.0,0.0,0.0,0.0,0.0,0.0,0.0,0.0,0.0,0.0,0.0,0.0,0.0,0.0,0.0,0.0,0.0,0.0,0.0,0.0,0.0,0.0,0.0,0.0,0.0,0.0,0.0,0.0,0.0,0.0,0.0,0.0,0.0,0.0,0.0,0.0,0.0,0.0,0.0,0.0,0.0,0.0,0.0,0.0,0.0,0.0,0.0,0.0,0.0,0.0,0.0,0.0,0.0,0.0,0.0,0.0,0.0,0.0,0.0,0.0,0.0,0.0,0.0,0.0,0.0,0.0,0.0,0.0,0.0,0.0,0.0,0.0,0.0,0.0,0.0,0.0,0.0,0.0,0.0,0.0,0.0,0.0,0.0,0.0,0.0,0.0,0.0,0.0,0.0,0.0,0.0,0.0,0.0,0.0,0.0,0.0,0.0,0.0,0.0,0.0,0.0,0.0,0.0,0.0,0.0,0.0,0.0,0.0,-1.6715,-1.7147,-1.6787,-1.5636,-1.5073,-1.4586,0.0,0.0,0.0,0.0,0.0,0.0,0.0,0.0,0.0,0.0,0.0,0.0,0.0,0.0,0.0,0.0,0.0,0.0,0.0,0.0,0.0,0.0,0.0,0.0,0.0,0.0,0.0,0.0,0.0,0.0,0.0,0.0,0.0,0.0,0.0,0.0,0.0,0.0,0.0,0.0,0.0,0.0,0.0,0.0,0.0,0.0,0.0,0.0,0.0,0.0,0.0,0.0,0.0,0.0,0.0,0.0,0.0,0.0,0.0,0.0,0.0,0.0,0.0,0.0,0.0,0.0,0.0,0.0,0.0,0.0,0.0,0.0,0.0,0.0,0.0,0.0,0.0,0.0,0.0,0.0,0.0,0.0,0.0,0.0,0.0,0.0,0.0,0.0,0.0,0.0,0.0,0.0,0.0,0.0,0.0,0.0,0.0,0.0,0.0,0.0,0.0,0.0,0.0,0.0,0.0,0.0,0.0,0.0,-1.6224,-1.7375,-1.8145,-1.8097,-1.7159,-1.6199,-1.5334,0.0,0.0,0.0,0.0,0.0,0.0,0.0,0.0,0.0,0.0,0.0,0.0,0.0,0.0,0.0,0.0,0.0,0.0,0.0,0.0,0.0,0.0,0.0,0.0,0.0,0.0,0.0,0.0,0.0,0.0,0.0,0.0,0.0,0.0,0.0,0.0,0.0,0.0,0.0,0.0,0.0,0.0,0.0,0.0,0.0,0.0,0.0,0.0,0.0,0.0,0.0,0.0,0.0,0.0,0.0,0.0,0.0,0.0,0.0,0.0,0.0,0.0,0.0,0.0,0.0,0.0,0.0,0.0,0.0,0.0,0.0,0.0,0.0,0.0,0.0,0.0,0.0,0.0,0.0,0.0,0.0,0.0,0.0,0.0,0.0,0.0,0.0,0.0,0.0,0.0,0.0,0.0,0.0,0.0,0.0,0.0,0.0,0.0,0.0,0.0,0.0,0.0,0.0,0.0,0.0,0.0,0.0,0.0,-1.6883,-1.7496,-1.847,-1.9013,-1.8977,-1.7483,-1.6199,0.0,0.0,0.0,0.0,0.0,0.0,0.0,0.0,0.0,0.0,0.0,0.0,0.0,0.0,0.0,0.0,0.0,0.0,0.0,0.0,0.0,0.0,0.0,0.0,0.0,0.0,0.0,0.0,0.0,0.0,0.0,0.0,0.0,0.0,0.0,0.0,0.0,0.0,0.0,0.0,0.0,0.0,0.0,0.0,0.0,0.0,0.0,0.0,0.0,0.0,0.0,0.0,0.0,0.0,0.0,0.0,0.0,0.0,0.0,0.0,0.0,0.0,0.0,0.0,0.0,0.0,0.0,0.0,0.0,0.0,0.0,0.0,0.0,0.0,0.0,0.0,0.0,0.0,0.0,0.0,0.0,0.0,0.0,0.0,0.0,0.0,0.0,0.0,0.0,0.0,0.0,0.0,0.0,0.0,0.0,0.0,0.0,0.0,0.0,0.0,0.0,0.0,0.0,0.0,0.0,0.0,0.0,0.0,-1.7063,-1.8013,-1.8662,-1.9013,-1.8987,-1.7857,-1.6727,0.0,0.0,0.0,0.0,0.0,0.0,0.0,0.0,0.0,0.0,0.0,0.0,0.0,0.0,0.0,0.0,0.0,0.0,0.0,0.0,0.0,0.0,0.0,0.0,0.0,0.0,0.0,0.0,0.0,0.0,0.0,0.0,0.0,0.0,0.0,0.0,0.0,0.0,0.0,0.0,0.0,0.0,0.0,0.0,0.0,0.0,0.0,0.0,-0.7773,0.0,0.0,0.0,0.0,0.0,0.0,0.0,0.0,0.0,0.0,0.0,0.0,0.0,0.0,0.0,0.0,0.0,0.0,0.0,0.0,0.0,0.0,0.0,0.0,0.0,0.0,0.0,0.0,0.0,0.0,0.0,0.0,0.0,0.0,0.0,0.0,0.0,0.0,0.0,0.0,0.0,0.0,0.0,0.0,0.0,0.0,0.0,0.0,0.0,0.0,0.0,0.0,0.0,0.0,0.0,0.0,0.0,0.0,0.0,-1.7363,-1.8181,-1.8722,-1.9013,-1.8989,-1.8205,-1.7267,0.0,0.0,0.0,0.0,0.0,0.0,0.0,0.0,0.0,0.0,0.0,0.0,0.0,0.0,0.0,0.0,0.0,0.0,0.0,0.0,0.0,0.0,0.0,0.0,0.0,0.0,0.0,0.0,0.0,0.0,0.0,0.0,0.0,0.0,0.0,0.0,0.0,0.0,0.0,0.0,0.0,0.0,0.0,0.0,0.0,0.0,0.0,0.0,0.0,0.0,0.0,0.0,0.0,0.0,0.0,0.0,0.0,0.0,0.0,0.0,0.0,0.0,0.0,0.0,0.0,0.0,0.0,0.0,0.0,0.0,0.0,0.0,0.0,0.0,0.0,0.0,0.0,0.0,0.0,0.0,0.0,0.0,0.0,0.0,0.0,0.0,0.0,0.0,0.0,0.0,0.0,0.0,0.0,0.0,0.0,0.0,0.0,0.0,0.0,0.0,0.0,0.0,0.0,0.0,0.0,0.0,0.0,-1.7171,-1.7712,-1.8313,-1.8758,-1.9013,-1.8975,-1.8482,-1.7724,-1.6751,0.0,0.0,0.0,0.0,0.0,0.0,0.0,0.0,0.0,0.0,0.0,0.0,0.0,0.0,0.0,0.0,0.0,0.0,0.0,0.0,0.0,0.0,0.0,0.0,0.0,0.0,0.0,0.0,0.0,0.0,0.0,0.0,0.0,0.0,0.0,0.0,0.0,0.0,-0.9028,-0.8606,0.0,0.0,0.0,0.0,0.0,0.0,0.0,0.0,-0.8388,0.0,0.0,0.0,0.0,0.0,0.0,0.0,0.0,0.0,0.0,0.0,0.0,0.0,0.0,0.0,0.0,0.0,0.0,0.0,0.0,0.0,0.0,0.0,0.0,0.0,0.0,0.0,0.0,0.0,0.0,0.0,0.0,0.0,0.0,0.0,0.0,0.0,0.0,0.0,0.0,0.0,0.0,0.0,0.0,0.0,0.0,0.0,0.0,0.0,0.0,0.0,0.0,0.0,0.0,0.0,0.0,-1.7243,-1.7364,-1.7881,-1.8831,-1.8951,-1.9013,-1.9001,-1.847,-1.7917,-1.7243,0.0,0.0,0.0,0.0,0.0,0.0,0.0,0.0,0.0,0.0,0.0,0.0,0.0,0.0,0.0,0.0,0.0,0.0,0.0,0.0,0.0,0.0,0.0,0.0,0.0,0.0,0.0,0.0,0.0,0.0,0.0,0.0,0.0,0.0,0.0,0.0,0.0,0.0,0.0,-0.9085,-0.8832,0.0,0.0,0.0,0.0,0.0,0.0,0.0,0.0,-0.8945,0.0,0.0,0.0,0.0,0.0,0.0,0.0,0.0,0.0,0.0,0.0,0.0,0.0,0.0,0.0,0.0,0.0,0.0,0.0,0.0,0.0,0.0,0.0,0.0,0.0,0.0,0.0,0.0,0.0,0.0,0.0,0.0,0.0,0.0,0.0,0.0,0.0,0.0,0.0,0.0,0.0,0.0,0.0,0.0,0.0,0.0,0.0,0.0,0.0,0.0,0.0,0.0,0.0,0.0,0.0,-1.7363,-1.7688,-1.8205,-1.8989,-1.9013,-1.9013,-1.9001,-1.847,-1.782,0.0,0.0,0.0,0.0,0.0,0.0,0.0,0.0,0.0,0.0,0.0,0.0,0.0,0.0,0.0,0.0,0.0,0.0,0.0,0.0,0.0,0.0,0.0,0.0,0.0,0.0,0.0,0.0,0.0,0.0,0.0,0.0,0.0,0.0,0.0,0.0,0.0,0.0,0.0,0.0,-0.9384,-0.9359,-0.965,0.0,0.0,0.0,0.0,0.0,0.0,-0.9505,-0.9315,0.0,0.0,0.0,0.0,0.0,0.0,0.0,0.0,0.0,0.0,0.0,0.0,0.0,0.0,0.0,0.0,0.0,0.0,0.0,0.0,0.0,0.0,0.0,0.0,0.0,0.0,0.0,0.0,0.0,0.0,0.0,0.0,0.0,0.0,0.0,0.0,0.0,0.0,0.0,0.0,0.0,0.0,0.0,0.0,0.0,0.0,0.0,0.0,0.0,0.0,0.0,0.0,0.0,0.0,0.0,-1.7387,-1.7929,-1.847,-1.8989,-1.9013,-1.9013,-1.9001,-1.8386,-1.7592,0.0,0.0,0.0,0.0,0.0,0.0,0.0,0.0,0.0,0.0,0.0,0.0,0.0,0.0,0.0,0.0,0.0,0.0,0.0,0.0,0.0,0.0,0.0,0.0,0.0,0.0,0.0,0.0,0.0,0.0,0.0,0.0,0.0,0.0,0.0,0.0,0.0,0.0,0.0,0.0,0.0,-0.9774,-1.0173,-0.9619,0.0,0.0,0.0,0.0,-0.999,-0.9935,0.0,0.0,0.0,0.0,0.0,0.0,0.0,0.0,0.0,0.0,0.0,0.0,0.0,0.0,0.0,0.0,0.0,0.0,0.0,0.0,0.0,0.0,0.0,0.0,0.0,0.0,0.0,0.0,0.0,0.0,0.0,0.0,0.0,0.0,0.0,0.0,0.0,0.0,0.0,0.0,0.0,0.0,0.0,0.0,0.0,0.0,0.0,0.0,0.0,0.0,0.0,0.0,0.0,0.0,0.0,0.0,-1.7375,-1.7929,-1.8458,-1.8989,-1.9025,-1.9013,-1.9001,-1.8025,-1.7207,0.0,0.0,0.0,0.0,0.0,0.0,0.0,0.0,0.0,0.0,0.0,0.0,0.0,0.0,0.0,0.0,0.0,0.0,0.0,0.0,0.0,0.0,0.0,0.0,0.0,0.0,0.0,0.0,0.0,0.0,0.0,0.0,0.0,0.0,0.0,0.0,0.0,0.0,0.0,0.0,0.0,-0.9796,-1.0306,-0.9842,-0.9452,0.0,0.0,-1.0122,-1.0327,-1.0687,0.0,0.0,0.0,0.0,0.0,0.0,0.0,0.0,0.0,0.0,0.0,0.0,0.0,0.0,0.0,0.0,0.0,0.0,0.0,0.0,0.0,0.0,0.0,0.0,0.0,0.0,0.0,0.0,0.0,0.0,0.0,0.0,0.0,0.0,0.0,0.0,0.0,0.0,0.0,0.0,0.0,0.0,0.0,0.0,0.0,0.0,0.0,0.0,0.0,0.0,0.0,0.0,0.0,0.0,0.0,-1.7772,-1.8313,-1.9143,-1.9672,-1.9904,-1.9913,-1.9756,-1.9444,-1.871,-1.7772,0.0,0.0,0.0,0.0,0.0,0.0,0.0,0.0,0.0,0.0,0.0,0.0,0.0,0.0,0.0,0.0,0.0,0.0,0.0,0.0,0.0,0.0,0.0,0.0,0.0,0.0,0.0,0.0,0.0,0.0,0.0,0.0,0.0,0.0,0.0,0.0,0.0,0.0,0.0,0.0,0.0,0.0,-1.0754,-1.057,0.0,0.0,0.0,-1.0748,-1.0783,0.0,0.0,0.0,0.0,0.0,0.0,0.0,0.0,0.0,0.0,0.0,0.0,0.0,0.0,0.0,0.0,0.0,0.0,0.0,0.0,0.0,0.0,0.0,0.0,0.0,0.0,0.0,0.0,0.0,0.0,0.0,0.0,0.0,0.0,0.0,0.0,0.0,0.0,0.0,0.0,0.0,0.0,0.0,0.0,0.0,0.0,0.0,0.0,0.0,0.0,0.0,0.0,0.0,0.0,0.0,0.0,0.0,-1.9013,-2.0069,-2.0598,-2.0615,-2.0598,-2.0418,-1.9997,-1.9495,0.0,0.0,0.0,0.0,0.0,0.0,0.0,0.0,0.0,0.0,0.0,0.0,0.0,0.0,0.0,0.0,0.0,0.0,0.0,0.0,0.0,0.0,0.0,0.0,0.0,0.0,0.0,-1.0041,0.0,0.0,0.0,0.0,0.0,0.0,0.0,0.0,0.0,0.0,0.0,0.0,0.0,0.0,-1.0883,-1.1238,-1.1483,-1.1601,0.0,0.0,-1.144,-1.1434,-1.1654,-1.1661,0.0,0.0,0.0,0.0,0.0,0.0,0.0,0.0,0.0,0.0,0.0,0.0,0.0,0.0,0.0,0.0,0.0,0.0,0.0,0.0,0.0,0.0,0.0,0.0,0.0,0.0,0.0,0.0,0.0,0.0,0.0,0.0,0.0,0.0,0.0,0.0,0.0,0.0,0.0,0.0,0.0,0.0,0.0,0.0,0.0,0.0,0.0,0.0,0.0,0.0,0.0,0.0,0.0,0.0,0.0,-1.9011,-2.0057,-2.0634,-2.0593,-2.0581,-2.061,-2.0562,-2.0021,-1.8987,0.0,0.0,0.0,0.0,0.0,0.0,0.0,0.0,0.0,0.0,0.0,0.0,0.0,0.0,0.0,0.0,0.0,0.0,0.0,0.0,0.0,0.0,0.0,0.0,0.0,0.0,0.0,0.0,0.0,0.0,0.0,0.0,0.0,0.0,0.0,0.0,0.0,0.0,0.0,0.0,0.0,-1.1733,-1.1852,-1.2544,-1.2905,0.0,0.0,-1.2408,-1.2399,-1.2831,-1.2857,-1.1975,0.0,0.0,0.0,0.0,0.0,0.0,0.0,0.0,0.0,0.0,0.0,0.0,0.0,0.0,0.0,0.0,0.0,0.0,0.0,0.0,0.0,0.0,0.0,0.0,0.0,0.0,0.0,0.0,0.0,0.0,0.0,0.0,0.0,0.0,0.0,0.0,0.0,0.0,0.0,0.0,0.0,0.0,0.0,0.0,0.0,0.0,0.0,0.0,0.0,0.0,0.0,0.0,0.0,-1.9107,-1.9977,-2.1043,-2.1584,-2.1584,-2.1584,-2.144,-2.1103,-2.0887,-2.0021,0.0,0.0,0.0,0.0,0.0,0.0,0.0,0.0,0.0,0.0,0.0,0.0,0.0,0.0,0.0,0.0,0.0,0.0,0.0,0.0,0.0,0.0,0.0,0.0,0.0,0.0,0.0,0.0,-1.1443,-1.1417,-1.1199,0.0,0.0,0.0,0.0,0.0,0.0,0.0,0.0,0.0,0.0,-1.2141,-1.257,-1.2974,0.0,0.0,-1.2968,-1.2912,-1.2673,-1.2844,-1.2831,-1.2243,-1.1818,0.0,0.0,0.0,0.0,0.0,0.0,0.0,0.0,0.0,0.0,0.0,0.0,0.0,0.0,0.0,0.0,0.0,0.0,0.0,0.0,0.0,0.0,0.0,0.0,0.0,0.0,0.0,0.0,0.0,0.0,0.0,0.0,0.0,0.0,0.0,0.0,0.0,0.0,0.0,0.0,0.0,0.0,0.0,0.0,0.0,0.0,0.0,0.0,0.0,0.0,0.0,0.0,-1.97,-2.0586,-2.1675,-2.2197,-2.2197,-2.2197,-2.2017,-2.1656,-2.1644,-2.0971,0.0,0.0,0.0,0.0,0.0,0.0,0.0,0.0,0.0,0.0,0.0,0.0,0.0,0.0,0.0,0.0,0.0,0.0,0.0,0.0,0.0,0.0,0.0,0.0,0.0,0.0,0.0,0.0,-1.2238,-1.195,-1.1125,0.0,0.0,0.0,0.0,0.0,0.0,0.0,0.0,0.0,0.0,-1.324,-1.3606,-1.3818,-1.39,-1.3718,-1.3533,-1.3321,-1.306,-1.3118,-1.3119,-1.2897,0.0,0.0,0.0,0.0,0.0,0.0,0.0,0.0,0.0,0.0,0.0,0.0,0.0,0.0,0.0,0.0,0.0,0.0,0.0,0.0,0.0,0.0,0.0,0.0,0.0,0.0,0.0,0.0,0.0,0.0,-1.4359,0.0,0.0,0.0,0.0,0.0,0.0,0.0,0.0,0.0,0.0,0.0,0.0,0.0,0.0,0.0,0.0,0.0,0.0,0.0,0.0,0.0,0.0,-2.0073,-2.0622,-2.1687,-2.2216,-2.2216,-2.2197,-2.2204,-2.2192,-2.2204,-2.1668,-2.0598,0.0,0.0,0.0,0.0,0.0,0.0,0.0,0.0,0.0,0.0,0.0,0.0,0.0,0.0,0.0,0.0,0.0,0.0,0.0,0.0,0.0,0.0,0.0,0.0,0.0,0.0,-1.3131,-1.2701,-1.1977,0.0,0.0,0.0,0.0,0.0,0.0,0.0,0.0,0.0,0.0,-1.4336,-1.5206,-1.4972,-1.5227,-1.5152,-1.4654,-1.4068,-1.3676,-1.3684,-1.379,-1.3961,0.0,0.0,0.0,0.0,0.0,0.0,0.0,0.0,0.0,0.0,0.0,0.0,0.0,0.0,0.0,0.0,0.0,0.0,0.0,0.0,0.0,0.0,0.0,0.0,0.0,0.0,0.0,-1.623,-1.6089,0.0,0.0,0.0,0.0,0.0,0.0,0.0,0.0,0.0,0.0,0.0,-1.9975,-1.9681,0.0,0.0,0.0,0.0,0.0,0.0,0.0,0.0,0.0,0.0,0.0,0.0,-2.0572,-2.1209,-2.2472,-2.3143,-2.3125,-2.3143,-2.313,-2.3113,-2.3143,-2.2803,-2.2062,0.0,0.0,0.0,0.0,0.0,0.0,0.0,0.0,0.0,0.0,0.0,0.0,0.0,0.0,0.0,0.0,0.0,0.0,0.0,0.0,0.0,0.0,0.0,0.0,0.0,-1.3586,0.0,0.0,0.0,0.0,0.0,0.0,0.0,0.0,0.0,0.0,0.0,-1.3915,-1.458,-1.4819,-1.4973,-1.5104,-1.4924,-1.4807,0.0,0.0,0.0,0.0,0.0,0.0,0.0,0.0,0.0,0.0,0.0,0.0,0.0,0.0,-1.1411,-1.0699,-1.0995,-1.1228,-1.0777,0.0,0.0,0.0,0.0,0.0,0.0,0.0,0.0,0.0,0.0,0.0,0.0,0.0,0.0,-1.8312,0.0,-1.7843,0.0,0.0,0.0,0.0,0.0,0.0,0.0,0.0,-2.082,-2.1249,-2.1531,-2.125,-2.1275,0.0,-2.1198,-2.0553,0.0,0.0,0.0,0.0,0.0,0.0,0.0,0.0,-2.1077,-2.1589,-2.2898,-2.3607,-2.3607,-2.3607,-2.3607,-2.3607,-2.3607,-2.3427,-2.3068,-2.1975,-2.1143,0.0,0.0,0.0,0.0,0.0,0.0,0.0,0.0,0.0,0.0,0.0,0.0,0.0,0.0,0.0,0.0,0.0,0.0,0.0,0.0,0.0,0.0,0.0,-1.4573,0.0,0.0,0.0,0.0,0.0,0.0,0.0,0.0,0.0,-1.3563,-1.4212,-1.4862,-1.5413,-1.5377,-1.5336,-1.5341,0.0,0.0,0.0,0.0,0.0,0.0,0.0,-1.4154,-1.4511,-1.483,-1.4987,-1.4864,-1.4057,-1.3381,-1.3112,0.0,0.0,-1.1981,-1.2179,-1.2445,-1.2008,-1.1921,-1.1913,-1.187,-1.1852,-1.187,0.0,0.0,0.0,0.0,0.0,0.0,0.0,0.0,-2.0949,-2.0886,0.0,-2.0784,0.0,0.0,0.0,0.0,0.0,-2.0669,0.0,0.0,-2.2761,-2.3176,-2.307,-2.303,-2.3044,-2.3044,-2.2911,-2.2764,-2.2564,-2.1366,0.0,0.0,0.0,0.0,0.0,0.0,-2.1605,-2.1822,-2.3055,-2.3636,-2.3666,-2.3666,-2.3666,-2.3666,-2.3666,-2.3666,-2.364,-2.3254,-2.2724,-2.2074,-2.0965,0.0,0.0,0.0,0.0,0.0,0.0,0.0,0.0,0.0,0.0,0.0,0.0,0.0,0.0,0.0,0.0,0.0,0.0,0.0,0.0,-1.5695,0.0,0.0,0.0,0.0,0.0,0.0,0.0,0.0,0.0,0.0,-1.427,-1.4923,-1.545,-1.5493,0.0,0.0,0.0,0.0,-1.5218,-1.4685,-1.4046,-1.3693,-1.3724,-1.4188,-1.4742,-1.5339,0.0,0.0,-1.6056,-1.5398,-1.4897,-1.4913,-1.5434,-1.533,-1.3206,-1.3111,-1.3259,-1.3186,-1.3076,-1.2966,-1.2948,-1.2948,-1.2939,-2.3205,0.0,0.0,0.0,0.0,-2.1471,-2.1816,-2.2401,-2.2401,-2.2375,-2.2362,-2.1961,0.0,0.0,0.0,0.0,0.0,0.0,-2.2374,-2.3299,-2.3676,-2.4041,-2.442,-2.4073,-2.4101,-2.4406,-2.4044,-2.403,-2.4282,-2.3918,-2.2697,-2.0695,0.0,0.0,0.0,0.0,-2.2544,-2.3142,-2.4093,-2.4593,-2.4593,-2.458,-2.458,-2.4622,-2.4593,-2.4609,-2.4593,-2.4176,-2.3708,-2.3211,-2.2229,0.0,0.0,0.0,0.0,0.0,0.0,0.0,0.0,0.0,0.0,0.0,0.0,0.0,0.0,0.0,0.0,0.0,0.0,0.0,-1.5812,-1.6407,-1.6299,0.0,0.0,0.0,0.0,0.0,0.0,0.0,0.0,0.0,-1.5254,-1.5762,-1.6315,0.0,0.0,-1.6454,-1.6249,-1.5903,-1.5737,-1.5905,-1.541,0.0,0.0,-1.5468,-1.5489,-1.6083,-1.6395,-1.6511,-1.6437,-1.5976,-1.5614,-1.5622,-1.58,-1.5687,-1.5195,-1.5317,-1.5341,-1.4792,-1.4563,-1.4419,-1.4128,-1.405,-1.4041,-2.5383,-2.3933,-2.2761,-2.2506,-2.2816,-2.2829,-2.3205,-2.3798,-2.3771,-2.3811,-2.3784,-2.3447,-2.3084,-2.2683,-2.2096,0.0,0.0,0.0,-2.346,-2.4337,-2.442,-2.4638,-2.4963,-2.4694,-2.4708,-2.4977,-2.4708,-2.4736,-2.5005,-2.5005,-2.4106,-2.2445,0.0,0.0,-2.1851,-2.2616,-2.327,-2.3808,-2.4581,-2.5005,-2.5005,-2.5005,-2.5005,-2.5005,-2.5005,-2.5005,-2.5005,-2.475,-2.4477,-2.4199,-2.3375,-2.2457,0.0,0.0,0.0,0.0,0.0,0.0,0.0,0.0,0.0,0.0,0.0,-1.6093,0.0,0.0,0.0,0.0,-1.6291,-1.6597,-1.7113,-1.7279,0.0,0.0,0.0,0.0,0.0,0.0,0.0,-1.5078,-1.5648,-1.6061,-1.599,-1.6471,-1.6863,-1.6972,-1.671,-1.6432,-1.6247,0.0,-1.6182,-1.6454,-1.6194,-1.6157,-1.6705,-1.6662,-1.6678,-1.7032,-1.6974,-1.6864,-1.6864,-1.6637,-1.6457,-1.6457,-1.6457,-1.6457,-1.6457,-1.6684,-1.657,-1.569,-1.5468,-1.5381,-1.5108,-1.5049,-1.502,-2.705,-2.686,-2.5166,-2.4394,-2.4313,-2.4313,-2.4611,-2.5141,-2.5154,-2.5141,-2.5154,-2.5154,-2.4828,-2.4272,-2.3743,0.0,-2.434,-2.4313,-2.4624,-2.5154,-2.5154,-2.5141,-2.5154,-2.5154,-2.5154,-2.5154,-2.5154,-2.5154,-2.5168,-2.5168,-2.4855,-2.4326,-2.4065,-2.3524,-2.279,-2.3377,-2.3822,-2.3985,-2.4678,-2.5005,-2.5005,-2.5005,-2.5005,-2.5005,-2.5005,-2.5005,-2.5005,-2.5005,-2.5005,-2.4963,-2.4351,-2.3675,-2.3004,0.0,0.0,0.0,0.0,0.0,0.0,0.0,0.0,0.0,0.0,0.0,0.0,0.0,0.0,0.0,-1.7738,0.0,-1.8691,-1.8182,0.0,0.0,0.0,-1.6255,-1.6187,-1.5906,-1.5737,-1.5754,0.0,0.0,-1.6563,-1.7098,-1.7224,-1.6754,-1.6688,-1.6509,-1.6094,-1.6481,-1.6688,-1.6787,-1.6694,-1.6874,-1.7366,-1.7737,-1.7977,-1.7988,-1.7682,-1.7453,-1.7425,-1.7442,-1.7409,-1.7425,-1.7437,-1.7387,-1.7355,-1.7337,-1.7086,-1.62,-1.5979,-1.5931,-1.5787,-1.5787,-1.5671,-2.9279,-2.8763,-2.7908,-2.6999,-2.6142,-2.6156,-2.6267,-2.6359,-2.6389,-2.6359,-2.6359,-2.6359,-2.6278,-2.6142,-2.6007,-2.602,-2.6156,-2.6156,-2.6237,-2.6359,-2.6359,-2.6373,-2.6359,-2.6359,-2.6359,-2.6359,-2.6359,-2.6373,-2.6359,-2.6359,-2.6291,-2.6156,-2.6113,-2.5297,-2.3797,-2.3933,-2.4258,-2.4732,-2.4909,-2.5005,-2.5005,-2.5005,-2.5005,-2.5005,-2.5005,-2.5005,-2.5005,-2.5005,-2.5005,-2.5005,-2.4841,-2.4475,-2.3852,-2.2599,0.0,0.0,0.0,0.0,0.0,0.0,0.0,0.0,0.0,-1.7305,-1.693,0.0,-1.787,0.0,-1.8508,-1.8608,-1.8229,-1.8049,0.0,0.0,-1.7015,-1.6896,-1.6927,-1.6882,-1.6844,-1.6896,-1.72,-1.7462,-1.761,-1.8065,-1.8305,-1.8185,-1.8174,-1.813,-1.8021,-1.8097,-1.8174,-1.8152,-1.813,-1.8217,-1.8338,-1.8436,-1.8523,-1.8523,-1.8414,-1.8378,-1.8378,-1.8389,-1.8389,-1.8378,-1.8378,-1.8228,-1.789,-1.7835,-1.7625,-1.7073,-1.6684,-1.62,-1.5546,-1.5671,-1.5758,-3.0201,-2.9862,-2.9536,-2.9021,-2.8311,-2.7253,-2.6793,-2.6793,-2.6793,-2.6793,-2.6793,-2.6793,-2.6793,-2.6793,-2.6793,-2.6793,-2.6793,-2.6793,-2.6793,-2.6793,-2.6793,-2.6793,-2.6793,-2.6793,-2.6793,-2.6793,-2.6793,-2.6793,-2.6793,-2.6793,-2.6793,-2.6793,-2.6793,-2.6291,-2.5343,-2.5288,-2.5329,-2.5398,-2.5141,-2.5005,-2.5005,-2.5005,-2.5005,-2.4991,-2.4747,-2.4584,-2.4584,-2.4367,-2.4218,-2.4191,-2.4462,-2.4313,-2.373,-2.3041,-2.2109,0.0,0.0,0.0,0.0,0.0,0.0,0.0,0.0,0.0,0.0,0.0,-1.8412,-1.8321,-1.8726,-1.884,-1.8396,-1.8346,-1.8227,-1.7901,-1.7925,-1.8052,-1.8167,-1.8139,-1.8098,-1.8149,-1.8229,-1.8316,-1.8316,-1.872,-1.9015,-1.9015,-1.92,-1.9189,-1.8774,-1.8698,-1.8763,-1.8971,-1.9015,-1.9102,-1.9267,-1.9157,-1.9015,-1.9004,-1.8829,-1.8698,-1.8698,-1.8698,-1.8698,-1.8698,-1.8698,-1.8622,-1.8359,-1.8316,-1.8206,-1.7981,-1.7727,-1.7207,-1.6339,-1.6332,-1.64,-3.0739,-3.076,-3.0609,-3.0582,-3.0419,-2.8193,-2.7253,-2.7253,-2.724,-2.724,-2.7253,-2.7253,-2.7253,-2.724,-2.7172,-2.7145,-2.7131,-2.705,-2.7023,-2.7023,-2.7023,-2.7023,-2.7054,-2.7009,-2.7054,-2.7023,-2.7023,-2.7054,-2.704,-2.7054,-2.7023,-2.7009,-2.7023,-2.7009,-2.7023,-2.7054,-2.6701,-2.6009,-2.5412,-2.5127,-2.5113,-2.5046,-2.5005,-2.4991,-2.4435,-2.4096,-2.4082,-2.3527,-2.3189,-2.3228,-2.3784,-2.3865,-2.3364,-2.3323,-2.2822,0.0,-2.1074,0.0,0.0,0.0,0.0,0.0,0.0,0.0,0.0,-1.9095,-1.9031,-1.852,-1.8927,-1.915,-1.9027,-1.9027,-1.9027,-1.9039,-1.9199,-1.9357,-1.9488,-1.9343,-1.9272,-1.928,-1.8997,-1.8796,-1.8895,-1.9255,-1.9475,-1.9507,-1.9791,-1.9747,-1.9091,-1.8938,-1.9091,-1.9431,-1.9475,-1.9605,-1.99,-1.9725,-1.9486,-1.9462,-1.9211,-1.8884,-1.8938,-1.8927,-1.8905,-1.8905,-1.8949,-1.8895,-1.8807,-1.8774,-1.8794,-1.8673,-1.8611,-1.8322,-1.7554,-1.7398,-1.7312,-3.2478,-3.2681,-3.1882,-3.1536,-3.1419,-3.0256,-2.974,-2.9726,-2.9726,-2.974,-2.974,-2.974,-2.9726,-2.9686,-2.9197,-2.898,-2.8953,-2.8465,-2.8261,-2.8261,-2.8248,-2.8248,-2.8261,-2.8261,-2.8261,-2.8261,-2.8261,-2.8261,-2.8261,-2.8261,-2.8248,-2.8261,-2.8261,-2.8261,-2.8261,0.0,0.0,0.0,-2.6036,-2.5724,-2.571,-2.5249,-2.5005,-2.4963,-2.4407,0.0,-2.4069,-2.3527,-2.3189,-2.3202,-2.3771,0.0,0.0,0.0,0.0,0.0,0.0,0.0,0.0,0.0,0.0,0.0,-2.2286,-2.1708,-2.0599,-2.0454,-2.0381,-2.0173,-2.0225,-2.0281,-2.0265,-2.0265,-2.0281,-2.0257,-2.0268,-2.0253,-2.0063,-1.9743,-1.9602,-1.9736,-1.9483,-1.9398,-1.9747,-1.9933,-1.9965,-1.9954,-2.0053,-2.0042,-1.9856,-1.978,-1.9867,-1.9965,-1.9933,-1.9998,-2.0107,-2.002,-1.9933,-1.9954,-1.9933,-1.9824,-1.9791,-1.9802,-1.9824,-1.9802,-1.9845,-1.9682,-1.9322,-1.9288,-1.9168,-1.8774,-1.872,-1.8542,-1.8016,-1.8164,-1.8295,-3.2682,0.0,-3.2443,-3.2388,0.0,-3.2035,-3.1854,-3.1764,-3.0787,-3.0405,-3.0405,-3.0405,-3.0405,-3.0391,-3.0079,-2.9944,-2.993,-2.9618,-2.9482,-2.9496,-2.9482,-2.9319,-2.9034,-2.9034,-2.8872,-2.8587,-2.8587,-2.8587,-2.8587,-2.8587,-2.8587,-2.8587,-2.8587,-2.8587,-2.8587,-2.8587,-2.8153,-2.7226,-2.666,-2.6348,-2.6321,-2.5765,-2.5439,-2.5426,0.0,0.0,0.0,0.0,0.0,0.0,0.0,0.0,0.0,0.0,0.0,-2.3242,-2.2917,-2.2863,-2.3173,-2.3174,-2.3379,-2.3851,-2.3671,-2.2887,-2.1308,-2.0895,-2.0668,-2.0586,-2.061,-2.0581,-2.0581,-2.0581,-2.0581,-2.061,-2.0839,-2.0907,-2.0783,-2.0554,-2.0419,-2.0449,-2.0087,-1.9845,-2.0085,-2.0118,-2.0118,-2.0118,-2.0118,-2.0118,-2.0118,-2.0118,-2.0118,-2.0118,-2.0118,-2.0118,-2.0118,-2.0118,-2.0118,-2.0118,-2.0118,-2.0118,-2.0118,-2.0118,-2.0118,-2.0118,-2.0118,-2.002,-1.9824,-1.9747,-1.966,-1.9453,-1.9408,-1.9334,-1.905,-1.8871,-1.8668,-3.2552,-3.281,-3.281,-3.2988,-3.3304,-3.3304,-3.3304,-3.3199,0.0,0.0,0.0,-3.0842,-3.0821,-3.0807,-3.0643,-3.0568,-3.0568,-3.0446,-3.0405,-3.0405,-3.0405,-3.0133,-2.9692,-2.9665,-2.942,-2.8926,-2.8912,-2.8858,-2.8763,-2.875,-2.8695,-2.86,-2.8587,-2.8587,-2.8587,-2.8587,-2.8356,-2.7868,-2.724,-2.6955,-2.6942,-2.6375,-2.6009,-2.59,-2.4842,-2.4204,-2.4096,-2.3527,-2.3189,-2.3228,-2.3784,-2.3865,-2.3418,-2.392,-2.4042,-2.3567,-2.3527,-2.3743,-2.4218,-2.4245,-2.4489,-2.4936,-2.4565,-2.3597,-2.1974,-2.1367,-2.1003,-2.1003,-2.0916,-2.0911,-2.087,-2.0887,-2.0887,-2.0899,-2.1284,-2.1548,-2.1542,-2.1393,-2.1239,-2.1221,-2.0688,-2.0291,-2.0335,-2.0335,-2.027,-2.0205,-2.0205,-2.0151,-2.0118,-2.0118,-2.0118,-2.0118,-2.0118,-2.0118,-2.0118,-2.0118,-2.0118,-2.0118,-2.0118,-2.0118,-2.0118,-2.0118,-2.0118,-2.0118,-2.0118,-2.0107,-2.0118,-2.0085,-2.0118,-2.0118,-2.0118,-2.0118,-2.0053,-1.9486,-1.9015,-3.3164,-3.3234,-3.3199,-3.3234,-3.3304,-3.3304,-3.3304,-3.3255,-3.3017,-3.2877,-3.2877,-3.2526,-3.2384,-3.2321,-3.1523,-3.1178,-3.1124,-3.0635,-3.0405,-3.0405,-3.0405,-3.0364,-3.0283,-3.0283,-3.0228,-3.0161,-3.0147,-2.9876,-2.9434,-2.9393,-2.9135,-2.8655,-2.8587,-2.8587,-2.8587,-2.8587,-2.8546,-2.8465,-2.7881,-2.7583,-2.7569,-2.6999,-2.643,-2.5887,-2.5236,-2.4639,-2.4109,-2.354,-2.3189,-2.3202,-2.3784,-2.4055,-2.4001,-2.4529,-2.4842,-2.4761,-2.4761,-2.4788,-2.4841,-2.4883,-2.4924,-2.4963,-2.4565,-2.3997,-2.3372,-2.284,-2.2583,-2.2565,-2.2183,-2.1969,-2.1969,-2.1964,-2.1939,-2.1964,-2.2017,-2.2077,-2.2053,-2.1791,-2.1588,-2.1588,-2.1273,-2.101,-2.0978,-2.101,-2.0839,-2.0614,-2.0453,-2.0388,-2.0183,-2.0118,-2.0118,-2.0118,-2.0118,-2.0118,-2.0118,-2.0118,-2.0118,-2.0118,-2.0118,-2.0118,-2.0118,-2.0118,-2.0118,-2.0118,-2.0118,-2.0118,-2.0118,-2.0118,-2.0118,-2.0118,-2.0118,-2.0118,-2.0118,-1.9933,-1.9845,-3.3409,-3.3548,-3.3563,-3.3701,-3.3908,-3.3908,-3.3874,-3.3874,-3.3908,-3.3667,-3.3304,-3.3094,-3.3023,-3.2995,-3.2569,-3.2387,-3.236,-3.2083,-3.1972,-3.1972,-3.1972,-3.1688,-3.1192,-3.1165,-3.0911,-3.0418,-3.0405,-3.0269,-2.9998,-2.9984,-2.9672,-2.9122,-2.8796,-2.8587,-2.8587,-2.8587,-2.8587,-2.8587,-2.8329,-2.8193,-2.818,-2.761,-2.7131,-2.6877,-2.5995,-2.5358,-2.5086,-2.4517,-2.4177,-2.4177,-2.4449,-2.4598,-2.4611,-2.4856,-2.5005,-2.5005,-2.5005,-2.5005,-2.5005,-2.5005,-2.5005,-2.4977,-2.4793,-2.458,-2.4379,-2.3708,-2.3275,-2.3275,-2.2866,-2.2586,-2.2586,-2.2574,-2.2586,-2.2574,-2.2586,-2.2586,-2.2525,-2.2037,-2.1714,-2.1683,-2.1411,-2.1201,-2.1201,-2.1201,-2.1063,-2.0667,-2.0485,-2.027,-2.0151,-2.0118,-2.0118,-2.0118,-2.0118,-2.0118,-2.0118,-2.0118,-2.0118,-2.0118,-2.0118,-2.0118,-2.0118,-2.0118,-2.0118,-2.0118,-2.0118,-2.0118,-2.0118,-2.0118,-2.0118,-2.0118,-2.0118,-2.0118,-2.0118,-2.0118,-2.0118,-3.3528,-3.3701,-3.377,-3.4025,-3.438,-3.438,-3.438,-3.438,-3.438,-3.4094,-3.3597,-3.3444,-3.3409,-3.3409,-3.3339,-3.3304,-3.3304,-3.3304,-3.3304,-3.3304,-3.3304,-3.2863,-3.2215,-3.2139,-3.1764,-3.1116,-3.1062,-3.0973,-3.0849,-3.0767,-3.0351,-2.9719,-2.9122,-2.8823,-2.879,-2.8655,-2.8587,-2.8587,-2.8587,-2.8587,-2.8573,-2.8139,-2.7854,-2.7651,-2.6796,-2.624,-2.609,-2.552,-2.5208,-2.5208,-2.5073,-2.5005,-2.5005,-2.5005,-2.5005,-2.5005,-2.5005,-2.5005,-2.5005,-2.5005,-2.5005,-2.5005,-2.5005,-2.4977,-2.4948,-2.435,-2.3872,-2.3725,-2.3335,-2.3078,-2.3047,-2.2939,-2.2878,-2.2878,-2.2787,-2.2696,-2.2665,-2.2161,-2.1819,-2.1776,-2.1569,-2.1454,-2.1423,-2.1411,-2.1285,-2.0935,-2.055,-2.0335,-2.0237,-2.0205,-2.0205,-2.0118,-2.0118,-2.0118,-2.0118,-2.0118,-2.0118,-2.0118,-2.0118,-2.0118,-2.0118,-2.0118,-2.0118,-2.0118,-2.0118,-2.0118,-2.0118,-2.0118,-2.0118,-2.0118,-2.0118,-2.0118,-2.0118,-2.0118,-2.0118,-3.3612,-3.3409,-3.3716,-3.4025,-3.438,-3.438,-3.438,-3.438,-3.438,-3.438,-3.423,-3.3908,-3.377,-3.3701,-3.3444,-3.3339,-3.3339,-3.3304,-3.3304,-3.3339,-3.3304,-3.3241,-3.3122,-3.3136,-3.3122,-3.2954,-3.294,-3.2597,-3.215,-3.1799,-3.1227,-3.0344,-2.9699,-2.942,-2.9366,-2.8891,-2.8633,-2.8587,-2.8587,-2.8587,-2.8587,-2.8546,-2.8248,-2.7718,-2.761,-2.7284,-2.6711,-2.6131,-2.5805,-2.5794,-2.5303,-2.5018,-2.5018,-2.5018,-2.5005,-2.5005,-2.5005,-2.5005,-2.5005,-2.5005,-2.5005,-2.5005,-2.5005,-2.5005,-2.5005,-2.492,-2.4679,-2.4292,-2.3813,-2.3547,-2.3518,-2.3185,-2.3,-2.2927,-2.2635,-2.2278,-2.2321,-2.2185,-2.2154,-2.2154,-2.2061,-2.2092,-2.203,-2.203,-2.1956,-2.1671,-2.1336,-2.1051,-2.0784,-2.0667,-2.0571,-2.0302,-2.0151,-2.0151,-2.0118,-2.0118,-2.0118,-2.0118,-2.0118,-2.0118,-2.0118,-2.0118,-2.0118,-2.0118,-2.0118,-2.0118,-2.0118,-2.0118,-2.0118,-2.0118,-2.0118,-2.0118,-2.0118,-2.0118,-2.0118,-3.5201,-3.5009,-3.4396,-3.423,-3.438,-3.438,-3.438,-3.438,-3.438,-3.438,-3.438,-3.4196,-3.4162,-3.4128,-3.4025,-3.3957,-3.3942,-3.3957,-3.3942,-3.3942,-3.3957,-3.3839,-3.3632,-3.3597,-3.3479,-3.3304,-3.3304,-3.3192,-3.2876,-3.2387,-3.1957,-3.1542,-3.096,-3.0488,-3.0127,-2.9864,-2.9463,-2.8922,-2.9099,-2.9099,-2.8876,-2.8683,-2.8478,-2.8234,-2.7895,-2.761,-2.7325,-2.6738,-2.6443,-2.6402,-2.5846,-2.552,-2.552,-2.5195,-2.5005,-2.5005,-2.5005,-2.5005,-2.5005,-2.5005,-2.5005,-2.5005,-2.5005,-2.5005,-2.5005,-2.5005,-2.492,-2.4708,-2.4279,-2.4018,-2.3989,-2.3855,-2.3632,-2.3365,-2.3125,-2.2927,-2.2635,-2.2371,-2.2197,-2.2197,-2.2197,-2.2197,-2.2216,-2.2266,-2.2396,-2.2433,-2.2249,-2.1928,-2.1772,-2.1553,-2.1439,-2.1502,-2.125,-2.07,-2.0302,-2.0118,-2.0118,-2.0118,-2.0118,-2.0118,-2.0151,-2.0118,-2.0118,-2.0118,-2.0151,-2.0151,-2.0118,-2.0118,-2.0118,-2.0118,-2.0118,-2.0118,-2.0118,-2.0118,-2.0118,-3.6286,-3.6141,-3.5111,-3.4574,-3.438,-3.438,-3.438,-3.438,-3.438,-3.438,-3.438,-3.438,-3.438,-3.438,-3.438,-3.438,-3.438,-3.438,-3.438,-3.438,-3.438,-3.423,-3.3977,-3.3991,-3.3839,-3.3632,-3.3632,-3.3563,-3.3402,-3.3035,-3.2746,-3.2593,-3.2039,-3.1476,-3.1026,-3.0731,-3.0167,-2.9553,-2.9589,-2.9477,-2.9226,-2.9004,-2.8844,-2.8707,-2.8198,-2.7949,-2.7936,-2.7335,-2.7037,-2.7009,-2.6484,-2.6145,-2.6117,-2.5575,-2.5181,-2.5018,-2.5005,-2.5005,-2.5005,-2.5005,-2.5005,-2.5005,-2.5005,-2.5005,-2.5005,-2.5005,-2.5005,-2.4977,-2.4692,-2.4507,-2.4465,-2.4379,-2.4134,-2.3842,-2.3695,-2.3442,-2.3125,-2.2744,-2.2574,-2.2432,-2.2432,-2.2414,-2.2432,-2.25,-2.2677,-2.307,-2.3027,-2.2816,-2.2725,-2.2421,-2.2329,-2.2543,-2.2132,-2.1616,-2.0848,-2.0784,-2.0667,-2.0571,-2.0635,-2.0518,-2.0453,-2.0453,-2.0302,-2.0432,-2.0367,-2.027,-2.0205,-2.0183,-2.027,-2.0151,-2.0118,-2.0151,-2.0118,-2.0118,-2.0118,-3.6286,-3.6228,-3.5625,-3.5009,-3.4395,-3.4443,-3.4428,-3.4472,-3.4395,-3.438,-3.438,-3.438,-3.438,-3.438,-3.438,-3.438,-3.438,-3.438,-3.438,-3.438,-3.438,-3.438,-3.438,-3.438,-3.4346,-3.423,-3.423,-3.4094,-3.3805,-3.3762,-3.3575,-3.3241,-3.2712,-3.2368,-3.2134,-3.1237,-3.052,-3.0435,-3.0003,-2.9645,-2.9599,-2.9554,-2.9383,-2.9085,-2.8753,-2.8538,-2.8497,-2.7976,-2.7664,-2.7678,-2.7094,-2.6752,-2.6698,-2.6185,-2.5615,-2.5154,-2.5059,-2.5059,-2.5058,-2.5073,-2.5059,-2.5032,-2.5032,-2.5005,-2.5005,-2.5005,-2.5005,-2.5005,-2.4948,-2.492,-2.4878,-2.4593,-2.4321,-2.4221,-2.3842,-2.3636,-2.3547,-2.3429,-2.3292,-2.2987,-2.2878,-2.2909,-2.2878,-2.2878,-2.3185,-2.3501,-2.3577,-2.3505,-2.3267,-2.3105,-2.2985,-2.2834,-2.2683,-2.2482,-2.2255,-2.1854,-2.1834,-2.1741,-2.1408,-2.125,-2.1219,-2.1187,-2.0976,-2.086,-2.0976,-2.0848,-2.0453,-2.0356,-2.0539,-2.0485,-2.0291,-2.0237,-2.0151,-2.0118,-2.0118,-3.7403,-3.6301,-3.6054,-3.5822,-3.559,-3.5198,-3.5058,-3.5014,-3.4574,-3.438,-3.438,-3.438,-3.438,-3.438,-3.438,-3.438,-3.438,-3.438,-3.438,-3.438,-3.438,-3.438,-3.438,-3.438,-3.438,-3.438,-3.438,-3.4312,-3.4196,-3.4196,-3.4128,-3.3997,-3.3796,-3.3494,-3.3111,-3.2665,-3.2137,-3.15,-3.1028,-3.0714,-3.0455,-3.0125,-2.9865,-2.9741,-2.9194,-2.894,-2.8908,-2.8498,-2.8275,-2.8261,-2.7705,-2.7379,-2.7325,-2.6823,-2.6402,-2.6183,-2.6142,-2.6142,-2.6102,-2.5792,-2.5575,-2.5548,-2.5208,-2.5046,-2.5005,-2.5005,-2.5005,-2.5018,-2.5018,-2.5005,-2.4977,-2.4835,-2.4622,-2.4321,-2.4147,-2.393,-2.3666,-2.3607,-2.3518,-2.3382,-2.3352,-2.3442,-2.3649,-2.3796,-2.3972,-2.4392,-2.4494,-2.4408,-2.4292,-2.4076,-2.3859,-2.4005,-2.38,-2.3623,-2.393,-2.2955,-2.2408,-2.2359,-2.2206,-2.207,-2.2039,-2.1916,-2.1698,-2.171,-2.1772,-2.1741,-2.1396,-2.127,-2.1302,-2.0603,-2.0421,-2.0539,-2.0172,-2.027,-2.0216,-3.84,-3.6986,-3.6892,-3.6668,-3.6272,-3.5865,-3.5697,-3.5654,-3.5419,-3.521,-3.5058,-3.5195,-3.5297,-3.5297,-3.5297,-3.5419,-3.5413,-3.482,-3.438,-3.438,-3.438,-3.438,-3.438,-3.438,-3.438,-3.438,-3.438,-3.438,-3.438,-3.438,-3.438,-3.438,-3.438,-3.4211,-3.3804,-3.362,-3.3126,-3.2501,-3.2052,-3.1587,-3.1171,-3.0766,-3.045,-3.0232,-2.9696,-2.932,-2.9099,-2.8876,-2.8683,-2.8565,-2.8207,-2.7908,-2.7705,-2.7308,-2.6996,-2.685,-2.6779,-2.6793,-2.6752,-2.643,-2.6185,-2.6185,-2.5846,-2.5559,-2.5588,-2.5588,-2.5559,-2.5573,-2.5602,-2.5588,-2.5602,-2.5587,-2.5295,-2.47,-2.4536,-2.4408,-2.4105,-2.4076,-2.3989,-2.3842,-2.3679,-2.3826,-2.4205,-2.425,-2.4494,-2.4948,-2.5005,-2.5005,-2.4948,-2.4765,-2.4593,-2.4878,-2.4622,-2.4507,-2.4565,-2.3959,-2.3475,-2.3416,-2.3027,-2.2895,-2.2834,-2.267,-2.2549,-2.2561,-2.2561,-2.2531,-2.2439,-2.2304,-2.1729,-2.0944,-2.0976,-2.125,-2.0848,-2.0485,-2.0485,-3.9194,-3.8195,-3.8115,-3.7535,-3.6683,-3.6537,-3.6387,-3.6549,-3.6896,-3.6729,-3.6391,-3.6867,-3.697,-3.7089,-3.6956,-3.7368,-3.7252,-3.5665,-3.4772,-3.4772,-3.4617,-3.4554,-3.4569,-3.4443,-3.438,-3.438,-3.438,-3.438,-3.438,-3.438,-3.438,-3.438,-3.438,-3.4385,-3.4351,-3.3833,-3.3561,-3.334,-3.28,-3.2205,-3.1596,-3.1449,-3.1116,-3.0638,-3.0248,-2.9789,-2.9208,-2.9099,-2.894,-2.8651,-2.8592,-2.8302,-2.7868,-2.7732,-2.743,-2.7037,-2.6888,-2.686,-2.6888,-2.6891,-2.6793,-2.6766,-2.6738,-2.6589,-2.6549,-2.6603,-2.6603,-2.6576,-2.6616,-2.6671,-2.6644,-2.6616,-2.6223,-2.5261,-2.5136,-2.5108,-2.5001,-2.4962,-2.4806,-2.4363,-2.4002,-2.3884,-2.4176,-2.4379,-2.458,-2.4892,-2.5005,-2.5005,-2.5005,-2.492,-2.4977,-2.4977,-2.4892,-2.4863,-2.492,-2.4948,-2.475,-2.4549,-2.4031,-2.3682,-2.3754,-2.3666,-2.3416,-2.3357,-2.3446,-2.3416,-2.3058,-2.2895,-2.2561,-2.1978,-2.207,-2.1916,-2.1553,-2.1187,-2.088,-3.9677,-3.9355,-3.9355,-3.9128,-3.8732,-3.8342,-3.8147,-3.8087,-3.7922,-3.7643,-3.7511,-3.7662,-3.7763,-3.7778,-3.7778,-3.7879,-3.7904,-3.7195,-3.6862,-3.6768,-3.6026,-3.5651,-3.5476,-3.4787,-3.438,-3.438,-3.438,-3.438,-3.438,-3.438,-3.438,-3.438,-3.438,-3.438,-3.4366,-3.4225,-3.4124,-3.4051,-3.3485,-3.3082,-3.2774,-3.1975,-3.1393,-3.1176,-3.0723,-3.0219,-2.9803,-2.9352,-2.9067,-2.894,-2.8716,-2.8505,-2.8356,-2.8315,-2.8234,-2.8085,-2.8044,-2.8044,-2.799,-2.7664,-2.7434,-2.7335,-2.7037,-2.682,-2.6793,-2.6833,-2.6833,-2.682,-2.6793,-2.6793,-2.6793,-2.6793,-2.6644,-2.6294,-2.6223,-2.6022,-2.5643,-2.529,-2.4989,-2.4821,-2.465,-2.465,-2.4708,-2.4765,-2.4793,-2.4948,-2.5005,-2.5005,-2.5005,-2.5005,-2.5005,-2.5005,-2.5005,-2.5005,-2.5005,-2.5005,-2.492,-2.4835,-2.4536,-2.4292,-2.4392,-2.4421,-2.4189,-2.4131,-2.4218,-2.4089,-2.3754,-2.3518,-2.3237,-2.2967,-2.2847,-2.2592,-2.2237,-2.1959,-2.171,-4.0393,-4.0235,-4.0235,-4.008,-3.9894,-3.9484,-3.9332,-3.9321,-3.9146,-3.8898,-3.8777,-3.8947,-3.9048,-3.9048,-3.9048,-3.9133,-3.93,-3.9334,-3.9334,-3.9031,-3.7525,-3.6892,-3.672,-3.5636,-3.5053,-3.4961,-3.4632,-3.4414,-3.438,-3.438,-3.438,-3.438,-3.438,-3.438,-3.438,-3.4414,-3.4467,-3.4562,-3.4141,-3.3802,-3.3583,-3.2786,-3.2121,-3.1814,-3.1264,-3.0854,-3.0594,-2.9913,-2.9352,-2.9131,-2.8876,-2.878,-2.878,-2.8894,-2.8972,-2.894,-2.8844,-2.8766,-2.8739,-2.8316,-2.803,-2.7949,-2.7678,-2.7501,-2.7488,-2.7488,-2.7488,-2.7474,-2.7515,-2.7474,-2.7501,-2.7501,-2.7474,-2.7474,-2.6996,-2.6687,-2.624,-2.5914,-2.5575,-2.5437,-2.5329,-2.5236,-2.5073,-2.5005,-2.5005,-2.5005,-2.5005,-2.5005,-2.5005,-2.5005,-2.5005,-2.5005,-2.5005,-2.5005,-2.5005,-2.5005,-2.5005,-2.4977,-2.4892,-2.4765,-2.4778,-2.4765,-2.465,-2.4593,-2.4664,-2.4565,-2.4263,-2.4363,-2.4205,-2.3943,-2.3607,-2.3399,-2.3148,-2.2907,-2.2652,-4.129,-4.0867,-4.0817,-4.0562,-4.01,-4.0054,-4.0058,-4.012,-4.0519,-4.0408,-4.0182,-4.043,-4.0727,-4.0789,-4.0619,-4.0821,-4.1442,-4.1316,-4.122,-4.0739,-3.9349,-3.8254,-3.7667,-3.6634,-3.6223,-3.6138,-3.5112,-3.4564,-3.4695,-3.4593,-3.4448,-3.4515,-3.4601,-3.4501,-3.4635,-3.4501,-3.482,-3.5121,-3.4758,-3.4449,-3.4273,-3.3742,-3.3202,-3.2556,-3.1915,-3.1509,-3.1273,-3.0473,-2.9741,-2.9226,-2.9131,-2.9131,-2.9162,-2.9415,-2.954,-2.9509,-2.9289,-2.9162,-2.9067,-2.8853,-2.862,-2.8575,-2.8547,-2.8587,-2.8456,-2.8356,-2.8356,-2.8383,-2.8424,-2.8478,-2.8465,-2.8438,-2.8451,-2.841,-2.7569,-2.6955,-2.6847,-2.6766,-2.6416,-2.6036,-2.59,-2.5697,-2.5181,-2.51,-2.5005,-2.5005,-2.5005,-2.5005,-2.5005,-2.5005,-2.5005,-2.5005,-2.5005,-2.5005,-2.5005,-2.5005,-2.5005,-2.5005,-2.5005,-2.4977,-2.4977,-2.4948,-2.4935,-2.4948,-2.492,-2.4863,-2.4835,-2.4806,-2.4791,-2.4507,-2.4305,-2.4218,-2.4031,-2.3783,-2.3577,-4.1522,-4.139,-4.139,-4.1274,-4.1158,-4.1158,-4.1125,-4.1174,-4.1274,-4.1256,-4.1174,-4.1307,-4.1357,-4.139,-4.1341,-4.1489,-4.1555,-4.1588,-4.1588,-4.1508,-4.1075,-3.9557,-3.8184,-3.7323,-3.7184,-3.7267,-3.602,-3.5336,-3.5651,-3.5252,-3.5001,-3.5019,-3.5299,-3.5479,-3.5512,-3.5447,-3.5576,-3.5705,-3.5593,-3.529,-3.4919,-3.433,-3.3774,-3.3242,-3.2585,-3.2034,-3.1509,-3.0594,-2.9896,-2.9509,-2.9477,-2.9477,-2.9477,-2.9571,-2.9665,-2.9634,-2.954,-2.9446,-2.9446,-2.9352,-2.9194,-2.9004,-2.894,-2.8876,-2.8619,-2.8587,-2.8587,-2.8587,-2.8587,-2.8587,-2.8587,-2.8587,-2.8587,-2.8505,-2.7908,-2.7474,-2.7406,-2.7081,-2.6711,-2.6579,-2.6199,-2.5914,-2.567,-2.5317,-2.5073,-2.5059,-2.5032,-2.5005,-2.5005,-2.5005,-2.5005,-2.5005,-2.5005,-2.5005,-2.5005,-2.5005,-2.5005,-2.5005,-2.5005,-2.4977,-2.4977,-2.4977,-2.4977,-2.4977,-2.4977,-2.492,-2.492,-2.492,-2.4892,-2.4835,-2.4778,-2.4622,-2.4692,-2.4536,-2.4421,-4.1588,-4.1588,-4.1588,-4.1588,-4.1588,-4.1588,-4.1588,-4.1588,-4.1588,-4.1588,-4.1588,-4.1588,-4.1588,-4.1588,-4.1588,-4.1588,-4.1588,-4.1588,-4.1588,-4.1588,-4.1524,-4.0755,-3.9586,-3.8757,-3.8458,-3.8519,-3.7222,-3.6585,-3.6469,-3.6112,-3.5827,-3.5589,-3.5769,-3.5881,-3.5849,-3.5881,-3.6054,-3.6149,-3.6039,-3.5817,-3.577,-3.5038,-3.4567,-3.4094,-3.3433,-3.2678,-3.2211,-3.1261,-3.0428,-2.9981,-2.9803,-2.9803,-2.9834,-2.9943,-3.0036,-3.0005,-2.9882,-2.9803,-2.9772,-2.9696,-2.9509,-2.932,-2.9194,-2.9004,-2.8812,-2.8683,-2.8587,-2.8587,-2.8587,-2.8587,-2.8587,-2.8587,-2.8587,-2.8546,-2.8275,-2.8085,-2.8071,-2.7813,-2.743,-2.7172,-2.6891,-2.6524,-2.6321,-2.5751,-2.5453,-2.5331,-2.5141,-2.5073,-2.5005,-2.5005,-2.5005,-2.5005,-2.5005,-2.5005,-2.5005,-2.5005,-2.5005,-2.5005,-2.5005,-2.5005,-2.5005,-2.5005,-2.5005,-2.5005,-2.5005,-2.5005,-2.5005,-2.5005,-2.4977,-2.4948,-2.4977,-2.4977,-2.4948,-2.4948,-2.4892,-4.1588,-4.1588,-4.1588,-4.1588,-4.1588,-4.1588,-4.1588,-4.1588,-4.1588,-4.1588,-4.1588,-4.1588,-4.1588,-4.1588,-4.1588,-4.1588,-4.1588,-4.1588,-4.1588,-4.1588,-4.1588,-4.1347,-4.1138,-4.0155,-3.9854,-3.973,-3.8711,-3.7819,-3.7347,-3.7151,-3.6647,-3.6207,-3.6086,-3.6117,-3.6243,-3.618,-3.6352,-3.6646,-3.643,-3.6352,-3.6367,-3.5804,-3.5374,-3.5043,-3.4248,-3.3669,-3.3204,-3.2351,-3.135,-3.0393,-3.0215,-3.0142,-3.0203,-3.0462,-3.0538,-3.0477,-3.0266,-3.0142,-3.0111,-2.9913,-2.9727,-2.9634,-2.9383,-2.9162,-2.9131,-2.8908,-2.8716,-2.8716,-2.8619,-2.8587,-2.8587,-2.8587,-2.8587,-2.8573,-2.8546,-2.8573,-2.8587,-2.8587,-2.8383,-2.7881,-2.7759,-2.742,-2.6928,-2.6375,-2.5889,-2.5602,-2.5358,-2.5059,-2.5005,-2.5005,-2.5005,-2.5005,-2.5005,-2.5005,-2.5005,-2.5005,-2.5005,-2.5005,-2.5005,-2.5005,-2.5005,-2.5005,-2.5005,-2.5005,-2.5005,-2.5005,-2.5005,-2.5005,-2.5005,-2.5005,-2.5005,-2.5005,-2.4977,-2.4977,-2.4948,-4.1588,-4.1588,-4.1588,-4.1588,-4.1588,-4.1588,-4.1588,-4.1588,-4.1588,-4.1588,-4.1588,-4.1588,-4.1588,-4.1588,-4.1588,-4.1588,-4.1588,-4.1588,-4.1588,-4.1588,-4.1588,-4.1588,-4.1474,-4.0854,-4.0839,-4.0685,-3.9518,-3.8705,-3.8387,-3.7867,-3.7217,-3.6708,-3.6892,-3.715,-3.7089,-3.7013,-3.718,-3.7285,-3.718,-3.6922,-3.6723,-3.6492,-3.6101,-3.5708,-3.5038,-3.4693,-3.4407,-3.3543,-3.2596,-3.1808,-3.1037,-3.0576,-3.0521,-3.0538,-3.0598,-3.0582,-3.0552,-3.0492,-3.0447,-3.0371,-3.0249,-3.0005,-2.9865,-2.9772,-2.9477,-2.9194,-2.9004,-2.894,-2.8748,-2.8619,-2.8587,-2.8587,-2.8587,-2.8587,-2.8587,-2.8587,-2.8587,-2.8587,-2.8492,-2.8343,-2.799,-2.7664,-2.7501,-2.6579,-2.6131,-2.5887,-2.552,-2.51,-2.5005,-2.5005,-2.5005,-2.5005,-2.5005,-2.5005,-2.5005,-2.5005,-2.5005,-2.5005,-2.5005,-2.5005,-2.5005,-2.5005,-2.5005,-2.5005,-2.5005,-2.5005,-2.5005,-2.5005,-2.5005,-2.5005,-2.5005,-2.5005,-2.5005,-2.5005,-2.5005,-4.1588,-4.1588,-4.1588,-4.1588,-4.1588,-4.1588,-4.1588,-4.1588,-4.1588,-4.1588,-4.1588,-4.1588,-4.1588,-4.1588,-4.1588,-4.1588,-4.1588,-4.1588,-4.1588,-4.1588,-4.1588,-4.1588,-4.1571,-4.1357,-4.1357,-4.1426,-4.0729,-4.0084,-3.956,-3.8873,-3.8263,-3.7544,-3.758,-3.7421,-3.751,-3.751,-3.748,-3.748,-3.751,-3.7345,-3.7105,-3.6816,-3.6445,-3.5992,-3.561,-3.549,-3.5676,-3.4434,-3.3814,-3.3243,-3.2266,-3.1193,-3.0714,-3.0612,-3.0612,-3.0612,-3.0612,-3.0612,-3.0612,-3.0612,-3.0477,-3.0341,-3.0203,-3.0019,-2.9803,-2.9509,-2.9257,-2.9131,-2.894,-2.8794,-2.8619,-2.8587,-2.8587,-2.8587,-2.8587,-2.8587,-2.8587,-2.8587,-2.8587,-2.8546,-2.8315,-2.818,-2.7773,-2.7054,-2.6633,-2.6484,-2.586,-2.5426,-2.5018,-2.5005,-2.5005,-2.5005,-2.5005,-2.5005,-2.5005,-2.5005,-2.5005,-2.5005,-2.5005,-2.5005,-2.5005,-2.5005,-2.5005,-2.5005,-2.5005,-2.5005,-2.5005,-2.5005,-2.5005,-2.5005,-2.5005,-2.5005,-2.5005,-2.5005,-2.5005,-4.1588,-4.1588,-4.1588,-4.1588,-4.1588,-4.1588,-4.1588,-4.1588,-4.1588,-4.1588,-4.1588,-4.1588,-4.1588,-4.1588,-4.1588,-4.1588,-4.1588,-4.1588,-4.1588,-4.1588,-4.1588,-4.1588,-4.1604,-4.1555,-4.1555,-4.1588,-4.1411,-4.1081,-4.0465,-3.9945,-3.9141,-3.8508,-3.797,-3.7654,-3.7573,-3.751,-3.751,-3.751,-3.751,-3.751,-3.7421,-3.7059,-3.6677,-3.6399,-3.6259,-3.6369,-3.6384,-3.5537,-3.4768,-3.5003,-3.3669,-3.2377,-3.1405,-3.0802,-3.0656,-3.0656,-3.0612,-3.0612,-3.0612,-3.0612,-3.0612,-3.0582,-3.0371,-3.0189,-3.0111,-2.9896,-2.9602,-2.9352,-2.9194,-2.894,-2.8651,-2.8587,-2.8587,-2.8587,-2.8587,-2.8587,-2.8587,-2.8587,-2.8587,-2.8587,-2.8505,-2.8424,-2.8261,-2.78,-2.7434,-2.6999,-2.6348,-2.5765,-2.5344,-2.5018,-2.5032,-2.5005,-2.5005,-2.5005,-2.5005,-2.5005,-2.5005,-2.5005,-2.5005,-2.5005,-2.5005,-2.5005,-2.5005,-2.5005,-2.5005,-2.5005,-2.5005,-2.5005,-2.5005,-2.5005,-2.5005,-2.5005,-2.5005,-2.5005,-2.5005,-4.1588,-4.1588,-4.1588,-4.1588,-4.1588,-4.1588,-4.1588,-4.1588,-4.1588,-4.1588,-4.1588,-4.1588,-4.1588,-4.1588,-4.1588,-4.1588,-4.1588,-4.1588,-4.1588,-4.1588,-4.1588,-4.1588,-4.1588,-4.1588,-4.1588,-4.1588,-4.1573,-4.1257,-4.0798,-4.0419,-3.9692,-3.8744,-3.8365,-3.8081,-3.7636,-3.751,-3.751,-3.751,-3.751,-3.751,-3.745,-3.7345,-3.7255,-3.7089,-3.7043,-3.715,-3.7165,-3.6661,-3.6091,-3.5612,-3.4942,-3.4182,-3.3261,-3.2134,-3.1389,-3.0921,-3.0789,-3.0804,-3.0717,-3.0598,-3.0612,-3.0582,-3.0522,-3.0492,-3.0431,-3.0233,-2.9958,-2.9772,-2.9383,-2.8972,-2.8619,-2.8683,-2.8619,-2.8619,-2.8651,-2.8651,-2.8619,-2.8619,-2.8619,-2.8619,-2.8587,-2.8587,-2.841,-2.8207,-2.7813,-2.7325,-2.6769,-2.6172,-2.5683,-2.5303,-2.5073,-2.5046,-2.5005,-2.5005,-2.5005,-2.5005,-2.5005,-2.5005,-2.5005,-2.5005,-2.5005,-2.5005,-2.5005,-2.5005,-2.5005,-2.5005,-2.5005,-2.5005,-2.5005,-2.5005,-2.5005,-2.5005,-2.5005,-2.5005,-2.5005,-4.1588,-4.1588,-4.1588,-4.1588,-4.1588,-4.1588,-4.1588,-4.1588,-4.1588,-4.1588,-4.1588,-4.1588,-4.1588,-4.1588,-4.1588,-4.1588,-4.1588,-4.1588,-4.1588,-4.1588,-4.1588,-4.1588,-4.1588,-4.1588,-4.1588,-4.1588,-4.1573,-4.1462,-4.1099,-4.0735,-4.0024,-3.9202,-3.8728,-3.816,-3.7652,-3.751,-3.751,-3.751,-3.751,-3.751,-3.751,-3.751,-3.751,-3.751,-3.751,-3.751,-3.7391,-3.6984,-3.6569,-3.6183,-3.5737,-3.5171,-3.4516,-3.3834,-3.2839,-3.2035,-3.1634,-3.1278,-3.0984,-3.0777,-3.0612,-3.0612,-3.0612,-3.0612,-3.0582,-3.0431,-3.0294,-3.005,-2.9741,-2.9289,-2.9162,-2.9099,-2.9131,-2.9131,-2.9099,-2.9004,-2.8908,-2.8876,-2.8812,-2.8683,-2.8651,-2.8651,-2.8573,-2.8329,-2.8058,-2.7623,-2.7149,-2.6606,-2.6036,-2.5643,-2.529,-2.5046,-2.5005,-2.5005,-2.5005,-2.5005,-2.5005,-2.5005,-2.5005,-2.5005,-2.5005,-2.5005,-2.5005,-2.5005,-2.5005,-2.5005,-2.5005,-2.5005,-2.5005,-2.5005,-2.5005,-2.5005,-2.5005,-2.5005,-2.5005,-4.1588,-4.1588,-4.1588,-4.1588,-4.1588,-4.1588,-4.1588,-4.1588,-4.1588,-4.1588,-4.1588,-4.1588,-4.1588,-4.1588,-4.1588,-4.1588,-4.1588,-4.1588,-4.1588,-4.1588,-4.1588,-4.1588,-4.1588,-4.1588,-4.1588,-4.1588,-4.1588,-4.1588,-4.143,-4.1099,-4.0372,-3.955,-3.8886,-3.8254,-3.7684,-3.751,-3.751,-3.751,-3.751,-3.751,-3.751,-3.751,-3.751,-3.751,-3.751,-3.751,-3.745,-3.7165,-3.6938,-3.6738,-3.6461,-3.6045,-3.5615,-3.5493,-3.4925,-3.3856,-3.305,-3.2303,-3.1634,-3.1249,-3.0996,-3.0657,-3.0717,-3.0747,-3.0791,-3.0762,-3.0642,-3.028,-2.9927,-2.9634,-2.954,-2.9571,-2.9571,-2.954,-2.954,-2.9509,-2.9289,-2.9194,-2.9099,-2.8972,-2.8812,-2.8734,-2.872,-2.856,-2.8288,-2.8071,-2.7596,-2.6999,-2.6443,-2.6011,-2.5588,-2.5181,-2.5005,-2.5005,-2.5005,-2.5005,-2.5005,-2.5005,-2.5005,-2.5005,-2.5005,-2.5005,-2.5005,-2.5005,-2.5005,-2.5005,-2.5005,-2.5005,-2.5005,-2.5005,-2.5005,-2.5005,-2.5005,-2.5005,-2.5005,-4.1588,-4.1588,-4.1621,-4.1588,-4.1621,-4.1621,-4.1621,-4.1621,-4.1621,-4.1588,-4.1588,-4.1588,-4.1588,-4.1588,-4.1588,-4.1588,-4.1588,-4.1588,-4.1588,-4.1588,-4.1588,-4.1588,-4.1588,-4.1588,-4.1588,-4.1588,-4.1588,-4.1588,-4.1557,-4.1446,-4.0719,-3.9724,-3.9297,-3.8744,-3.7605,-3.751,-3.751,-3.751,-3.751,-3.7526,-3.7557,-3.7541,-3.751,-3.751,-3.751,-3.751,-3.751,-3.7361,-3.7315,-3.7315,-3.7315,-3.7238,-3.7205,-3.7205,-3.6796,-3.5855,-3.4674,-3.3321,-3.2497,-3.2109,-3.1603,-3.11,-3.1043,-3.1176,-3.1219,-3.119,-3.1073,-3.0762,-3.0326,-2.9988,-2.9789,-2.9665,-2.9634,-2.9727,-2.9851,-2.9789,-2.9665,-2.9901,-2.9777,-2.9623,-2.9577,-2.9198,-2.8976,-2.8766,-2.8546,-2.8329,-2.8017,-2.742,-2.6809,-2.6294,-2.5683,-2.5208,-2.5005,-2.5005,-2.5005,-2.5005,-2.5005,-2.5005,-2.5005,-2.5005,-2.5005,-2.5005,-2.5005,-2.5005,-2.5005,-2.5005,-2.5005,-2.5005,-2.5005,-2.5005,-2.5005,-2.5005,-2.5005,-2.5005,-2.5005,-4.1997,-4.219,-4.2174,-4.219,-4.2142,-4.1964,-4.1867,-4.1851,-4.1687,-4.1588,-4.1588,-4.1588,-4.1588,-4.1588,-4.1588,-4.1588,-4.1588,-4.1588,-4.1588,-4.1588,-4.1588,-4.1588,-4.1588,-4.1588,-4.1588,-4.1588,-4.1588,-4.1588,-4.1588,-4.1462,-4.0877,-3.9708,-3.9424,-3.8792,-3.7636,-3.751,-3.751,-3.751,-3.7541,-3.7715,-3.7889,-3.7747,-3.751,-3.751,-3.751,-3.751,-3.751,-3.751,-3.751,-3.751,-3.751,-3.751,-3.751,-3.7449,-3.7275,-3.7056,-3.643,-3.5299,-3.3949,-3.3246,-3.2466,-3.1871,-3.1723,-3.1752,-3.1658,-3.1623,-3.1466,-3.1087,-3.0925,-3.0612,-3.028,-3.0174,-3.0326,-3.0417,-3.0447,-3.0509,-3.0524,-3.0599,-3.0644,-3.0465,-3.0284,-3.0025,-2.967,-2.9341,-2.9135,-2.8894,-2.8561,-2.8034,-2.7237,-2.6443,-2.5792,-2.51,-2.5018,-2.5005,-2.5005,-2.5005,-2.5005,-2.5005,-2.5005,-2.5005,-2.5005,-2.5005,-2.5005,-2.5005,-2.5005,-2.5005,-2.5005,-2.5005,-2.5005,-2.5005,-2.5005,-2.5005,-2.5005,-2.5005,-2.5005,-4.2601,-4.2851,-4.2679,-4.2617,-4.2585,-4.2222,-4.2077,-4.2045,-4.1753,-4.1588,-4.1588,-4.1588,-4.1588,-4.1588,-4.1588,-4.1588,-4.1588,-4.1588,-4.1588,-4.1588,-4.1588,-4.1588,-4.1588,-4.1588,-4.1588,-4.1588,-4.1588,-4.1588,-4.1588,-4.1446,-4.0862,-3.9566,-3.9487,-3.8728,-3.7858,-3.7541,-3.7589,-3.7858,-3.7812,-3.8049,-3.8302,-3.8017,-3.7717,-3.7573,-3.751,-3.751,-3.751,-3.751,-3.751,-3.751,-3.751,-3.751,-3.751,-3.7494,-3.7494,-3.737,-3.717,-3.6721,-3.5497,-3.4605,-3.3623,-3.2991,-3.2615,-3.2561,-3.2295,-3.2188,-3.2005,-3.168,-3.1466,-3.1263,-3.1029,-3.094,-3.1058,-3.1234,-3.135,-3.1465,-3.1507,-3.1421,-3.1319,-3.1189,-3.1087,-3.1101,-3.0704,-3.0147,-2.9763,-2.9449,-2.9073,-2.8642,-2.7834,-2.693,-2.6185,-2.553,-2.5129,-2.5102,-2.5061,-2.5033,-2.5033,-2.509,-2.509,-2.5061,-2.509,-2.5033,-2.5005,-2.5005,-2.509,-2.5005,-2.5005,-2.5005,-2.5005,-2.5005,-2.5005,-2.5005,-2.5005,-2.5005,-2.5005,-4.3509,-4.3462,-4.2881,-4.2617,-4.2569,-4.2238,-4.2109,-4.2109,-4.1785,-4.1654,-4.1687,-4.1621,-4.1687,-4.1654,-4.172,-4.1704,-4.1654,-4.1588,-4.1687,-4.1687,-4.1588,-4.1654,-4.1654,-4.1621,-4.1588,-4.1588,-4.1588,-4.1588,-4.1588,-4.1588,-4.0751,-3.9708,-3.9518,-3.8634,-3.7968,-3.7636,-3.797,-3.8286,-3.8428,-3.8523,-3.8634,-3.8428,-3.8096,-3.7668,-3.7541,-3.751,-3.751,-3.751,-3.751,-3.751,-3.751,-3.751,-3.751,-3.751,-3.751,-3.751,-3.751,-3.7245,-3.6678,-3.5883,-3.4984,-3.4208,-3.3669,-3.3432,-3.3142,-3.2788,-3.2578,-3.2398,-3.2048,-3.1823,-3.1766,-3.1794,-3.168,-3.1823,-3.1908,-3.1977,-3.2033,-3.2005,-3.1921,-3.1864,-3.1864,-3.1934,-3.1905,-3.1377,-3.0674,-3.0329,-2.9952,-2.9539,-2.8601,-2.7685,-2.6825,-2.6115,-2.5475,-2.5241,-2.5146,-2.516,-2.53,-2.5439,-2.5508,-2.5356,-2.5244,-2.5188,-2.537,-2.5342,-2.5481,-2.5216,-2.5061,-2.523,-2.5258,-2.5061,-2.5005,-2.5005,-2.5005,-2.5005,-2.5005,-4.3402,-4.3568,-4.3295,-4.3096,-4.2912,-4.2758,-4.2601,-4.2412,-4.2285,-4.2206,-4.2222,-4.2206,-4.2222,-4.2222,-4.2222,-4.2222,-4.2206,-4.2222,-4.2174,-4.211,-4.2029,-4.1916,-4.1851,-4.172,-4.1588,-4.1621,-4.1621,-4.1588,-4.1588,-4.1654,-4.0704,-3.9914,-3.9581,-3.8634,-3.7986,-3.7891,-3.8444,-3.8902,-3.9155,-3.9281,-3.9582,-3.8855,-3.8365,-3.816,-3.7636,-3.7541,-3.751,-3.751,-3.751,-3.751,-3.751,-3.751,-3.751,-3.751,-3.751,-3.751,-3.751,-3.751,-3.7421,-3.6746,-3.595,-3.521,-3.4618,-3.4192,-3.3993,-3.3716,-3.3189,-3.2843,-3.2465,-3.2299,-3.1936,-3.1908,-3.1936,-3.2216,-3.2367,-3.2449,-3.252,-3.252,-3.2563,-3.2465,-3.2645,-3.2807,-3.2753,-3.2629,-3.1877,-3.1203,-3.0837,-3.0352,-2.9463,-2.8712,-2.7983,-2.7188,-2.654,-2.6174,-2.6089,-2.5909,-2.5729,-2.5811,-2.5946,-2.5878,-2.5824,-2.6054,-2.6188,-2.6054,-2.5973,-2.596,-2.5851,-2.5715,-2.555,-2.5384,-2.5174,-2.5005,-2.5005,-2.5033,-2.5005,-4.3386,-4.3615,-4.3615,-4.3462,-4.3218,-4.3143,-4.2974,-4.2758,-4.2617,-4.2617,-4.2617,-4.2617,-4.2617,-4.2617,-4.2585,-4.257,-4.2539,-4.257,-4.2585,-4.2491,-4.2349,-4.227,-4.2158,-4.2061,-4.1981,-4.1884,-4.19,-4.1932,-4.1964,-4.1932,-4.1119,-4.0274,-3.9687,-3.8955,-3.7938,-3.8175,-3.8839,-3.936,-3.9787,-3.9993,-4.0356,-3.9487,-3.8634,-3.8428,-3.7828,-3.7541,-3.751,-3.751,-3.751,-3.751,-3.751,-3.751,-3.751,-3.751,-3.751,-3.751,-3.751,-3.751,-3.7391,-3.7163,-3.661,-3.5892,-3.5517,-3.5077,-3.4727,-3.4474,-3.3783,-3.3337,-3.2994,-3.2672,-3.2287,-3.2453,-3.2535,-3.278,-3.2807,-3.2888,-3.2985,-3.3038,-3.3107,-3.3107,-3.3214,-3.3187,-3.3134,-3.3011,-3.2559,-3.1905,-3.1477,-3.1084,-3.0542,-2.9869,-2.9399,-2.8617,-2.78,-2.7515,-2.7243,-2.683,-2.6459,-2.6441,-2.6532,-2.6599,-2.6625,-2.6834,-2.6808,-2.6561,-2.6534,-2.6718,-2.6587,-2.631,-2.5987,-2.5701,-2.5522,-2.5356,-2.5258,-2.5286,-2.5061,-4.3611,-4.3615,-4.3658,-4.3641,-4.3611,-4.3235,-4.3096,-4.308,-4.2927,-4.2818,-4.288,-4.2818,-4.2818,-4.2818,-4.2986,-4.2986,-4.2972,-4.288,-4.288,-4.2925,-4.2925,-4.2741,-4.2617,-4.2569,-4.2506,-4.2554,-4.2554,-4.2522,-4.2554,-4.2522,-4.1729,-4.07,-4.0093,-3.9383,-3.7759,-3.8191,-3.8855,-3.9518,-4.0214,-4.0561,-4.0514,-3.9914,-3.9297,-3.8649,-3.8017,-3.7731,-3.7526,-3.751,-3.751,-3.751,-3.751,-3.751,-3.751,-3.751,-3.751,-3.751,-3.751,-3.751,-3.748,-3.7464,-3.7044,-3.656,-3.6263,-3.5988,-3.5382,-3.4857,-3.4336,-3.3936,-3.3612,-3.3324,-3.3219,-3.3187,-3.316,-3.316,-3.316,-3.316,-3.324,-3.3293,-3.3293,-3.3293,-3.3293,-3.3293,-3.3266,-3.3214,-3.2996,-3.2574,-3.216,-3.1758,-3.1423,-3.1194,-3.0797,-3.0105,-2.9313,-2.8883,-2.8513,-2.7617,-2.7196,-2.7174,-2.7206,-2.7348,-2.7338,-2.7388,-2.7287,-2.7071,-2.7199,-2.7454,-2.7159,-2.6823,-2.6718,-2.6587,-2.6082,-2.5879,-2.5715,-2.5633,-2.5508,-4.4485,-4.444,-4.4457,-4.4457,-4.4373,-4.3713,-4.3459,-4.3651,-4.3939,-4.4123,-4.4123,-4.4123,-4.4123,-4.4123,-4.4037,-4.3992,-4.4066,-4.4123,-4.4123,-4.4037,-4.3835,-4.3601,-4.3439,-4.3229,-4.3108,-4.3047,-4.3064,-4.3125,-4.3064,-4.3029,-4.2001,-4.0908,-4.0151,-3.9339,-3.885,-3.9098,-3.9768,-4.0261,-4.0846,-4.1241,-4.1162,-4.0593,-3.9898,-3.9202,-3.8538,-3.7938,-3.7605,-3.7573,-3.751,-3.751,-3.751,-3.751,-3.751,-3.751,-3.751,-3.751,-3.751,-3.751,-3.751,-3.7494,-3.7431,-3.7194,-3.7006,-3.6722,-3.6121,-3.5887,-3.5284,-3.4525,-3.413,-3.3751,-3.3409,-3.3298,-3.324,-3.324,-3.324,-3.324,-3.3293,-3.3293,-3.3293,-3.3293,-3.3293,-3.3293,-3.3293,-3.3293,-3.3118,-3.3091,-3.2699,-3.2699,-3.2451,-3.2513,-3.2298,-3.163,-3.0916,-3.0422,-2.9827,-2.8986,-2.8612,-2.8722,-2.8501,-2.8301,-2.8253,-2.8118,-2.8082,-2.7993,-2.8082,-2.8146,-2.7894,-2.772,-2.7755,-2.7565,-2.703,-2.6575,-2.639,-2.6349,-2.6322,-4.4892,-4.4892,-4.4892,-4.4892,-4.4828,-4.4288,-4.4133,-4.4271,-4.4691,-4.4892,-4.4865,-4.4865,-4.4838,-4.4838,-4.4892,-4.4892,-4.4892,-4.4882,-4.4882,-4.4865,-4.4657,-4.4378,-4.414,-4.3968,-4.3951,-4.3835,-4.3852,-4.3881,-4.3877,-4.344,-4.2385,-4.1078,-4.0185,-4.0118,-4.0033,-4.0498,-4.0682,-4.1102,-4.1534,-4.1965,-4.1709,-4.1231,-4.0563,-3.9881,-3.9121,-3.8286,-3.7907,-3.7684,-3.751,-3.751,-3.751,-3.751,-3.751,-3.751,-3.751,-3.751,-3.751,-3.751,-3.751,-3.751,-3.7478,-3.7447,-3.751,-3.7288,-3.6801,-3.644,-3.5935,-3.53,-3.4683,-3.4146,-3.3735,-3.3593,-3.334,-3.334,-3.3293,-3.3293,-3.3293,-3.3293,-3.3293,-3.3293,-3.3293,-3.3293,-3.3293,-3.3293,-3.324,-3.3266,-3.324,-3.3293,-3.3293,-3.3245,-3.3182,-3.2615,-3.2045,-3.1503,-3.0974,-3.04,-3.017,-3.0259,-2.9805,-2.9264,-2.9045,-2.8892,-2.8919,-2.885,-2.8653,-2.8581,-2.8684,-2.8636,-2.8414,-2.8213,-2.7919,-2.7489,-2.7119,-2.6964,-2.6912,-4.4937,-4.4937,-4.4937,-4.4974,-4.4947,-4.4964,-4.4937,-4.4937,-4.4964,-4.4991,-4.4991,-4.5045,-4.5098,-4.5018,-4.4991,-4.5045,-4.5098,-4.5072,-4.5072,-4.5072,-4.5108,-4.4991,-4.491,-4.4811,-4.4756,-4.4811,-4.4828,-4.4646,-4.4715,-4.3586,-4.2409,-4.1524,-4.0859,-4.1029,-4.1386,-4.1694,-4.1661,-4.183,-4.2074,-4.2349,-4.2204,-4.1708,-4.1228,-4.0606,-3.9797,-3.8945,-3.8439,-3.806,-3.7714,-3.7587,-3.7539,-3.751,-3.751,-3.751,-3.751,-3.751,-3.751,-3.751,-3.751,-3.751,-3.751,-3.751,-3.751,-3.7478,-3.7275,-3.6896,-3.6453,-3.5903,-3.5331,-3.4731,-3.4225,-3.3814,-3.3419,-3.3372,-3.3309,-3.3293,-3.3293,-3.3293,-3.3293,-3.3293,-3.3293,-3.3293,-3.3293,-3.3293,-3.3293,-3.3293,-3.3293,-3.3293,-3.3293,-3.3293,-3.3245,-3.3182,-3.2693,-3.2414,-3.1921,-3.1416,-3.1206,-3.1139,-3.0588,-3.01,-2.9871,-2.9674,-2.9596,-2.9415,-2.9046,-2.8912,-2.892,-2.8889,-2.8803,-2.8621,-2.8422,-2.8229,-2.7805,-2.7414,-2.7236,-4.5829,-4.5811,-4.5811,-4.5811,-4.5811,-4.5829,-4.5658,-4.5433,-4.5684,-4.5811,-4.5837,-4.5829,-4.5735,-4.5837,-4.5811,-4.5786,-4.5786,-4.5811,-4.5854,-4.5786,-4.5684,-4.5589,-4.5485,-4.5381,-4.5424,-4.5424,-4.5354,-4.5197,-4.4623,-4.353,-4.2389,-4.1491,-4.1748,-4.2104,-4.2448,-4.2779,-4.2654,-4.2525,-4.2675,-4.2647,-4.2664,-4.2295,-4.1909,-4.1316,-4.0716,-3.9842,-3.9093,-3.8665,-3.8239,-3.768,-3.7746,-3.7743,-3.751,-3.751,-3.751,-3.751,-3.751,-3.751,-3.751,-3.751,-3.751,-3.751,-3.751,-3.751,-3.7431,-3.7257,-3.6911,-3.6437,-3.5951,-3.541,-3.4731,-3.4209,-3.3783,-3.3546,-3.3435,-3.3293,-3.3293,-3.3293,-3.3293,-3.3293,-3.3293,-3.3293,-3.3293,-3.3293,-3.3293,-3.3293,-3.3293,-3.3293,-3.3293,-3.3293,-3.3293,-3.3245,-3.3151,-3.2803,-3.2692,-3.2299,-3.2114,-3.1912,-3.1358,-3.0939,-3.0779,-3.0574,-3.033,-2.9959,-2.9549,-2.9249,-2.9021,-2.8998,-2.8967,-2.8975,-2.8803,-2.8677,-2.8486,-2.8067,-2.7795,-4.5933,-4.6196,-4.6214,-4.6214,-4.6214,-4.6214,-4.603,-4.5905,-4.608,-4.6214,-4.6214,-4.6189,-4.6214,-4.6165,-4.6165,-4.6147,-4.6147,-4.6122,-4.6122,-4.6122,-4.6214,-4.603,-4.5879,-4.5829,-4.5829,-4.5829,-4.5716,-4.5518,-4.4733,-4.3666,-4.2561,-4.2572,-4.2892,-4.3132,-4.3496,-4.3877,-4.3872,-4.3542,-4.3292,-4.3066,-4.2943,-4.2881,-4.251,-4.2172,-4.1683,-4.0786,-4.0047,-3.9617,-3.8809,-3.8259,-3.8335,-3.8033,-3.7876,-3.7876,-3.7759,-3.7743,-3.7669,-3.7612,-3.7539,-3.751,-3.751,-3.751,-3.751,-3.751,-3.751,-3.7415,-3.718,-3.6896,-3.6503,-3.6045,-3.5331,-3.4652,-3.4194,-3.3767,-3.3546,-3.3324,-3.3293,-3.3293,-3.3293,-3.3293,-3.3293,-3.3293,-3.3293,-3.3293,-3.3293,-3.3293,-3.3293,-3.3293,-3.3293,-3.3293,-3.3293,-3.3277,-3.3277,-3.3182,-3.3072,-3.2961,-3.2756,-3.2481,-3.207,-3.1729,-3.1634,-3.1286,-3.0835,-3.0449,-3.0054,-2.9761,-2.9501,-2.917,-2.9068,-2.9052,-2.9052,-2.8936,-2.8811,-2.8621,-2.8462,-4.5396,-4.5968,-4.6109,-4.6126,-4.6214,-4.6214,-4.6172,-4.6214,-4.6196,-4.6214,-4.6214,-4.6214,-4.6214,-4.6214,-4.6214,-4.6214,-4.6214,-4.6214,-4.6214,-4.6214,-4.6214,-4.6122,-4.6147,-4.6172,-4.5975,-4.6059,-4.586,-4.5334,-4.475,-4.3999,-4.3645,-4.3835,-4.3839,-4.4048,-4.4442,-4.4589,-4.4524,-4.4243,-4.3873,-4.3595,-4.3522,-4.3355,-4.3111,-4.2919,-4.2344,-4.161,-4.1253,-4.0572,-3.9603,-3.9298,-3.9003,-3.8598,-3.8351,-3.8307,-3.8148,-3.7988,-3.7857,-3.7698,-3.7553,-3.751,-3.751,-3.751,-3.751,-3.751,-3.751,-3.751,-3.7352,-3.7243,-3.6896,-3.6503,-3.5872,-3.511,-3.4541,-3.402,-3.364,-3.3419,-3.3293,-3.3293,-3.3293,-3.3293,-3.3293,-3.3293,-3.3293,-3.3293,-3.3293,-3.3293,-3.3293,-3.3293,-3.3335,-3.3335,-3.3372,-3.3372,-3.3293,-3.3293,-3.3261,-3.3166,-3.323,-3.2977,-3.2623,-3.2497,-3.2361,-3.1887,-3.1318,-3.1033,-3.0749,-3.0338,-3.0022,-2.969,-2.9335,-2.9114,-2.9091,-2.9114,-2.9021,-2.892,-2.8834,-4.429,-4.4501,-4.5115,-4.567,-4.6179,-4.6214,-4.6179,-4.6214,-4.6214,-4.6144,-4.6196,-4.6179,-4.6214,-4.6214,-4.6214,-4.6214,-4.6214,-4.6214,-4.6214,-4.6214,-4.6214,-4.6109,-4.6161,-4.6056,-4.5863,-4.5519,-4.519,-4.5012,-4.4425,-4.4276,-4.4258,-4.3981,-4.4299,-4.4856,-4.501,-4.5018,-4.491,-4.4763,-4.4446,-4.4207,-4.415,-4.3789,-4.3462,-4.3323,-4.2879,-4.2446,-4.2073,-4.1664,-4.057,-3.9758,-3.9638,-3.9141,-3.8485,-3.8436,-3.8234,-3.7988,-3.8042,-3.7915,-3.7714,-3.7642,-3.7626,-3.7553,-3.7539,-3.751,-3.751,-3.751,-3.7478,-3.7431,-3.7243,-3.6896,-3.6408,-3.5647,-3.4889,-3.4336,-3.3767,-3.3546,-3.334,-3.3293,-3.3293,-3.3293,-3.3293,-3.3293,-3.3293,-3.3293,-3.3293,-3.3293,-3.3293,-3.3335,-3.3414,-3.344,-3.3565,-3.3539,-3.3319,-3.3293,-3.3293,-3.3293,-3.3293,-3.3346,-3.3113,-3.3029,-3.3061,-3.2519,-3.1981,-3.1792,-3.1507,-3.109,-3.0615,-3.0172,-2.9801,-2.943,-2.9114,-2.9114,-2.9114,-2.9037,-2.8936,-4.3605,-4.3939,-4.4378,-4.4799,-4.5126,-4.5185,-4.5161,-4.5161,-4.5185,-4.5185,-4.5337,-4.5828,-4.6196,-4.6196,-4.6214,-4.6126,-4.6126,-4.6214,-4.6214,-4.6214,-4.6039,-4.5916,-4.5881,-4.5723,-4.5519,-4.515,-4.5115,-4.4865,-4.4481,-4.4597,-4.4749,-4.4802,-4.5304,-4.5433,-4.5433,-4.5433,-4.5328,-4.5186,-4.4944,-4.4835,-4.4669,-4.415,-4.3658,-4.3509,-4.338,-4.3043,-4.2799,-4.2469,-4.174,-4.0799,-4.047,-3.9842,-3.9292,-3.9148,-3.9061,-3.893,-3.8832,-3.8574,-3.8185,-3.7985,-3.7956,-3.7857,-3.7714,-3.7756,-3.7685,-3.7655,-3.751,-3.7462,-3.7462,-3.7133,-3.6911,-3.6279,-3.5584,-3.4968,-3.4288,-3.383,-3.3514,-3.3293,-3.3293,-3.3293,-3.3293,-3.3293,-3.3293,-3.3293,-3.3293,-3.3398,-3.3372,-3.3642,-3.3684,-3.372,-3.3806,-3.3806,-3.3642,-3.3398,-3.3293,-3.3293,-3.3293,-3.3346,-3.3529,-3.3543,-3.3508,-3.3059,-3.2677,-3.2455,-3.2155,-3.177,-3.1295,-3.0773,-3.0251,-2.9848,-2.9453,-2.9114,-2.9114,-2.9114,-2.9068,-4.3061,-4.3728,-4.3746,-4.3834,-4.3886,-4.3904,-4.3957,-4.3939,-4.3921,-4.3939,-4.415,-4.5319,-4.5828,-4.5898,-4.5916,-4.5916,-4.5793,-4.5512,-4.5688,-4.5723,-4.5723,-4.5343,-4.5115,-4.5062,-4.5098,-4.5133,-4.5115,-4.5431,-4.5562,-4.5523,-4.561,-4.6102,-4.6214,-4.6189,-4.6214,-4.6172,-4.598,-4.5752,-4.5572,-4.5477,-4.5025,-4.4446,-4.4064,-4.3848,-4.3759,-4.3743,-4.3539,-4.3273,-4.2841,-4.2104,-4.1327,-4.0638,-4.015,-3.9933,-3.9782,-3.9723,-3.9655,-3.9262,-3.887,-3.8789,-3.8541,-3.8334,-3.8141,-3.81,-3.8071,-3.8001,-3.7844,-3.7786,-3.7786,-3.765,-3.7427,-3.7004,-3.6305,-3.5471,-3.4757,-3.4037,-3.3646,-3.3319,-3.3319,-3.3319,-3.3346,-3.3346,-3.3424,-3.3424,-3.3503,-3.3539,-3.3745,-3.4,-3.4209,-3.4267,-3.4325,-3.4251,-3.4118,-3.3832,-3.3617,-3.3591,-3.3704,-3.3771,-3.3958,-3.4,-3.3876,-3.3338,-3.304,-3.3087,-3.2756,-3.238,-3.188,-3.1374,-3.0852,-3.0355,-2.9864,-2.9485,-2.9114,-2.9114,-2.9114,-4.2289,-4.3009,-4.3026,-4.3325,-4.3799,-4.3851,-4.3886,-4.3869,-4.3834,-4.3886,-4.3851,-4.4027,-4.4343,-4.4325,-4.4343,-4.4448,-4.4711,-4.4606,-4.4431,-4.4325,-4.4782,-4.4466,-4.4431,-4.4869,-4.5062,-4.5133,-4.5168,-4.5256,-4.5758,-4.5916,-4.6021,-4.6196,-4.6214,-4.6214,-4.6214,-4.6172,-4.6097,-4.5905,-4.5735,-4.558,-4.5222,-4.4845,-4.4746,-4.4635,-4.4652,-4.4663,-4.4578,-4.4527,-4.4102,-4.3348,-4.2241,-4.1486,-4.1001,-4.0618,-4.0362,-4.0294,-4.0252,-3.991,-3.9569,-3.9492,-3.9256,-3.9096,-3.9032,-3.9059,-3.9032,-3.8989,-3.8897,-3.8881,-3.8816,-3.8601,-3.8307,-3.7695,-3.6982,-3.5868,-3.4995,-3.4191,-3.3592,-3.3477,-3.3424,-3.3477,-3.3513,-3.3694,-3.3949,-3.4009,-3.4134,-3.4243,-3.4423,-3.4666,-3.469,-3.4769,-3.4887,-3.4793,-3.469,-3.4617,-3.4504,-3.4333,-3.4374,-3.4391,-3.4317,-3.4267,-3.4034,-3.3477,-3.3277,-3.3403,-3.3297,-3.2938,-3.2453,-3.2137,-3.1573,-3.1086,-3.0442,-2.9896,-2.9492,-2.916,-2.9229]},{"header":{"parameterUnit":"m.s-1","parameterCategory":1,"la1":31.0,"la2":29.5877,"lo1":-88.7671,"lo2":-86.6584,"dy":0.0162,"dx":0.0185,"nx":115,"ny":88,"refTime":"2023-07-14T18:00:00:Z","depth":0,"parameterNumber":3,"parameterNumberName":"V-component_of_WINDS"},"data":[0.0,0.0,0.0,0.0,0.0,0.0,0.0,0.0,0.0,0.0,0.0,0.0,0.0,0.0,0.0,0.0,0.0,0.0,0.0,0.0,0.0,0.0,0.0,0.0,0.0,0.0,0.0,0.0,0.0,0.0,0.0,0.0,0.0,0.0,0.0,0.0,0.0,0.0,0.0,0.0,0.0,0.0,0.0,0.0,0.0,0.0,0.0,0.0,0.0,0.0,0.0,0.0,0.0,0.0,0.0,0.0,0.0,0.0,0.0,0.0,0.0,0.0,0.0,0.0,0.0,0.0,0.0,0.0,0.0,0.0,0.0,0.0,0.0,0.0,0.0,0.0,0.0,0.0,0.0,0.0,0.0,0.0,0.0,0.0,0.0,0.0,0.0,0.0,0.0,0.0,0.0,0.0,0.0,0.0,0.0,0.0,0.0,0.0,0.0,0.0,0.0,0.0,0.0,0.0,0.0,0.0,0.0,0.0,0.0,0.0,0.0,0.0,0.0,0.0,0.0,0.0,0.0,0.0,0.0,0.0,0.0,0.0,0.0,0.0,0.0,0.0,0.0,0.0,0.0,0.0,0.0,0.0,0.0,0.0,0.0,0.0,0.0,0.0,0.0,0.0,0.0,0.0,0.0,0.0,0.0,0.0,0.0,0.0,0.0,0.0,0.0,0.0,0.0,0.0,0.0,0.0,0.0,0.0,0.0,0.0,0.0,0.0,0.0,0.0,0.0,0.0,0.0,0.0,0.0,0.0,0.0,0.0,0.0,0.0,0.0,0.0,0.0,0.0,0.0,0.0,0.0,0.0,0.0,0.0,0.0,0.0,0.0,0.0,0.0,0.0,0.0,0.0,0.0,0.0,0.0,0.0,0.0,0.0,0.0,0.0,0.0,0.0,0.0,0.0,0.0,0.0,0.0,0.0,0.0,0.0,0.0,0.0,0.0,0.0,0.0,0.0,0.0,0.0,0.0,0.0,0.0,0.0,0.0,0.0,0.0,0.0,0.0,0.0,0.0,0.0,0.0,0.0,0.0,0.0,0.0,0.0,0.0,0.0,0.0,0.0,0.0,0.0,0.0,0.0,0.0,0.0,0.0,0.0,0.0,0.0,0.0,0.0,0.0,0.0,0.0,0.0,0.0,0.0,0.0,0.0,0.0,0.0,0.0,0.0,0.0,0.0,0.0,0.0,0.0,0.0,0.0,0.0,0.0,0.0,0.0,0.0,0.0,0.0,0.0,0.0,0.0,0.0,0.0,0.0,0.0,0.0,0.0,0.0,0.0,0.0,0.0,0.0,0.0,0.0,0.0,0.0,0.0,0.0,0.0,0.0,0.0,0.0,0.0,0.0,0.0,0.0,0.0,0.0,0.0,0.0,0.0,0.0,0.0,0.0,0.0,0.0,0.0,0.0,0.0,0.0,0.0,0.0,0.0,0.0,0.0,0.0,0.0,0.0,0.0,0.0,0.0,0.0,0.0,0.0,0.0,0.0,0.0,0.0,0.0,0.0,0.0,0.0,0.0,0.0,0.0,0.0,0.0,0.0,0.0,0.0,0.0,0.0,0.0,0.0,0.0,0.0,0.0,0.0,0.0,0.0,0.0,0.0,0.0,0.0,0.0,0.0,0.0,0.0,0.0,0.0,0.0,0.0,0.0,0.0,0.0,0.0,0.0,0.0,0.0,0.0,0.0,0.0,0.0,0.0,0.0,0.0,0.0,0.0,0.0,0.0,0.0,0.0,0.0,0.0,0.0,0.0,0.0,0.0,0.0,0.0,0.0,0.0,0.0,0.0,0.0,0.0,0.0,0.0,0.0,0.0,0.0,0.0,0.0,0.0,0.0,0.0,0.0,0.0,0.0,0.0,0.0,0.0,0.0,0.0,0.0,0.0,0.0,0.0,0.0,0.0,0.0,0.0,0.0,0.0,0.0,0.0,0.0,0.0,0.0,0.0,0.0,0.0,0.0,0.0,0.0,0.0,0.0,0.0,0.0,0.0,0.0,0.0,0.0,0.0,0.0,0.0,0.0,0.0,0.0,0.0,0.0,0.0,0.0,0.0,0.0,0.0,0.0,0.0,0.0,0.0,0.0,0.0,0.0,0.0,0.0,0.0,0.0,0.0,0.0,0.0,0.0,0.0,0.0,0.0,0.0,0.0,0.0,0.0,0.0,0.0,0.0,0.0,0.0,0.0,0.0,0.0,0.0,0.0,0.0,0.0,0.0,0.0,0.0,0.0,0.0,0.0,0.0,0.0,0.0,0.0,0.0,0.0,0.0,0.0,0.0,0.0,0.0,0.0,0.0,0.0,0.0,0.0,0.0,0.0,0.0,0.0,0.0,0.0,0.0,0.0,0.0,0.0,0.0,0.0,0.0,0.0,0.0,0.0,0.0,0.0,0.0,0.0,0.0,0.0,0.0,0.0,0.0,0.0,0.0,0.0,0.0,0.0,0.0,0.0,0.0,0.0,0.0,0.0,0.0,0.0,0.0,0.0,0.0,0.0,0.0,0.0,0.0,0.0,0.0,0.0,0.0,0.0,0.0,0.0,0.0,0.0,0.0,0.0,0.0,0.0,0.0,0.0,0.0,0.0,0.0,0.0,0.0,0.0,0.0,0.0,0.0,0.0,0.0,0.0,0.0,0.0,0.0,0.0,0.0,0.0,0.0,0.0,0.0,0.0,0.0,0.0,0.0,0.0,0.0,0.0,0.0,0.0,0.0,0.0,0.0,0.0,0.0,0.0,0.0,0.0,0.0,0.0,0.0,0.0,0.0,0.0,0.0,0.0,0.0,0.0,0.0,0.0,0.0,0.0,0.0,0.0,0.0,0.0,0.0,0.0,0.0,0.0,0.0,0.0,0.0,0.0,0.0,0.0,0.0,0.0,0.0,0.0,0.0,0.0,0.0,0.0,0.0,0.0,0.0,0.0,0.0,0.0,0.0,0.0,0.0,0.0,0.0,0.0,0.0,0.0,0.0,0.0,0.0,0.0,0.0,0.0,0.0,0.0,0.0,0.0,0.0,0.0,0.0,0.0,0.0,0.0,0.0,0.0,0.0,0.0,0.0,0.0,0.0,0.0,0.0,0.0,0.0,0.0,0.0,0.0,0.0,0.0,0.0,0.0,0.0,0.0,0.0,0.0,0.0,0.0,0.0,0.0,0.0,0.0,0.0,0.0,0.0,0.0,0.0,0.0,0.0,0.0,0.0,0.0,0.0,0.0,0.0,0.0,0.0,0.0,0.0,0.0,0.0,0.0,0.0,0.0,0.0,0.0,0.0,0.0,0.0,0.0,0.0,0.0,0.0,0.0,0.0,0.0,0.0,0.0,0.0,0.0,0.0,0.0,0.0,0.0,0.0,0.0,0.0,0.0,0.0,0.0,0.0,0.0,0.0,0.0,0.0,0.0,0.0,0.0,0.0,0.0,0.0,0.0,0.0,0.0,0.0,0.0,0.0,0.0,0.0,0.0,0.0,0.0,0.0,0.0,0.0,0.0,0.0,0.0,0.0,0.0,0.0,0.0,0.0,0.0,0.0,0.0,0.0,0.0,0.0,0.0,0.0,0.0,0.0,0.0,0.0,0.0,0.0,0.0,0.0,0.0,0.0,0.0,0.0,0.0,0.0,0.0,0.0,0.0,0.0,0.0,0.0,0.0,0.0,0.0,0.0,0.0,0.0,0.0,0.0,0.0,0.0,0.0,0.0,0.0,0.0,0.0,0.0,0.0,0.0,0.0,0.0,0.0,0.0,0.0,0.0,0.0,0.0,0.0,0.0,0.0,0.0,0.0,0.0,0.0,0.0,0.0,0.0,0.0,0.0,0.0,0.0,0.0,0.0,0.0,0.0,0.0,0.0,0.0,0.0,0.0,0.0,0.0,0.0,0.0,0.0,0.0,0.0,0.0,0.0,0.0,0.0,0.0,0.0,0.0,0.0,0.0,0.0,0.0,0.0,0.0,0.0,0.0,0.0,0.0,0.0,0.0,0.0,0.0,0.0,0.0,0.0,0.0,0.0,0.0,0.0,0.0,0.0,0.0,0.0,0.0,0.0,0.0,0.0,0.0,0.0,0.0,0.0,0.0,0.0,0.0,0.0,0.0,0.0,0.0,0.0,0.0,0.0,0.0,0.0,0.0,0.0,0.0,0.0,0.0,0.0,0.0,0.0,0.0,0.0,0.0,0.0,0.0,0.0,0.0,0.0,0.0,0.0,0.0,0.0,0.0,0.0,0.0,0.0,0.0,0.0,0.0,0.0,0.0,0.0,0.0,0.0,0.0,0.0,0.0,-1.2714,0.0,0.0,0.0,0.0,0.0,0.0,0.0,0.0,0.0,0.0,0.0,0.0,0.0,0.0,0.0,0.0,0.0,0.0,0.0,0.0,0.0,0.0,0.0,0.0,0.0,0.0,0.0,0.0,0.0,0.0,0.0,0.0,0.0,0.0,0.0,0.0,0.0,0.0,0.0,0.0,0.0,0.0,0.0,0.0,0.0,0.0,0.0,0.0,0.0,0.0,0.0,0.0,0.0,0.0,0.0,0.0,0.0,0.0,0.0,0.0,0.0,0.0,0.0,0.0,0.0,0.0,0.0,0.0,0.0,0.0,0.0,0.0,0.0,0.0,0.0,0.0,0.0,0.0,0.0,0.0,0.0,0.0,0.0,0.0,0.0,0.0,0.0,0.0,0.0,0.0,0.0,0.0,0.0,0.0,0.0,0.0,0.0,0.0,0.0,0.0,0.0,0.0,0.0,0.0,0.0,0.0,0.0,0.0,0.0,0.0,-1.4213,-1.4084,-1.3471,-1.3116,-1.3102,0.0,0.0,0.0,0.0,0.0,0.0,0.0,0.0,0.0,0.0,0.0,0.0,0.0,0.0,0.0,0.0,0.0,0.0,0.0,0.0,0.0,0.0,0.0,0.0,0.0,0.0,0.0,0.0,0.0,0.0,0.0,0.0,0.0,0.0,0.0,0.0,0.0,0.0,0.0,0.0,0.0,0.0,0.0,0.0,0.0,0.0,0.0,0.0,0.0,0.0,0.0,0.0,0.0,0.0,0.0,0.0,0.0,0.0,0.0,0.0,0.0,0.0,0.0,0.0,0.0,0.0,0.0,0.0,0.0,0.0,0.0,0.0,0.0,0.0,0.0,0.0,0.0,0.0,0.0,0.0,0.0,0.0,0.0,0.0,0.0,0.0,0.0,0.0,0.0,0.0,0.0,0.0,0.0,0.0,0.0,0.0,0.0,0.0,0.0,0.0,0.0,0.0,0.0,0.0,0.0,0.0,0.0,0.0,0.0,0.0,0.0,0.0,-1.3967,-1.3609,-1.3464,0.0,0.0,0.0,0.0,0.0,0.0,0.0,0.0,0.0,0.0,0.0,0.0,0.0,0.0,0.0,0.0,0.0,0.0,0.0,0.0,0.0,0.0,0.0,0.0,0.0,0.0,0.0,0.0,0.0,0.0,0.0,0.0,0.0,0.0,0.0,0.0,0.0,0.0,0.0,0.0,0.0,0.0,0.0,0.0,0.0,0.0,0.0,0.0,0.0,0.0,0.0,0.0,0.0,0.0,0.0,0.0,0.0,0.0,0.0,0.0,0.0,0.0,0.0,0.0,0.0,0.0,0.0,0.0,0.0,0.0,0.0,0.0,0.0,0.0,0.0,0.0,0.0,0.0,0.0,0.0,0.0,0.0,0.0,0.0,0.0,0.0,0.0,0.0,0.0,0.0,0.0,0.0,0.0,0.0,0.0,0.0,0.0,0.0,0.0,0.0,0.0,0.0,0.0,0.0,0.0,0.0,0.0,0.0,0.0,0.0,-1.5448,-1.5375,-1.5213,0.0,-1.431,0.0,0.0,0.0,0.0,0.0,0.0,0.0,0.0,0.0,0.0,0.0,0.0,0.0,0.0,0.0,0.0,0.0,0.0,0.0,0.0,0.0,0.0,0.0,0.0,0.0,0.0,0.0,0.0,0.0,0.0,0.0,0.0,0.0,0.0,0.0,0.0,0.0,0.0,0.0,0.0,0.0,0.0,0.0,0.0,0.0,0.0,0.0,0.0,0.0,0.0,0.0,0.0,0.0,0.0,0.0,0.0,0.0,0.0,0.0,0.0,0.0,0.0,0.0,0.0,0.0,0.0,0.0,0.0,0.0,0.0,0.0,0.0,0.0,0.0,0.0,0.0,0.0,0.0,0.0,0.0,0.0,0.0,0.0,0.0,0.0,0.0,0.0,0.0,0.0,0.0,0.0,0.0,0.0,0.0,0.0,0.0,0.0,0.0,0.0,0.0,0.0,0.0,0.0,0.0,0.0,0.0,0.0,0.0,0.0,0.0,-1.5812,-1.5741,-1.5639,-1.5299,0.0,0.0,0.0,0.0,0.0,0.0,0.0,0.0,0.0,0.0,0.0,0.0,0.0,0.0,0.0,0.0,0.0,0.0,0.0,0.0,0.0,0.0,0.0,0.0,0.0,0.0,0.0,0.0,0.0,0.0,0.0,0.0,0.0,0.0,0.0,0.0,0.0,0.0,0.0,0.0,0.0,0.0,0.0,0.0,0.0,0.0,0.0,0.0,0.0,0.0,0.0,0.0,0.0,0.0,0.0,0.0,0.0,0.0,0.0,0.0,0.0,0.0,0.0,0.0,0.0,0.0,0.0,0.0,0.0,0.0,0.0,0.0,0.0,0.0,0.0,0.0,0.0,0.0,0.0,0.0,0.0,0.0,0.0,0.0,0.0,0.0,0.0,0.0,0.0,0.0,0.0,0.0,0.0,0.0,0.0,0.0,0.0,0.0,0.0,0.0,0.0,0.0,0.0,0.0,0.0,0.0,0.0,0.0,0.0,0.0,-1.6067,-1.5997,-1.5927,-1.5885,-1.563,-1.5135,0.0,0.0,0.0,0.0,0.0,0.0,0.0,0.0,0.0,0.0,0.0,0.0,0.0,0.0,0.0,0.0,0.0,0.0,0.0,0.0,0.0,0.0,0.0,0.0,0.0,0.0,0.0,0.0,0.0,0.0,0.0,0.0,0.0,0.0,0.0,0.0,0.0,0.0,0.0,0.0,0.0,0.0,0.0,0.0,0.0,0.0,0.0,0.0,0.0,0.0,0.0,0.0,0.0,0.0,0.0,0.0,0.0,0.0,0.0,0.0,0.0,0.0,0.0,0.0,0.0,0.0,0.0,0.0,0.0,0.0,0.0,0.0,0.0,0.0,0.0,0.0,0.0,0.0,0.0,0.0,0.0,0.0,0.0,0.0,0.0,0.0,0.0,0.0,0.0,0.0,0.0,0.0,0.0,0.0,0.0,0.0,0.0,0.0,0.0,0.0,0.0,0.0,0.0,0.0,0.0,0.0,0.0,0.0,-1.6194,-1.6123,-1.6067,-1.5996,-1.5982,-1.5967,0.0,0.0,0.0,0.0,0.0,0.0,0.0,0.0,0.0,0.0,0.0,0.0,0.0,0.0,0.0,0.0,0.0,0.0,0.0,0.0,0.0,0.0,0.0,0.0,0.0,0.0,0.0,0.0,0.0,0.0,0.0,0.0,0.0,0.0,0.0,0.0,0.0,0.0,0.0,0.0,0.0,0.0,0.0,0.0,0.0,0.0,0.0,0.0,0.0,0.0,0.0,0.0,0.0,0.0,0.0,0.0,0.0,0.0,0.0,0.0,0.0,0.0,0.0,0.0,0.0,0.0,0.0,0.0,0.0,0.0,0.0,0.0,0.0,0.0,0.0,0.0,0.0,0.0,0.0,0.0,0.0,0.0,0.0,0.0,0.0,0.0,0.0,0.0,0.0,0.0,0.0,0.0,0.0,0.0,0.0,0.0,0.0,0.0,0.0,0.0,0.0,0.0,0.0,0.0,0.0,0.0,0.0,0.0,0.0,-1.6208,-1.618,-1.6137,-1.6123,-1.6123,-1.6123,0.0,0.0,0.0,0.0,0.0,0.0,0.0,0.0,0.0,0.0,0.0,0.0,0.0,0.0,0.0,0.0,0.0,0.0,0.0,0.0,0.0,0.0,0.0,0.0,0.0,0.0,0.0,0.0,0.0,0.0,0.0,0.0,0.0,0.0,0.0,0.0,0.0,0.0,0.0,0.0,0.0,0.0,0.0,0.0,0.0,0.0,0.0,0.0,0.0,0.0,0.0,0.0,0.0,0.0,0.0,0.0,0.0,0.0,0.0,0.0,0.0,0.0,0.0,0.0,0.0,0.0,0.0,0.0,0.0,0.0,0.0,0.0,0.0,0.0,0.0,0.0,0.0,0.0,0.0,0.0,0.0,0.0,0.0,0.0,0.0,0.0,0.0,0.0,0.0,0.0,0.0,0.0,0.0,0.0,0.0,0.0,0.0,0.0,0.0,0.0,0.0,0.0,0.0,0.0,0.0,0.0,0.0,0.0,0.0,-1.6208,0.0,-1.6208,-1.6208,-1.6208,-1.6208,0.0,0.0,0.0,0.0,0.0,0.0,0.0,0.0,0.0,0.0,0.0,0.0,0.0,0.0,0.0,0.0,0.0,0.0,0.0,0.0,0.0,0.0,0.0,0.0,0.0,0.0,0.0,0.0,0.0,0.0,0.0,0.0,0.0,0.0,0.0,0.0,0.0,0.0,0.0,0.0,0.0,0.0,0.0,0.0,0.0,0.0,0.0,0.0,0.0,0.0,0.0,0.0,0.0,0.0,0.0,0.0,0.0,0.0,0.0,0.0,0.0,0.0,0.0,0.0,0.0,0.0,0.0,0.0,0.0,0.0,0.0,0.0,0.0,0.0,0.0,0.0,0.0,0.0,0.0,0.0,0.0,0.0,0.0,0.0,0.0,0.0,0.0,0.0,0.0,0.0,0.0,0.0,0.0,0.0,0.0,0.0,0.0,0.0,0.0,0.0,0.0,0.0,0.0,0.0,0.0,0.0,0.0,0.0,-1.6291,-1.6208,-1.6208,-1.6208,-1.6208,-1.6208,-1.6208,0.0,0.0,0.0,0.0,0.0,0.0,0.0,0.0,0.0,0.0,0.0,0.0,0.0,0.0,0.0,0.0,0.0,0.0,0.0,0.0,0.0,0.0,0.0,0.0,0.0,0.0,0.0,0.0,0.0,0.0,0.0,0.0,0.0,0.0,0.0,0.0,0.0,0.0,0.0,0.0,0.0,0.0,0.0,0.0,0.0,0.0,0.0,0.0,0.0,0.0,0.0,0.0,0.0,0.0,0.0,0.0,0.0,0.0,0.0,0.0,0.0,0.0,0.0,0.0,0.0,0.0,0.0,0.0,0.0,0.0,0.0,0.0,0.0,0.0,0.0,0.0,0.0,0.0,0.0,0.0,0.0,0.0,0.0,0.0,0.0,0.0,0.0,0.0,0.0,0.0,0.0,0.0,0.0,0.0,0.0,0.0,0.0,0.0,0.0,0.0,0.0,0.0,0.0,0.0,0.0,0.0,0.0,0.0,0.0,-1.6223,-1.6208,-1.6208,-1.6208,-1.6208,-1.6208,0.0,0.0,0.0,0.0,0.0,0.0,0.0,0.0,0.0,0.0,0.0,0.0,0.0,0.0,0.0,0.0,0.0,0.0,0.0,0.0,0.0,0.0,0.0,0.0,0.0,0.0,0.0,0.0,0.0,0.0,0.0,0.0,0.0,0.0,0.0,0.0,0.0,0.0,0.0,0.0,0.0,0.0,0.0,0.0,0.0,0.0,0.0,0.0,0.0,0.0,0.0,0.0,0.0,0.0,0.0,0.0,0.0,0.0,0.0,0.0,0.0,0.0,0.0,0.0,0.0,0.0,0.0,0.0,0.0,0.0,0.0,0.0,0.0,0.0,0.0,0.0,0.0,0.0,0.0,0.0,0.0,0.0,0.0,0.0,0.0,0.0,0.0,0.0,0.0,0.0,0.0,0.0,0.0,0.0,0.0,0.0,0.0,0.0,0.0,0.0,0.0,0.0,0.0,0.0,0.0,0.0,0.0,0.0,0.0,-1.7361,-1.7361,-1.7345,-1.7345,-1.7085,-1.6824,-1.6593,0.0,0.0,0.0,0.0,0.0,0.0,0.0,0.0,0.0,0.0,0.0,0.0,0.0,0.0,0.0,0.0,0.0,0.0,0.0,0.0,0.0,0.0,0.0,0.0,0.0,0.0,0.0,0.0,0.0,0.0,0.0,0.0,0.0,0.0,0.0,0.0,0.0,0.0,0.0,0.0,0.0,0.0,0.0,0.0,0.0,0.0,0.0,0.0,0.0,0.0,0.0,0.0,0.0,0.0,0.0,0.0,0.0,0.0,0.0,0.0,0.0,0.0,0.0,0.0,0.0,0.0,0.0,0.0,0.0,0.0,0.0,0.0,0.0,0.0,0.0,0.0,0.0,0.0,0.0,0.0,0.0,0.0,0.0,0.0,0.0,0.0,0.0,0.0,0.0,0.0,0.0,0.0,0.0,0.0,0.0,0.0,0.0,0.0,0.0,0.0,0.0,0.0,0.0,0.0,0.0,0.0,0.0,0.0,-1.9457,-1.9502,-1.9456,-1.9334,-1.8622,-1.7946,0.0,0.0,0.0,0.0,0.0,0.0,0.0,0.0,0.0,0.0,0.0,0.0,0.0,0.0,0.0,0.0,0.0,0.0,0.0,0.0,0.0,0.0,0.0,0.0,0.0,0.0,0.0,0.0,0.0,0.0,0.0,0.0,0.0,0.0,0.0,0.0,0.0,0.0,0.0,0.0,0.0,0.0,0.0,0.0,0.0,0.0,0.0,0.0,0.0,0.0,0.0,0.0,0.0,0.0,0.0,0.0,0.0,0.0,0.0,0.0,0.0,0.0,0.0,0.0,0.0,0.0,0.0,0.0,0.0,0.0,0.0,0.0,0.0,0.0,0.0,0.0,0.0,0.0,0.0,0.0,0.0,0.0,0.0,0.0,0.0,0.0,0.0,0.0,0.0,0.0,0.0,0.0,0.0,0.0,0.0,0.0,0.0,0.0,0.0,0.0,0.0,0.0,0.0,0.0,0.0,0.0,0.0,0.0,0.0,-2.1442,-2.1997,-2.1535,-2.0104,-1.9379,-1.8669,0.0,0.0,0.0,0.0,0.0,0.0,0.0,0.0,0.0,0.0,0.0,0.0,0.0,0.0,0.0,0.0,0.0,0.0,0.0,0.0,0.0,0.0,0.0,0.0,0.0,0.0,0.0,0.0,0.0,0.0,0.0,0.0,0.0,0.0,0.0,0.0,0.0,0.0,0.0,0.0,0.0,0.0,0.0,0.0,0.0,0.0,0.0,0.0,0.0,0.0,0.0,0.0,0.0,0.0,0.0,0.0,0.0,0.0,0.0,0.0,0.0,0.0,0.0,0.0,0.0,0.0,0.0,0.0,0.0,0.0,0.0,0.0,0.0,0.0,0.0,0.0,0.0,0.0,0.0,0.0,0.0,0.0,0.0,0.0,0.0,0.0,0.0,0.0,0.0,0.0,0.0,0.0,0.0,0.0,0.0,0.0,0.0,0.0,0.0,0.0,0.0,0.0,0.0,0.0,0.0,0.0,0.0,0.0,-2.0859,-2.2289,-2.3225,-2.3163,-2.2012,-2.078,-1.9671,0.0,0.0,0.0,0.0,0.0,0.0,0.0,0.0,0.0,0.0,0.0,0.0,0.0,0.0,0.0,0.0,0.0,0.0,0.0,0.0,0.0,0.0,0.0,0.0,0.0,0.0,0.0,0.0,0.0,0.0,0.0,0.0,0.0,0.0,0.0,0.0,0.0,0.0,0.0,0.0,0.0,0.0,0.0,0.0,0.0,0.0,0.0,0.0,0.0,0.0,0.0,0.0,0.0,0.0,0.0,0.0,0.0,0.0,0.0,0.0,0.0,0.0,0.0,0.0,0.0,0.0,0.0,0.0,0.0,0.0,0.0,0.0,0.0,0.0,0.0,0.0,0.0,0.0,0.0,0.0,0.0,0.0,0.0,0.0,0.0,0.0,0.0,0.0,0.0,0.0,0.0,0.0,0.0,0.0,0.0,0.0,0.0,0.0,0.0,0.0,0.0,0.0,0.0,0.0,0.0,0.0,0.0,0.0,-2.1658,-2.2394,-2.364,-2.4281,-2.4235,-2.2428,-2.078,0.0,0.0,0.0,0.0,0.0,0.0,0.0,0.0,0.0,0.0,0.0,0.0,0.0,0.0,0.0,0.0,0.0,0.0,0.0,0.0,0.0,0.0,0.0,0.0,0.0,0.0,0.0,0.0,0.0,0.0,0.0,0.0,0.0,0.0,0.0,0.0,0.0,0.0,0.0,0.0,0.0,0.0,0.0,0.0,0.0,0.0,0.0,0.0,0.0,0.0,0.0,0.0,0.0,0.0,0.0,0.0,0.0,0.0,0.0,0.0,0.0,0.0,0.0,0.0,0.0,0.0,0.0,0.0,0.0,0.0,0.0,0.0,0.0,0.0,0.0,0.0,0.0,0.0,0.0,0.0,0.0,0.0,0.0,0.0,0.0,0.0,0.0,0.0,0.0,0.0,0.0,0.0,0.0,0.0,0.0,0.0,0.0,0.0,0.0,0.0,0.0,0.0,0.0,0.0,0.0,0.0,0.0,0.0,-2.1889,-2.3055,-2.3887,-2.4281,-2.4302,-2.2855,-2.1458,0.0,0.0,0.0,0.0,0.0,0.0,0.0,0.0,0.0,0.0,0.0,0.0,0.0,0.0,0.0,0.0,0.0,0.0,0.0,0.0,0.0,0.0,0.0,0.0,0.0,0.0,0.0,0.0,0.0,0.0,0.0,0.0,0.0,0.0,0.0,0.0,0.0,0.0,0.0,0.0,0.0,0.0,0.0,0.0,0.0,0.0,0.0,0.0,-1.8999,0.0,0.0,0.0,0.0,0.0,0.0,0.0,0.0,0.0,0.0,0.0,0.0,0.0,0.0,0.0,0.0,0.0,0.0,0.0,0.0,0.0,0.0,0.0,0.0,0.0,0.0,0.0,0.0,0.0,0.0,0.0,0.0,0.0,0.0,0.0,0.0,0.0,0.0,0.0,0.0,0.0,0.0,0.0,0.0,0.0,0.0,0.0,0.0,0.0,0.0,0.0,0.0,0.0,0.0,0.0,0.0,0.0,0.0,0.0,-2.2274,-2.3271,-2.3963,-2.4281,-2.4251,-2.3302,-2.2151,0.0,0.0,0.0,0.0,0.0,0.0,0.0,0.0,0.0,0.0,0.0,0.0,0.0,0.0,0.0,0.0,0.0,0.0,0.0,0.0,0.0,0.0,0.0,0.0,0.0,0.0,0.0,0.0,0.0,0.0,0.0,0.0,0.0,0.0,0.0,0.0,0.0,0.0,0.0,0.0,0.0,0.0,0.0,0.0,0.0,0.0,0.0,0.0,0.0,0.0,0.0,0.0,0.0,0.0,0.0,0.0,0.0,0.0,0.0,0.0,0.0,0.0,0.0,0.0,0.0,0.0,0.0,0.0,0.0,0.0,0.0,0.0,0.0,0.0,0.0,0.0,0.0,0.0,0.0,0.0,0.0,0.0,0.0,0.0,0.0,0.0,0.0,0.0,0.0,0.0,0.0,0.0,0.0,0.0,0.0,0.0,0.0,0.0,0.0,0.0,0.0,0.0,0.0,0.0,0.0,0.0,0.0,-2.2028,-2.2671,-2.344,-2.401,-2.4281,-2.4287,-2.3656,-2.2736,-2.1488,0.0,0.0,0.0,0.0,0.0,0.0,0.0,0.0,0.0,0.0,0.0,0.0,0.0,0.0,0.0,0.0,0.0,0.0,0.0,0.0,0.0,0.0,0.0,0.0,0.0,0.0,0.0,0.0,0.0,0.0,0.0,0.0,0.0,0.0,0.0,0.0,0.0,0.0,-1.8718,-1.883,0.0,0.0,0.0,0.0,0.0,0.0,0.0,0.0,-1.9524,0.0,0.0,0.0,0.0,0.0,0.0,0.0,0.0,0.0,0.0,0.0,0.0,0.0,0.0,0.0,0.0,0.0,0.0,0.0,0.0,0.0,0.0,0.0,0.0,0.0,0.0,0.0,0.0,0.0,0.0,0.0,0.0,0.0,0.0,0.0,0.0,0.0,0.0,0.0,0.0,0.0,0.0,0.0,0.0,0.0,0.0,0.0,0.0,0.0,0.0,0.0,0.0,0.0,0.0,0.0,0.0,-2.212,-2.2224,-2.2886,-2.4102,-2.4256,-2.4281,-2.4266,-2.364,-2.2932,-2.212,0.0,0.0,0.0,0.0,0.0,0.0,0.0,0.0,0.0,0.0,0.0,0.0,0.0,0.0,0.0,0.0,0.0,0.0,0.0,0.0,0.0,0.0,0.0,0.0,0.0,0.0,0.0,0.0,0.0,0.0,0.0,0.0,0.0,0.0,0.0,0.0,0.0,0.0,0.0,-1.8994,-1.894,0.0,0.0,0.0,0.0,0.0,0.0,0.0,0.0,-1.9684,0.0,0.0,0.0,0.0,0.0,0.0,0.0,0.0,0.0,0.0,0.0,0.0,0.0,0.0,0.0,0.0,0.0,0.0,0.0,0.0,0.0,0.0,0.0,0.0,0.0,0.0,0.0,0.0,0.0,0.0,0.0,0.0,0.0,0.0,0.0,0.0,0.0,0.0,0.0,0.0,0.0,0.0,0.0,0.0,0.0,0.0,0.0,0.0,0.0,0.0,0.0,0.0,0.0,0.0,0.0,-2.2274,-2.264,-2.3302,-2.4251,-2.4281,-2.4281,-2.4266,-2.364,-2.2809,0.0,0.0,0.0,0.0,0.0,0.0,0.0,0.0,0.0,0.0,0.0,0.0,0.0,0.0,0.0,0.0,0.0,0.0,0.0,0.0,0.0,0.0,0.0,0.0,0.0,0.0,0.0,0.0,0.0,0.0,0.0,0.0,0.0,0.0,0.0,0.0,0.0,0.0,0.0,0.0,-1.9348,-1.9404,-2.0174,0.0,0.0,0.0,0.0,0.0,0.0,-1.9984,-1.975,0.0,0.0,0.0,0.0,0.0,0.0,0.0,0.0,0.0,0.0,0.0,0.0,0.0,0.0,0.0,0.0,0.0,0.0,0.0,0.0,0.0,0.0,0.0,0.0,0.0,0.0,0.0,0.0,0.0,0.0,0.0,0.0,0.0,0.0,0.0,0.0,0.0,0.0,0.0,0.0,0.0,0.0,0.0,0.0,0.0,0.0,0.0,0.0,0.0,0.0,0.0,0.0,0.0,0.0,0.0,-2.2305,-2.2948,-2.364,-2.4251,-2.4281,-2.4281,-2.4266,-2.3533,-2.2517,0.0,0.0,0.0,0.0,0.0,0.0,0.0,0.0,0.0,0.0,0.0,0.0,0.0,0.0,0.0,0.0,0.0,0.0,0.0,0.0,0.0,0.0,0.0,0.0,0.0,0.0,0.0,0.0,0.0,0.0,0.0,0.0,0.0,0.0,0.0,0.0,0.0,0.0,0.0,0.0,0.0,-1.9875,-2.0571,-2.0167,0.0,0.0,0.0,0.0,-2.0769,-2.0427,0.0,0.0,0.0,0.0,0.0,0.0,0.0,0.0,0.0,0.0,0.0,0.0,0.0,0.0,0.0,0.0,0.0,0.0,0.0,0.0,0.0,0.0,0.0,0.0,0.0,0.0,0.0,0.0,0.0,0.0,0.0,0.0,0.0,0.0,0.0,0.0,0.0,0.0,0.0,0.0,0.0,0.0,0.0,0.0,0.0,0.0,0.0,0.0,0.0,0.0,0.0,0.0,0.0,0.0,0.0,0.0,-2.2289,-2.2948,-2.3625,-2.4251,-2.4297,-2.4281,-2.4266,-2.3071,-2.2074,0.0,0.0,0.0,0.0,0.0,0.0,0.0,0.0,0.0,0.0,0.0,0.0,0.0,0.0,0.0,0.0,0.0,0.0,0.0,0.0,0.0,0.0,0.0,0.0,0.0,0.0,0.0,0.0,0.0,0.0,0.0,0.0,0.0,0.0,0.0,0.0,0.0,0.0,0.0,0.0,0.0,-1.9864,-2.0614,-2.0124,-1.9706,0.0,0.0,-2.064,-2.0713,-2.1144,0.0,0.0,0.0,0.0,0.0,0.0,0.0,0.0,0.0,0.0,0.0,0.0,0.0,0.0,0.0,0.0,0.0,0.0,0.0,0.0,0.0,0.0,0.0,0.0,0.0,0.0,0.0,0.0,0.0,0.0,0.0,0.0,0.0,0.0,0.0,0.0,0.0,0.0,0.0,0.0,0.0,0.0,0.0,0.0,0.0,0.0,0.0,0.0,0.0,0.0,0.0,0.0,0.0,0.0,0.0,-2.2748,-2.344,-2.4502,-2.5179,-2.5419,-2.5487,-2.5287,-2.4887,-2.3948,-2.2748,0.0,0.0,0.0,0.0,0.0,0.0,0.0,0.0,0.0,0.0,0.0,0.0,0.0,0.0,0.0,0.0,0.0,0.0,0.0,0.0,0.0,0.0,0.0,0.0,0.0,0.0,0.0,0.0,0.0,0.0,0.0,0.0,0.0,0.0,0.0,0.0,0.0,0.0,0.0,0.0,0.0,0.0,-2.122,-2.1028,0.0,0.0,0.0,-2.1266,-2.1336,0.0,0.0,0.0,0.0,0.0,0.0,0.0,0.0,0.0,0.0,0.0,0.0,0.0,0.0,0.0,0.0,0.0,0.0,0.0,0.0,0.0,0.0,0.0,0.0,0.0,0.0,0.0,0.0,0.0,0.0,0.0,0.0,0.0,0.0,0.0,0.0,0.0,0.0,0.0,0.0,0.0,0.0,0.0,0.0,0.0,0.0,0.0,0.0,0.0,0.0,0.0,0.0,0.0,0.0,0.0,0.0,0.0,-2.4281,-2.5687,-2.6364,-2.6327,-2.6364,-2.6134,-2.5595,-2.4896,0.0,0.0,0.0,0.0,0.0,0.0,0.0,0.0,0.0,0.0,0.0,0.0,0.0,0.0,0.0,0.0,0.0,0.0,0.0,0.0,0.0,0.0,0.0,0.0,0.0,0.0,0.0,-1.835,0.0,0.0,0.0,0.0,0.0,0.0,0.0,0.0,0.0,0.0,0.0,0.0,0.0,0.0,-2.1131,-2.1937,-2.2118,-2.2167,0.0,0.0,-2.2273,-2.232,-2.2448,-2.24,0.0,0.0,0.0,0.0,0.0,0.0,0.0,0.0,0.0,0.0,0.0,0.0,0.0,0.0,0.0,0.0,0.0,0.0,0.0,0.0,0.0,0.0,0.0,0.0,0.0,0.0,0.0,0.0,0.0,0.0,0.0,0.0,0.0,0.0,0.0,0.0,0.0,0.0,0.0,0.0,0.0,0.0,0.0,0.0,0.0,0.0,0.0,0.0,0.0,0.0,0.0,0.0,0.0,0.0,0.0,-2.4333,-2.5672,-2.6411,-2.6418,-2.6402,-2.638,-2.6318,-2.5626,-2.4302,0.0,0.0,0.0,0.0,0.0,0.0,0.0,0.0,0.0,0.0,0.0,0.0,0.0,0.0,0.0,0.0,0.0,0.0,0.0,0.0,0.0,0.0,0.0,0.0,0.0,0.0,0.0,0.0,0.0,0.0,0.0,0.0,0.0,0.0,0.0,0.0,0.0,0.0,0.0,0.0,0.0,-2.161,-2.2587,-2.3103,-2.3462,0.0,0.0,-2.3773,-2.3756,-2.4323,-2.4309,-2.2942,0.0,0.0,0.0,0.0,0.0,0.0,0.0,0.0,0.0,0.0,0.0,0.0,0.0,0.0,0.0,0.0,0.0,0.0,0.0,0.0,0.0,0.0,0.0,0.0,0.0,0.0,0.0,0.0,0.0,0.0,0.0,0.0,0.0,0.0,0.0,0.0,0.0,0.0,0.0,0.0,0.0,0.0,0.0,0.0,0.0,0.0,0.0,0.0,0.0,0.0,0.0,0.0,0.0,-2.4456,-2.5512,-2.6934,-2.7626,-2.7626,-2.7626,-2.7442,-2.7011,-2.6734,-2.5626,0.0,0.0,0.0,0.0,0.0,0.0,0.0,0.0,0.0,0.0,0.0,0.0,0.0,0.0,0.0,0.0,0.0,0.0,0.0,0.0,0.0,0.0,0.0,0.0,0.0,0.0,0.0,0.0,-2.0073,-2.0334,-2.0255,0.0,0.0,0.0,0.0,0.0,0.0,0.0,0.0,0.0,0.0,-2.2655,-2.4019,-2.4336,0.0,0.0,-2.4582,-2.4413,-2.3898,-2.4029,-2.388,-2.2844,-2.2052,0.0,0.0,0.0,0.0,0.0,0.0,0.0,0.0,0.0,0.0,0.0,0.0,0.0,0.0,0.0,0.0,0.0,0.0,0.0,0.0,0.0,0.0,0.0,0.0,0.0,0.0,0.0,0.0,0.0,0.0,0.0,0.0,0.0,0.0,0.0,0.0,0.0,0.0,0.0,0.0,0.0,0.0,0.0,0.0,0.0,0.0,0.0,0.0,0.0,0.0,0.0,0.0,-2.5158,-2.6349,-2.768,-2.8411,-2.8411,-2.8411,-2.8181,-2.7719,-2.7703,-2.6842,0.0,0.0,0.0,0.0,0.0,0.0,0.0,0.0,0.0,0.0,0.0,0.0,0.0,0.0,0.0,0.0,0.0,0.0,0.0,0.0,0.0,0.0,0.0,0.0,0.0,0.0,0.0,0.0,-2.0673,-2.075,-1.9916,0.0,0.0,0.0,0.0,0.0,0.0,0.0,0.0,0.0,0.0,-2.3522,-2.4994,-2.5122,-2.5077,-2.5199,-2.5055,-2.4726,-2.4179,-2.4036,-2.379,-2.3266,0.0,0.0,0.0,0.0,0.0,0.0,0.0,0.0,0.0,0.0,0.0,0.0,0.0,0.0,0.0,0.0,0.0,0.0,0.0,0.0,0.0,0.0,0.0,0.0,0.0,0.0,0.0,0.0,0.0,0.0,-1.8052,0.0,0.0,0.0,0.0,0.0,0.0,0.0,0.0,0.0,0.0,0.0,0.0,0.0,0.0,0.0,0.0,0.0,0.0,0.0,0.0,0.0,0.0,-2.5635,-2.6395,-2.7695,-2.8372,-2.8372,-2.8411,-2.8356,-2.8341,-2.8356,-2.7734,-2.6364,0.0,0.0,0.0,0.0,0.0,0.0,0.0,0.0,0.0,0.0,0.0,0.0,0.0,0.0,0.0,0.0,0.0,0.0,0.0,0.0,0.0,0.0,0.0,0.0,0.0,0.0,-2.0513,-2.0827,-2.0486,0.0,0.0,0.0,0.0,0.0,0.0,0.0,0.0,0.0,0.0,-2.3054,-2.41,-2.5228,-2.528,-2.5279,-2.5639,-2.5185,-2.4799,-2.475,-2.4624,-2.455,0.0,0.0,0.0,0.0,0.0,0.0,0.0,0.0,0.0,0.0,0.0,0.0,0.0,0.0,0.0,0.0,0.0,0.0,0.0,0.0,0.0,0.0,0.0,0.0,0.0,0.0,0.0,-1.8836,-1.8879,0.0,0.0,0.0,0.0,0.0,0.0,0.0,0.0,0.0,0.0,0.0,-2.2331,-2.259,0.0,0.0,0.0,0.0,0.0,0.0,0.0,0.0,0.0,0.0,0.0,0.0,-2.5236,-2.5901,-2.696,-2.7519,-2.756,-2.7519,-2.7504,-2.7545,-2.7519,-2.7116,-2.6234,0.0,0.0,0.0,0.0,0.0,0.0,0.0,0.0,0.0,0.0,0.0,0.0,0.0,0.0,0.0,0.0,0.0,0.0,0.0,0.0,0.0,0.0,0.0,0.0,0.0,-2.019,0.0,0.0,0.0,0.0,0.0,0.0,0.0,0.0,0.0,0.0,0.0,-2.2763,-2.4028,-2.4065,-2.4314,-2.5262,-2.4961,-2.4826,0.0,0.0,0.0,0.0,0.0,0.0,0.0,0.0,0.0,0.0,0.0,0.0,0.0,0.0,-2.2156,-2.1226,-2.1579,-2.2096,-2.2406,0.0,0.0,0.0,0.0,0.0,0.0,0.0,0.0,0.0,0.0,0.0,0.0,0.0,0.0,-2.0517,0.0,-2.0123,0.0,0.0,0.0,0.0,0.0,0.0,0.0,0.0,-2.2672,-2.2887,-2.3292,-2.3548,-2.3525,0.0,-2.3595,-2.3384,0.0,0.0,0.0,0.0,0.0,0.0,0.0,0.0,-2.5174,-2.5559,-2.6574,-2.7097,-2.7097,-2.7097,-2.7097,-2.7097,-2.7097,-2.689,-2.6478,-2.5616,-2.481,0.0,0.0,0.0,0.0,0.0,0.0,0.0,0.0,0.0,0.0,0.0,0.0,0.0,0.0,0.0,0.0,0.0,0.0,0.0,0.0,0.0,0.0,0.0,-2.0959,0.0,0.0,0.0,0.0,0.0,0.0,0.0,0.0,0.0,-2.2406,-2.2855,-2.3555,-2.4547,-2.4431,-2.4364,-2.473,0.0,0.0,0.0,0.0,0.0,0.0,0.0,-2.3098,-2.3222,-2.339,-2.3753,-2.4495,-2.4225,-2.3711,-2.3235,0.0,0.0,-2.2652,-2.2966,-2.3467,-2.3759,-2.3781,-2.3763,-2.3807,-2.3837,-2.3807,0.0,0.0,0.0,0.0,0.0,0.0,0.0,0.0,-2.2712,-2.2743,0.0,-2.2731,0.0,0.0,0.0,0.0,0.0,-2.2359,0.0,0.0,-2.3985,-2.4157,-2.4258,-2.4269,-2.4283,-2.4283,-2.4408,-2.4519,-2.457,-2.3522,0.0,0.0,0.0,0.0,0.0,0.0,-2.5521,-2.5438,-2.6463,-2.7071,-2.7045,-2.7045,-2.7045,-2.7045,-2.7045,-2.7045,-2.7016,-2.6341,-2.5741,-2.5116,-2.3906,0.0,0.0,0.0,0.0,0.0,0.0,0.0,0.0,0.0,0.0,0.0,0.0,0.0,0.0,0.0,0.0,0.0,0.0,0.0,0.0,-2.1357,0.0,0.0,0.0,0.0,0.0,0.0,0.0,0.0,0.0,0.0,-2.3004,-2.3424,-2.3735,-2.38,0.0,0.0,0.0,0.0,-2.349,-2.2996,-2.2315,-2.1913,-2.1963,-2.2433,-2.3029,-2.362,0.0,0.0,-2.4902,-2.4464,-2.4132,-2.4099,-2.458,-2.4713,-2.401,-2.4528,-2.5069,-2.5129,-2.5187,-2.5243,-2.5275,-2.5275,-2.5258,-2.4399,0.0,0.0,0.0,0.0,-2.2974,-2.3293,-2.3761,-2.3761,-2.3786,-2.3772,-2.3345,0.0,0.0,0.0,0.0,0.0,0.0,-2.368,-2.4714,-2.4732,-2.5005,-2.5399,-2.5702,-2.5676,-2.5439,-2.5728,-2.5769,-2.5532,-2.5204,-2.4554,-2.3598,0.0,0.0,0.0,0.0,-2.5038,-2.5366,-2.595,-2.6258,-2.6258,-2.6244,-2.6244,-2.6231,-2.6258,-2.6217,-2.6258,-2.6325,-2.5986,-2.5275,-2.4742,0.0,0.0,0.0,0.0,0.0,0.0,0.0,0.0,0.0,0.0,0.0,0.0,0.0,0.0,0.0,0.0,0.0,0.0,0.0,-2.1319,-2.1972,-2.2077,0.0,0.0,0.0,0.0,0.0,0.0,0.0,0.0,0.0,-2.3489,-2.3927,-2.4475,0.0,0.0,-2.4452,-2.426,-2.3857,-2.3663,-2.3973,-2.3504,0.0,0.0,-2.3536,-2.3569,-2.4183,-2.5007,-2.5607,-2.5678,-2.5692,-2.5731,-2.568,-2.5846,-2.5915,-2.5731,-2.5682,-2.5849,-2.6212,-2.634,-2.6419,-2.6642,-2.6705,-2.6688,-2.6343,-2.5001,-2.3932,-2.3716,-2.4095,-2.411,-2.4399,-2.4859,-2.4885,-2.4874,-2.4845,-2.4493,-2.4272,-2.4113,-2.354,0.0,0.0,0.0,-2.4507,-2.5479,-2.5399,-2.5569,-2.5907,-2.6136,-2.615,-2.5921,-2.615,-2.6123,-2.5893,-2.5893,-2.5402,-2.4441,0.0,0.0,-2.4268,-2.4681,-2.5008,-2.5254,-2.5678,-2.5893,-2.5893,-2.5893,-2.5893,-2.5893,-2.5893,-2.5893,-2.5893,-2.6138,-2.6019,-2.5556,-2.5231,-2.4615,0.0,0.0,0.0,0.0,0.0,0.0,0.0,0.0,0.0,0.0,0.0,-2.0142,0.0,0.0,0.0,0.0,-2.157,-2.2025,-2.2761,-2.293,0.0,0.0,0.0,0.0,0.0,0.0,0.0,-2.2998,-2.3698,-2.4151,-2.3987,-2.4535,-2.5001,-2.5163,-2.4774,-2.4419,-2.4144,0.0,-2.4047,-2.4452,-2.4179,-2.4181,-2.4825,-2.4877,-2.496,-2.5311,-2.5584,-2.5844,-2.5844,-2.599,-2.6082,-2.6082,-2.6082,-2.6082,-2.6082,-2.5937,-2.601,-2.6505,-2.6657,-2.6708,-2.6908,-2.6941,-2.6957,-2.8072,-2.7876,-2.6118,-2.5316,-2.5231,-2.5231,-2.5541,-2.6034,-2.6048,-2.6034,-2.6048,-2.6048,-2.5766,-2.5189,-2.4641,0.0,-2.5205,-2.5231,-2.5555,-2.6048,-2.6048,-2.6034,-2.6048,-2.6048,-2.6048,-2.6048,-2.6048,-2.6048,-2.6062,-2.6062,-2.5794,-2.5246,-2.5414,-2.5226,-2.4708,-2.5069,-2.5268,-2.5275,-2.5666,-2.5893,-2.5893,-2.5893,-2.5893,-2.5893,-2.5893,-2.5893,-2.5893,-2.5893,-2.5893,-2.5907,-2.5493,-2.5003,-2.4454,0.0,0.0,0.0,0.0,0.0,0.0,0.0,0.0,0.0,0.0,0.0,0.0,0.0,0.0,0.0,-2.3169,0.0,-2.4358,-2.3911,0.0,0.0,0.0,-2.3215,-2.3333,-2.3526,-2.3663,-2.3745,0.0,0.0,-2.4614,-2.529,-2.5535,-2.4839,-2.4742,-2.4533,-2.3917,-2.4434,-2.4742,-2.4887,-2.4808,-2.5017,-2.5745,-2.6296,-2.6652,-2.6668,-2.6215,-2.5875,-2.5894,-2.5859,-2.581,-2.5894,-2.5791,-2.5778,-2.5729,-2.5764,-2.5815,-2.6242,-2.6332,-2.6383,-2.647,-2.647,-2.6539,-3.0319,-2.9785,-2.89,-2.7959,-2.713,-2.7144,-2.72,-2.7355,-2.7326,-2.7355,-2.7355,-2.7355,-2.7271,-2.713,-2.699,-2.7004,-2.7144,-2.7144,-2.7229,-2.7355,-2.7355,-2.7369,-2.7355,-2.7355,-2.7355,-2.7355,-2.7355,-2.7369,-2.7355,-2.7355,-2.7285,-2.7144,-2.7159,-2.6425,-2.4968,-2.5001,-2.5284,-2.5723,-2.585,-2.5893,-2.5893,-2.5893,-2.5893,-2.5893,-2.5893,-2.5893,-2.5893,-2.5893,-2.5893,-2.5893,-2.578,-2.5455,-2.4862,-2.3762,0.0,0.0,0.0,0.0,0.0,0.0,0.0,0.0,0.0,-2.0715,-2.1048,0.0,-2.197,0.0,-2.3635,-2.3978,-2.3703,-2.3522,0.0,0.0,-2.2786,-2.3043,-2.384,-2.3943,-2.428,-2.5049,-2.5621,-2.601,-2.6169,-2.6782,-2.7138,-2.696,-2.6944,-2.6879,-2.6717,-2.683,-2.6944,-2.6911,-2.6879,-2.7008,-2.7187,-2.7332,-2.7462,-2.7462,-2.73,-2.7183,-2.7183,-2.7199,-2.7199,-2.7183,-2.7183,-2.7025,-2.6523,-2.6442,-2.6254,-2.5917,-2.5937,-2.6242,-2.659,-2.6539,-2.6487,-3.1274,-3.0923,-3.0586,-3.0052,-2.938,-2.8283,-2.7805,-2.7805,-2.7805,-2.7805,-2.7805,-2.7805,-2.7805,-2.7805,-2.7805,-2.7805,-2.7805,-2.7805,-2.7805,-2.7805,-2.7805,-2.7805,-2.7805,-2.7805,-2.7805,-2.7805,-2.7805,-2.7805,-2.7805,-2.7805,-2.7805,-2.7805,-2.7805,-2.7285,-2.63,-2.6244,-2.6286,-2.6301,-2.6034,-2.5893,-2.5893,-2.5893,-2.5893,-2.5879,-2.5626,-2.5513,-2.5513,-2.5233,-2.5078,-2.5105,-2.5331,-2.5231,-2.4627,-2.4016,-2.3096,0.0,0.0,0.0,0.0,0.0,0.0,0.0,0.0,0.0,0.0,0.0,-2.2435,-2.3136,-2.3861,-2.4169,-2.392,-2.3909,-2.3754,-2.3487,-2.3787,-2.4229,-2.4776,-2.5255,-2.5787,-2.6346,-2.6836,-2.7154,-2.7154,-2.7753,-2.819,-2.819,-2.8466,-2.845,-2.7834,-2.7721,-2.7818,-2.8126,-2.819,-2.832,-2.8632,-2.8401,-2.819,-2.8174,-2.7915,-2.7721,-2.7721,-2.7721,-2.7721,-2.7721,-2.7721,-2.7608,-2.7219,-2.7154,-2.6992,-2.672,-2.6655,-2.6623,-2.634,-2.6137,-2.6118,-3.1624,-3.1576,-3.1559,-3.1531,-3.1363,-2.9195,-2.8283,-2.8283,-2.8269,-2.8269,-2.8283,-2.8283,-2.8283,-2.8269,-2.8199,-2.8171,-2.8157,-2.8072,-2.8044,-2.8044,-2.8044,-2.8044,-2.8015,-2.803,-2.8015,-2.8044,-2.8044,-2.8015,-2.8001,-2.8015,-2.8044,-2.803,-2.8044,-2.803,-2.8044,-2.8015,-2.765,-2.6933,-2.6315,-2.602,-2.6006,-2.5936,-2.5893,-2.5879,-2.5303,-2.5006,-2.4992,-2.4416,-2.4118,-2.4106,-2.4683,-2.4767,-2.4247,-2.4205,-2.3684,0.0,-2.187,0.0,0.0,0.0,0.0,0.0,0.0,0.0,0.0,-2.3113,-2.3241,-2.3651,-2.4225,-2.4621,-2.4741,-2.4741,-2.4741,-2.4756,-2.542,-2.5863,-2.5862,-2.6746,-2.7396,-2.7534,-2.7706,-2.7867,-2.8012,-2.8547,-2.894,-2.8989,-2.941,-2.9345,-2.8304,-2.8077,-2.8304,-2.8876,-2.894,-2.9135,-2.9572,-2.9313,-2.8957,-2.8854,-2.8482,-2.7996,-2.8077,-2.8061,-2.8029,-2.8029,-2.8093,-2.8012,-2.7883,-2.7834,-2.7798,-2.762,-2.7591,-2.7291,-2.6395,-2.61,-2.597,-3.2266,-3.1976,-3.1813,-3.1744,-3.1695,-3.1058,-3.0797,-3.0783,-3.0783,-3.0797,-3.0797,-3.0797,-3.0783,-3.074,-3.0235,-3.001,-2.9982,-2.9476,-2.9265,-2.9265,-2.9251,-2.9251,-2.9265,-2.9265,-2.9265,-2.9265,-2.9265,-2.9265,-2.9265,-2.9265,-2.9251,-2.9265,-2.9265,-2.9265,-2.9265,0.0,0.0,0.0,-2.6961,-2.6638,-2.6624,-2.6146,-2.5893,-2.5907,-2.533,0.0,-2.4978,-2.4416,-2.4118,-2.4132,-2.4669,0.0,0.0,0.0,0.0,0.0,0.0,0.0,0.0,0.0,0.0,0.0,-2.4003,-2.4003,-2.4171,-2.4979,-2.5565,-2.5705,-2.5887,-2.6017,-2.6055,-2.6055,-2.6017,-2.5986,-2.6176,-2.6335,-2.6505,-2.6865,-2.7354,-2.8121,-2.8415,-2.8827,-2.9345,-2.9621,-2.967,-2.9653,-2.9799,-2.9783,-2.9507,-2.9394,-2.9524,-2.967,-2.9621,-2.9718,-2.988,-2.9751,-2.9621,-2.9653,-2.9621,-2.9459,-2.941,-2.9426,-2.9459,-2.9426,-2.9491,-2.9248,-2.8713,-2.8595,-2.8417,-2.7834,-2.7753,-2.7685,-2.7611,-2.7443,-2.738,-3.2753,0.0,-3.2301,-3.2107,0.0,-3.1826,-3.1785,-3.1764,-3.1604,-3.1485,-3.1485,-3.1485,-3.1485,-3.1471,-3.1148,-3.1007,-3.0993,-3.067,-3.053,-3.0544,-3.053,-3.0361,-3.0066,-3.0066,-2.9897,-2.9602,-2.9602,-2.9602,-2.9602,-2.9602,-2.9602,-2.9602,-2.9602,-2.9602,-2.9602,-2.9602,-2.9153,-2.8255,-2.7607,-2.7284,-2.7256,-2.668,-2.6343,-2.6329,0.0,0.0,0.0,0.0,0.0,0.0,0.0,0.0,0.0,0.0,0.0,-2.412,-2.3783,-2.3727,-2.3997,-2.405,-2.4368,-2.5079,-2.5329,-2.5307,-2.5004,-2.5804,-2.6335,-2.6349,-2.638,-2.6402,-2.6402,-2.6402,-2.6402,-2.638,-2.6672,-2.6941,-2.7086,-2.7651,-2.8234,-2.8669,-2.909,-2.9491,-2.9848,-2.9896,-2.9896,-2.9896,-2.9896,-2.9896,-2.9896,-2.9896,-2.9896,-2.9896,-2.9896,-2.9896,-2.9896,-2.9896,-2.9896,-2.9896,-2.9896,-2.9896,-2.9896,-2.9896,-2.9896,-2.9896,-2.9896,-2.9751,-2.9459,-2.9345,-2.9216,-2.8908,-2.8773,-2.8799,-2.8918,-2.831,-2.7741,-3.2909,-3.2596,-3.2596,-3.2417,-3.2092,-3.2092,-3.2092,-3.206,0.0,0.0,0.0,-3.166,-3.1708,-3.1694,-3.1662,-3.1654,-3.1654,-3.1527,-3.1485,-3.1485,-3.1485,-3.1204,-3.068,-3.0652,-3.0399,-2.9954,-2.994,-2.9883,-2.9785,-2.9771,-2.9715,-2.9617,-2.9602,-2.9602,-2.9602,-2.9602,-2.9364,-2.8858,-2.8269,-2.7974,-2.796,-2.7312,-2.6933,-2.6821,-2.5725,-2.5119,-2.5006,-2.4416,-2.4118,-2.4106,-2.4683,-2.4767,-2.4303,-2.4824,-2.495,-2.4458,-2.4416,-2.4641,-2.5133,-2.5161,-2.5359,-2.5878,-2.6285,-2.6323,-2.5899,-2.6327,-2.6642,-2.6642,-2.6711,-2.6765,-2.6772,-2.6734,-2.6734,-2.6749,-2.7242,-2.758,-2.7635,-2.8389,-2.8966,-2.9075,-2.9409,-2.9732,-2.9726,-2.9726,-2.977,-2.9814,-2.9814,-2.9874,-2.9896,-2.9896,-2.9896,-2.9896,-2.9896,-2.9896,-2.9896,-2.9896,-2.9896,-2.9896,-2.9896,-2.9896,-2.9896,-2.9896,-2.9896,-2.9896,-2.9896,-2.988,-2.9896,-2.9848,-2.9896,-2.9896,-2.9896,-2.9896,-2.9799,-2.8957,-2.819,-3.2237,-3.2164,-3.22,-3.2164,-3.2092,-3.2092,-3.2092,-3.2114,-3.2024,-3.2027,-3.2027,-3.2384,-3.2526,-3.2533,-3.2359,-3.2286,-3.223,-3.1724,-3.1485,-3.1485,-3.1485,-3.1443,-3.1359,-3.1359,-3.1302,-3.1232,-3.1218,-3.0937,-3.0413,-3.0371,-3.0105,-2.9673,-2.9602,-2.9602,-2.9602,-2.9602,-2.956,-2.9476,-2.8872,-2.8563,-2.8549,-2.7959,-2.7369,-2.6807,-2.6132,-2.5514,-2.5021,-2.443,-2.4118,-2.4132,-2.4683,-2.4964,-2.4908,-2.5456,-2.5725,-2.564,-2.564,-2.5669,-2.578,-2.5767,-2.5809,-2.5907,-2.6285,-2.6593,-2.6886,-2.734,-2.7578,-2.7618,-2.7826,-2.8119,-2.8119,-2.8049,-2.8018,-2.8049,-2.8181,-2.8258,-2.8227,-2.8528,-2.8779,-2.8779,-2.9013,-2.9252,-2.9275,-2.9252,-2.935,-2.9509,-2.9621,-2.9665,-2.9852,-2.9896,-2.9896,-2.9896,-2.9896,-2.9896,-2.9896,-2.9896,-2.9896,-2.9896,-2.9896,-2.9896,-2.9896,-2.9896,-2.9896,-2.9896,-2.9896,-2.9896,-2.9896,-2.9896,-2.9896,-2.9896,-2.9896,-2.9896,-2.9896,-2.9621,-2.9491,-3.1982,-3.1836,-3.185,-3.1703,-3.1482,-3.1482,-3.1519,-3.1519,-3.1482,-3.174,-3.2092,-3.2309,-3.2381,-3.2354,-3.2286,-3.2246,-3.2219,-3.1943,-3.1833,-3.1833,-3.1833,-3.1758,-3.1672,-3.1644,-3.1593,-3.1499,-3.1485,-3.1345,-3.1064,-3.105,-3.0726,-3.0091,-2.9754,-2.9602,-2.9602,-2.9602,-2.9602,-2.9602,-2.9336,-2.9195,-2.9181,-2.8591,-2.8157,-2.7832,-2.6919,-2.6259,-2.5978,-2.5388,-2.5091,-2.5091,-2.5317,-2.5472,-2.5486,-2.5739,-2.5893,-2.5893,-2.5893,-2.5893,-2.5893,-2.5893,-2.5893,-2.5921,-2.6069,-2.6244,-2.6431,-2.7034,-2.7433,-2.7433,-2.78,-2.8079,-2.8079,-2.8063,-2.8079,-2.8063,-2.8079,-2.8079,-2.8128,-2.8462,-2.8685,-2.8708,-2.8936,-2.9114,-2.9114,-2.9114,-2.919,-2.9448,-2.9598,-2.977,-2.9874,-2.9896,-2.9896,-2.9896,-2.9896,-2.9896,-2.9896,-2.9896,-2.9896,-2.9896,-2.9896,-2.9896,-2.9896,-2.9896,-2.9896,-2.9896,-2.9896,-2.9896,-2.9896,-2.9896,-2.9896,-2.9896,-2.9896,-2.9896,-2.9896,-2.9896,-2.9896,-3.1886,-3.1703,-3.1629,-3.1384,-3.1024,-3.1024,-3.1024,-3.1024,-3.1024,-3.131,-3.1813,-3.1946,-3.1982,-3.1982,-3.2055,-3.2092,-3.2092,-3.2092,-3.2092,-3.2092,-3.2092,-3.2014,-3.1865,-3.1859,-3.1764,-3.1664,-3.1609,-3.1587,-3.1461,-3.1514,-3.1293,-3.0708,-3.0091,-2.9782,-2.9813,-2.9673,-2.9602,-2.9602,-2.9602,-2.9602,-2.9588,-2.9139,-2.8844,-2.8633,-2.7748,-2.7172,-2.7017,-2.6427,-2.6104,-2.6104,-2.5964,-2.5893,-2.5893,-2.5893,-2.5893,-2.5893,-2.5893,-2.5893,-2.5893,-2.5893,-2.5893,-2.5893,-2.5893,-2.5921,-2.5948,-2.6457,-2.6864,-2.6993,-2.7382,-2.7625,-2.765,-2.7765,-2.7815,-2.7815,-2.789,-2.7965,-2.7989,-2.8365,-2.8629,-2.8637,-2.8818,-2.8928,-2.8951,-2.8936,-2.9029,-2.9282,-2.9554,-2.9726,-2.9792,-2.9814,-2.9814,-2.9896,-2.9896,-2.9896,-2.9896,-2.9896,-2.9896,-2.9896,-2.9896,-2.9896,-2.9896,-2.9896,-2.9896,-2.9896,-2.9896,-2.9896,-2.9896,-2.9896,-2.9896,-2.9896,-2.9896,-2.9896,-2.9896,-2.9896,-2.9896,-3.1827,-3.1982,-3.1716,-3.1384,-3.1024,-3.1024,-3.1024,-3.1024,-3.1024,-3.1024,-3.1161,-3.1482,-3.1629,-3.1703,-3.1946,-3.2055,-3.2055,-3.2092,-3.2092,-3.2055,-3.2092,-3.2101,-3.2055,-3.2069,-3.2055,-3.2032,-3.2019,-3.1755,-3.1319,-3.1592,-3.1638,-3.1354,-3.0755,-3.0399,-3.0343,-2.9852,-2.9585,-2.9602,-2.9602,-2.9602,-2.9602,-2.956,-2.9251,-2.8703,-2.8591,-2.8254,-2.7721,-2.7059,-2.6722,-2.6652,-2.6202,-2.5907,-2.5907,-2.5907,-2.5893,-2.5893,-2.5893,-2.5893,-2.5893,-2.5893,-2.5893,-2.5893,-2.5893,-2.5893,-2.5893,-2.5975,-2.6177,-2.651,-2.6916,-2.7148,-2.7174,-2.7509,-2.7715,-2.775,-2.8014,-2.8323,-2.8314,-2.8396,-2.842,-2.842,-2.8493,-2.8468,-2.8517,-2.8517,-2.8549,-2.8693,-2.8967,-2.9175,-2.9341,-2.9448,-2.9515,-2.9748,-2.9874,-2.9874,-2.9896,-2.9896,-2.9896,-2.9896,-2.9896,-2.9896,-2.9896,-2.9896,-2.9896,-2.9896,-2.9896,-2.9896,-2.9896,-2.9896,-2.9896,-2.9896,-2.9896,-2.9896,-2.9896,-2.9896,-2.9896,-3.2327,-3.2362,-3.1587,-3.1161,-3.1024,-3.1024,-3.1024,-3.1024,-3.1024,-3.1024,-3.1024,-3.1198,-3.1235,-3.1272,-3.1384,-3.1458,-3.1445,-3.1458,-3.1445,-3.1445,-3.1458,-3.1556,-3.1776,-3.1813,-3.1909,-3.2092,-3.2092,-3.1983,-3.1748,-3.155,-3.1404,-3.1268,-3.0691,-3.0223,-2.9866,-2.9604,-2.9398,-2.9303,-2.9099,-2.9099,-2.932,-2.9509,-2.949,-2.9237,-2.8886,-2.8591,-2.8296,-2.7749,-2.7383,-2.734,-2.6764,-2.6427,-2.6427,-2.609,-2.5893,-2.5893,-2.5893,-2.5893,-2.5893,-2.5893,-2.5893,-2.5893,-2.5893,-2.5893,-2.5893,-2.5893,-2.5975,-2.615,-2.6496,-2.6733,-2.6759,-2.6904,-2.7126,-2.7357,-2.756,-2.775,-2.8014,-2.825,-2.8411,-2.8411,-2.8411,-2.8411,-2.8372,-2.8308,-2.8155,-2.8076,-2.8222,-2.8448,-2.8567,-2.8732,-2.8842,-2.8795,-2.8982,-2.9425,-2.9748,-2.9896,-2.9896,-2.9896,-2.9896,-2.9896,-2.9874,-2.9896,-2.9896,-2.9896,-2.9874,-2.9874,-2.9896,-2.9896,-2.9896,-2.9896,-2.9896,-2.9896,-2.9896,-2.9896,-2.9896,-3.2672,-3.2542,-3.1614,-3.113,-3.1024,-3.1024,-3.1024,-3.1024,-3.1024,-3.1024,-3.1024,-3.1024,-3.1024,-3.1024,-3.1024,-3.1024,-3.1024,-3.1024,-3.1024,-3.1024,-3.1024,-3.1161,-3.1408,-3.1421,-3.1556,-3.1776,-3.1776,-3.185,-3.1905,-3.1555,-3.1348,-3.1338,-3.0872,-3.033,-2.9896,-2.9612,-2.9323,-2.9169,-2.8825,-2.8716,-2.8972,-2.9194,-2.9352,-2.9404,-2.9136,-2.8942,-2.8928,-2.8368,-2.8058,-2.803,-2.7425,-2.7074,-2.7045,-2.6483,-2.6076,-2.5907,-2.5893,-2.5893,-2.5893,-2.5893,-2.5893,-2.5893,-2.5893,-2.5893,-2.5893,-2.5893,-2.5893,-2.5921,-2.6192,-2.6338,-2.6351,-2.6431,-2.6628,-2.689,-2.7019,-2.7265,-2.756,-2.79,-2.8063,-2.8201,-2.8201,-2.8241,-2.8201,-2.8097,-2.7879,-2.7555,-2.7565,-2.774,-2.7815,-2.8061,-2.8134,-2.7963,-2.8264,-2.8685,-2.9296,-2.9341,-2.9448,-2.9515,-2.947,-2.9576,-2.9621,-2.9621,-2.9748,-2.9659,-2.9704,-2.977,-2.9814,-2.9852,-2.977,-2.9874,-2.9896,-2.9874,-2.9896,-2.9896,-2.9896,-3.2672,-3.262,-3.2006,-3.1522,-3.1037,-3.1013,-3.0999,-3.1039,-3.1037,-3.1024,-3.1024,-3.1024,-3.1024,-3.1024,-3.1024,-3.1024,-3.1024,-3.1024,-3.1024,-3.1024,-3.1024,-3.1024,-3.1024,-3.1024,-3.1061,-3.1161,-3.1161,-3.131,-3.1593,-3.1553,-3.1723,-3.196,-3.1383,-3.1121,-3.0829,-2.9902,-2.9408,-2.9327,-2.8847,-2.8627,-2.8646,-2.8665,-2.8812,-2.9085,-2.9387,-2.9487,-2.9445,-2.897,-2.8647,-2.8661,-2.8057,-2.7763,-2.7707,-2.7116,-2.6526,-2.6048,-2.595,-2.595,-2.6005,-2.5964,-2.595,-2.5921,-2.5921,-2.5893,-2.5893,-2.5893,-2.5893,-2.5893,-2.5948,-2.5975,-2.5988,-2.6258,-2.6484,-2.6549,-2.689,-2.7071,-2.7148,-2.7251,-2.7393,-2.77,-2.7815,-2.779,-2.7815,-2.7815,-2.7509,-2.7214,-2.7122,-2.7159,-2.7363,-2.7475,-2.7575,-2.77,-2.7824,-2.8012,-2.8167,-2.848,-2.8519,-2.8591,-2.8865,-2.8982,-2.9005,-2.9028,-2.9205,-2.9312,-2.9205,-2.9296,-2.9621,-2.9687,-2.9538,-2.9598,-2.9732,-2.9792,-2.9874,-2.9896,-2.9896,-3.2946,-3.2685,-3.2463,-3.2254,-3.2045,-3.1692,-3.1497,-3.1458,-3.113,-3.1024,-3.1024,-3.1024,-3.1024,-3.1024,-3.1024,-3.1024,-3.1024,-3.1024,-3.1024,-3.1024,-3.1024,-3.1024,-3.1024,-3.1024,-3.1024,-3.1024,-3.1024,-3.1099,-3.1198,-3.1198,-3.1272,-3.1357,-3.1172,-3.0894,-3.0474,-3.0064,-2.9772,-2.9568,-2.8871,-2.8578,-2.8712,-2.8463,-2.8341,-2.8471,-2.9004,-2.9257,-2.9289,-2.9254,-2.9279,-2.9265,-2.8689,-2.8352,-2.8296,-2.7776,-2.734,-2.7172,-2.713,-2.713,-2.7088,-2.6708,-2.6483,-2.6455,-2.6104,-2.5936,-2.5893,-2.5893,-2.5893,-2.5907,-2.5907,-2.5893,-2.5921,-2.6056,-2.6231,-2.6484,-2.6642,-2.6811,-2.7045,-2.7097,-2.7174,-2.7316,-2.7342,-2.7265,-2.7086,-2.6956,-2.68,-2.6445,-2.6324,-2.6404,-2.651,-2.668,-2.6849,-2.6718,-2.6901,-2.7056,-2.6811,-2.76,-2.8046,-2.811,-2.8231,-2.8312,-2.8336,-2.8432,-2.8599,-2.8614,-2.8567,-2.8591,-2.885,-2.8943,-2.8919,-2.9493,-2.9643,-2.9538,-2.9836,-2.977,-2.983,-3.2869,-3.2651,-3.2639,-3.2656,-3.2659,-3.2293,-3.2071,-3.2032,-3.1474,-3.1357,-3.1497,-3.1344,-3.1228,-3.1228,-3.1228,-3.1061,-3.092,-3.0942,-3.1024,-3.1024,-3.1024,-3.1024,-3.1024,-3.1024,-3.1024,-3.1024,-3.1024,-3.1024,-3.1024,-3.1024,-3.1024,-3.1024,-3.1024,-3.0803,-3.0438,-3.0205,-3.0023,-2.9781,-2.9114,-2.8754,-2.8688,-2.8378,-2.8087,-2.8007,-2.849,-2.8876,-2.9099,-2.932,-2.9509,-2.9515,-2.9209,-2.89,-2.8689,-2.834,-2.8016,-2.7804,-2.7791,-2.7805,-2.7763,-2.7369,-2.7116,-2.7116,-2.6764,-2.6525,-2.6497,-2.6497,-2.6525,-2.6539,-2.6512,-2.6497,-2.6512,-2.6554,-2.6481,-2.6372,-2.6312,-2.6404,-2.6654,-2.668,-2.6759,-2.689,-2.706,-2.693,-2.659,-2.6522,-2.6324,-2.5948,-2.5893,-2.5893,-2.5948,-2.6096,-2.6258,-2.5988,-2.6231,-2.6338,-2.6285,-2.6785,-2.7185,-2.7236,-2.7565,-2.765,-2.77,-2.7809,-2.7908,-2.7923,-2.7923,-2.7947,-2.8021,-2.8103,-2.8575,-2.9227,-2.9205,-2.8982,-2.9296,-2.9598,-2.9598,-3.2381,-3.2478,-3.2482,-3.2557,-3.2669,-3.2539,-3.2619,-3.2407,-3.1862,-3.1787,-3.2055,-3.1837,-3.1506,-3.1607,-3.1493,-3.1217,-3.0776,-3.0867,-3.0967,-3.0967,-3.0965,-3.0976,-3.0989,-3.1013,-3.1024,-3.1024,-3.1024,-3.1024,-3.1024,-3.1024,-3.1024,-3.1024,-3.1024,-3.096,-3.0998,-3.0464,-3.0153,-3.0019,-2.9598,-2.9061,-2.8512,-2.8441,-2.814,-2.7708,-2.7961,-2.8392,-2.9017,-2.9099,-2.9257,-2.954,-2.9543,-2.9307,-2.8858,-2.8717,-2.8466,-2.8058,-2.7904,-2.7876,-2.7904,-2.7846,-2.7805,-2.7777,-2.7749,-2.7594,-2.7552,-2.7608,-2.7608,-2.758,-2.7622,-2.7679,-2.7651,-2.7622,-2.7215,-2.6216,-2.6201,-2.6228,-2.606,-2.5962,-2.6084,-2.6472,-2.6774,-2.6878,-2.6616,-2.6431,-2.6244,-2.6002,-2.5893,-2.5893,-2.5893,-2.5975,-2.5921,-2.5921,-2.6002,-2.6029,-2.5975,-2.5948,-2.6138,-2.6326,-2.6747,-2.7004,-2.6967,-2.7045,-2.7236,-2.7287,-2.721,-2.7236,-2.754,-2.765,-2.7923,-2.8384,-2.8312,-2.8432,-2.8732,-2.9028,-2.9273,-3.2346,-3.237,-3.237,-3.2399,-3.2356,-3.2031,-3.1868,-3.1818,-3.1191,-3.11,-3.1198,-3.1046,-3.0923,-3.0935,-3.0935,-3.0811,-3.0626,-3.0661,-3.0726,-3.0716,-3.0837,-3.0854,-3.0907,-3.098,-3.1024,-3.1024,-3.1024,-3.1024,-3.1024,-3.1024,-3.1024,-3.1024,-3.1024,-3.1024,-3.1011,-3.0817,-3.0725,-3.066,-3.015,-2.9722,-2.951,-2.8791,-2.8328,-2.8132,-2.7846,-2.7934,-2.8406,-2.8844,-2.9131,-2.9257,-2.9477,-2.9518,-2.9364,-2.9321,-2.9237,-2.9083,-2.904,-2.904,-2.8984,-2.8647,-2.8408,-2.8368,-2.8058,-2.7833,-2.7805,-2.7847,-2.7847,-2.7833,-2.7805,-2.7805,-2.7805,-2.7805,-2.7651,-2.7228,-2.7215,-2.6947,-2.6554,-2.6188,-2.599,-2.6042,-2.6204,-2.6204,-2.615,-2.6096,-2.6069,-2.5948,-2.5893,-2.5893,-2.5893,-2.5893,-2.5893,-2.5893,-2.5893,-2.5893,-2.5893,-2.5893,-2.5975,-2.6056,-2.6312,-2.651,-2.6445,-2.6418,-2.663,-2.6683,-2.6604,-2.6695,-2.6967,-2.7174,-2.7388,-2.7615,-2.7715,-2.7898,-2.8207,-2.8424,-2.8614,-3.1701,-3.1933,-3.1933,-3.2096,-3.2234,-3.1902,-3.178,-3.17,-3.1138,-3.101,-3.1192,-3.098,-3.0852,-3.0852,-3.0852,-3.0712,-3.0498,-3.0455,-3.0455,-3.0494,-3.0659,-3.0751,-3.0743,-3.0842,-3.0944,-3.0931,-3.0978,-3.0986,-3.1024,-3.1024,-3.1024,-3.1024,-3.1024,-3.1024,-3.1024,-3.0986,-3.0898,-3.0645,-3.0472,-3.0236,-2.9777,-2.9262,-2.8922,-2.8708,-2.815,-2.7964,-2.8219,-2.8573,-2.8844,-2.9067,-2.932,-2.9415,-2.9415,-2.9275,-2.9226,-2.9257,-2.9352,-2.9401,-2.9373,-2.9131,-2.9026,-2.8942,-2.8661,-2.8478,-2.8464,-2.8464,-2.8464,-2.845,-2.8493,-2.845,-2.8478,-2.8478,-2.845,-2.845,-2.8016,-2.7636,-2.7172,-2.6835,-2.6483,-2.6399,-2.6286,-2.6132,-2.5964,-2.5893,-2.5893,-2.5893,-2.5893,-2.5893,-2.5893,-2.5893,-2.5893,-2.5893,-2.5893,-2.5893,-2.5893,-2.5893,-2.5893,-2.5921,-2.6002,-2.6096,-2.6111,-2.6096,-2.6204,-2.6258,-2.6218,-2.6285,-2.6537,-2.6472,-2.659,-2.6826,-2.7097,-2.7276,-2.7464,-2.7665,-2.7849,-3.0623,-3.1217,-3.125,-3.1548,-3.204,-3.2003,-3.1935,-3.1984,-3.1444,-3.1428,-3.1748,-3.1304,-3.111,-3.1158,-3.1027,-3.0761,-3.0317,-3.0225,-3.0224,-3.0283,-3.0467,-3.0565,-3.0639,-3.0876,-3.0938,-3.0797,-3.0996,-3.1053,-3.0966,-3.0875,-3.0949,-3.0874,-3.0748,-3.0861,-3.071,-3.0861,-3.047,-3.0063,-3.0482,-3.0211,-2.9401,-2.9656,-2.9764,-2.9314,-2.88,-2.8433,-2.8344,-2.8292,-2.8471,-2.8972,-2.9067,-2.9067,-2.9035,-2.878,-2.8651,-2.8683,-2.8908,-2.9035,-2.9131,-2.9233,-2.938,-2.9397,-2.9369,-2.9602,-2.9403,-2.9364,-2.9364,-2.9392,-2.9434,-2.949,-2.9476,-2.9448,-2.9462,-2.942,-2.8549,-2.7974,-2.7862,-2.7777,-2.7355,-2.6961,-2.6821,-2.661,-2.6076,-2.5992,-2.5893,-2.5893,-2.5893,-2.5893,-2.5893,-2.5893,-2.5893,-2.5893,-2.5893,-2.5893,-2.5893,-2.5893,-2.5893,-2.5893,-2.5893,-2.5921,-2.5921,-2.5948,-2.5934,-2.5948,-2.5975,-2.6029,-2.6056,-2.6084,-2.6125,-2.6338,-2.6525,-2.6604,-2.6747,-2.6941,-2.7122,-3.0306,-3.0487,-3.0487,-3.0611,-3.0734,-3.0734,-3.0779,-3.0746,-3.0611,-3.0668,-3.0746,-3.0566,-3.0532,-3.0487,-3.0521,-3.0352,-3.0261,-3.0216,-3.0216,-3.0227,-3.0256,-3.0422,-3.0714,-3.1179,-3.1132,-3.0789,-3.1174,-3.1332,-3.0854,-3.0509,-3.0292,-3.0241,-2.9883,-2.9639,-2.96,-2.9678,-2.9523,-2.9367,-2.9471,-2.9743,-2.9758,-2.9515,-2.9619,-2.9865,-2.934,-2.8843,-2.8433,-2.8219,-2.8308,-2.8683,-2.8716,-2.8716,-2.8716,-2.8619,-2.8522,-2.8554,-2.8651,-2.8748,-2.8748,-2.8844,-2.9004,-2.9194,-2.9257,-2.932,-2.9571,-2.9602,-2.9602,-2.9602,-2.9602,-2.9602,-2.9602,-2.9602,-2.9602,-2.9518,-2.89,-2.845,-2.838,-2.8043,-2.7721,-2.7523,-2.713,-2.6835,-2.6582,-2.6217,-2.5964,-2.595,-2.5921,-2.5893,-2.5893,-2.5893,-2.5893,-2.5893,-2.5893,-2.5893,-2.5893,-2.5893,-2.5893,-2.5893,-2.5893,-2.5921,-2.5921,-2.5921,-2.5921,-2.5921,-2.5921,-2.5975,-2.5975,-2.5975,-2.6002,-2.6056,-2.6111,-2.6231,-2.6192,-2.6312,-2.6418,-3.0216,-3.0216,-3.0216,-3.0216,-3.0216,-3.0216,-3.0216,-3.0216,-3.0216,-3.0216,-3.0216,-3.0216,-3.0216,-3.0216,-3.0216,-3.0216,-3.0216,-3.0216,-3.0216,-3.0216,-3.0238,-3.0295,-3.0513,-3.0967,-3.0935,-3.0639,-3.1026,-3.0903,-3.0465,-3.01,-2.9863,-2.9599,-2.9289,-2.9121,-2.916,-2.9121,-2.8937,-2.8819,-2.8924,-2.9199,-2.9225,-2.9466,-2.9719,-2.9965,-2.971,-2.9295,-2.8498,-2.8271,-2.8312,-2.8389,-2.8406,-2.8406,-2.8373,-2.8229,-2.8131,-2.8164,-2.8295,-2.8406,-2.8438,-2.849,-2.8683,-2.8876,-2.9004,-2.9194,-2.9383,-2.9509,-2.9602,-2.9602,-2.9602,-2.9602,-2.9602,-2.9602,-2.9602,-2.956,-2.9279,-2.9083,-2.9069,-2.8802,-2.8466,-2.8199,-2.7846,-2.7467,-2.7256,-2.6666,-2.6357,-2.6231,-2.6034,-2.5964,-2.5893,-2.5893,-2.5893,-2.5893,-2.5893,-2.5893,-2.5893,-2.5893,-2.5893,-2.5893,-2.5893,-2.5893,-2.5893,-2.5893,-2.5893,-2.5893,-2.5893,-2.5893,-2.5893,-2.5893,-2.5921,-2.5948,-2.5921,-2.5921,-2.5948,-2.5948,-2.6002,-3.0216,-3.0216,-3.0216,-3.0216,-3.0216,-3.0216,-3.0216,-3.0216,-3.0216,-3.0216,-3.0216,-3.0216,-3.0216,-3.0216,-3.0216,-3.0216,-3.0216,-3.0216,-3.0216,-3.0216,-3.0216,-3.0248,-3.0302,-3.0604,-3.0581,-3.0486,-3.0586,-3.042,-3.0041,-2.9817,-2.9478,-2.9059,-2.8897,-2.8858,-2.87,-2.8779,-2.8593,-2.8247,-2.8462,-2.8593,-2.8605,-2.9123,-2.9551,-2.9732,-2.964,-2.9204,-2.8547,-2.8309,-2.8289,-2.8034,-2.8053,-2.8046,-2.798,-2.7669,-2.7556,-2.7623,-2.7855,-2.8046,-2.8079,-2.8262,-2.8457,-2.8554,-2.8812,-2.9035,-2.9067,-2.9289,-2.9477,-2.9477,-2.9571,-2.9602,-2.9602,-2.9602,-2.9602,-2.9588,-2.956,-2.9588,-2.9602,-2.9602,-2.9392,-2.8872,-2.8745,-2.8394,-2.7946,-2.7312,-2.675,-2.6512,-2.6259,-2.595,-2.5893,-2.5893,-2.5893,-2.5893,-2.5893,-2.5893,-2.5893,-2.5893,-2.5893,-2.5893,-2.5893,-2.5893,-2.5893,-2.5893,-2.5893,-2.5893,-2.5893,-2.5893,-2.5893,-2.5893,-2.5893,-2.5893,-2.5893,-2.5893,-2.5921,-2.5921,-2.5948,-3.0216,-3.0216,-3.0216,-3.0216,-3.0216,-3.0216,-3.0216,-3.0216,-3.0216,-3.0216,-3.0216,-3.0216,-3.0216,-3.0216,-3.0216,-3.0216,-3.0216,-3.0216,-3.0216,-3.0216,-3.0216,-3.0216,-3.034,-3.0716,-3.0704,-3.0519,-3.1014,-3.0719,-2.9923,-2.9319,-2.8882,-2.8423,-2.799,-2.7615,-2.7696,-2.7765,-2.7574,-2.7464,-2.7574,-2.7886,-2.8179,-2.8447,-2.891,-2.924,-2.8947,-2.8599,-2.8363,-2.827,-2.8086,-2.7773,-2.7702,-2.7834,-2.7662,-2.7556,-2.749,-2.7536,-2.757,-2.7636,-2.7656,-2.7769,-2.7901,-2.8164,-2.8341,-2.8438,-2.8716,-2.9004,-2.9194,-2.9257,-2.9446,-2.9571,-2.9602,-2.9602,-2.9602,-2.9602,-2.9602,-2.9602,-2.9602,-2.9602,-2.9504,-2.935,-2.8984,-2.8647,-2.8478,-2.7523,-2.7059,-2.6807,-2.6427,-2.5992,-2.5893,-2.5893,-2.5893,-2.5893,-2.5893,-2.5893,-2.5893,-2.5893,-2.5893,-2.5893,-2.5893,-2.5893,-2.5893,-2.5893,-2.5893,-2.5893,-2.5893,-2.5893,-2.5893,-2.5893,-2.5893,-2.5893,-2.5893,-2.5893,-2.5893,-2.5893,-2.5893,-3.0216,-3.0216,-3.0216,-3.0216,-3.0216,-3.0216,-3.0216,-3.0216,-3.0216,-3.0216,-3.0216,-3.0216,-3.0216,-3.0216,-3.0216,-3.0216,-3.0216,-3.0216,-3.0216,-3.0216,-3.0216,-3.0216,-3.0273,-3.0532,-3.0532,-3.0306,-3.0622,-3.0343,-2.9675,-2.9094,-2.8572,-2.8099,-2.7492,-2.7313,-2.719,-2.719,-2.7231,-2.7231,-2.719,-2.7383,-2.7708,-2.8059,-2.8474,-2.8951,-2.8772,-2.8548,-2.8251,-2.8575,-2.8373,-2.808,-2.811,-2.8025,-2.7594,-2.7503,-2.7503,-2.7503,-2.7503,-2.7503,-2.7503,-2.7503,-2.7623,-2.7802,-2.798,-2.8177,-2.8406,-2.8683,-2.894,-2.9067,-2.9257,-2.9429,-2.9571,-2.9602,-2.9602,-2.9602,-2.9602,-2.9602,-2.9602,-2.9602,-2.9602,-2.956,-2.9321,-2.9181,-2.8759,-2.8015,-2.7579,-2.7425,-2.6778,-2.6329,-2.5907,-2.5893,-2.5893,-2.5893,-2.5893,-2.5893,-2.5893,-2.5893,-2.5893,-2.5893,-2.5893,-2.5893,-2.5893,-2.5893,-2.5893,-2.5893,-2.5893,-2.5893,-2.5893,-2.5893,-2.5893,-2.5893,-2.5893,-2.5893,-2.5893,-2.5893,-2.5893,-3.0216,-3.0216,-3.0216,-3.0216,-3.0216,-3.0216,-3.0216,-3.0216,-3.0216,-3.0216,-3.0216,-3.0216,-3.0216,-3.0216,-3.0216,-3.0216,-3.0216,-3.0216,-3.0216,-3.0216,-3.0216,-3.0216,-3.0227,-3.0261,-3.0261,-3.0216,-3.0294,-2.9984,-2.9535,-2.9022,-2.8633,-2.8042,-2.7587,-2.7357,-2.7236,-2.719,-2.719,-2.719,-2.719,-2.719,-2.7313,-2.7736,-2.8207,-2.8502,-2.8585,-2.835,-2.8171,-2.8458,-2.8661,-2.8156,-2.8756,-2.8457,-2.7846,-2.7613,-2.7542,-2.7542,-2.7503,-2.7503,-2.7503,-2.7503,-2.7503,-2.7536,-2.7769,-2.7967,-2.8079,-2.8308,-2.8587,-2.8844,-2.9004,-2.9257,-2.954,-2.9602,-2.9602,-2.9602,-2.9602,-2.9602,-2.9602,-2.9602,-2.9602,-2.9602,-2.9518,-2.9434,-2.9265,-2.8788,-2.8408,-2.7959,-2.7284,-2.668,-2.6245,-2.5907,-2.5921,-2.5893,-2.5893,-2.5893,-2.5893,-2.5893,-2.5893,-2.5893,-2.5893,-2.5893,-2.5893,-2.5893,-2.5893,-2.5893,-2.5893,-2.5893,-2.5893,-2.5893,-2.5893,-2.5893,-2.5893,-2.5893,-2.5893,-2.5893,-2.5893,-3.0216,-3.0216,-3.0216,-3.0216,-3.0216,-3.0216,-3.0216,-3.0216,-3.0216,-3.0216,-3.0216,-3.0216,-3.0216,-3.0216,-3.0216,-3.0216,-3.0216,-3.0216,-3.0216,-3.0216,-3.0216,-3.0216,-3.0216,-3.0216,-3.0216,-3.0216,-3.0204,-2.9975,-2.9642,-2.9366,-2.8838,-2.8149,-2.7874,-2.7667,-2.7282,-2.719,-2.719,-2.719,-2.719,-2.719,-2.7272,-2.7383,-2.7505,-2.7696,-2.7725,-2.7615,-2.7626,-2.8004,-2.8071,-2.7574,-2.8044,-2.799,-2.7724,-2.7934,-2.7893,-2.7538,-2.7481,-2.7494,-2.7416,-2.749,-2.7503,-2.7536,-2.7603,-2.7636,-2.7703,-2.7947,-2.8243,-2.8438,-2.8812,-2.9226,-2.9571,-2.9509,-2.9571,-2.9571,-2.954,-2.954,-2.9571,-2.9571,-2.9571,-2.9571,-2.9602,-2.9602,-2.942,-2.9209,-2.8802,-2.8296,-2.772,-2.7102,-2.6596,-2.6202,-2.5964,-2.5936,-2.5893,-2.5893,-2.5893,-2.5893,-2.5893,-2.5893,-2.5893,-2.5893,-2.5893,-2.5893,-2.5893,-2.5893,-2.5893,-2.5893,-2.5893,-2.5893,-2.5893,-2.5893,-2.5893,-2.5893,-2.5893,-2.5893,-2.5893,-3.0216,-3.0216,-3.0216,-3.0216,-3.0216,-3.0216,-3.0216,-3.0216,-3.0216,-3.0216,-3.0216,-3.0216,-3.0216,-3.0216,-3.0216,-3.0216,-3.0216,-3.0216,-3.0216,-3.0216,-3.0216,-3.0216,-3.0216,-3.0216,-3.0216,-3.0216,-3.0204,-3.0124,-2.986,-2.9596,-2.9079,-2.8482,-2.8138,-2.7725,-2.7293,-2.719,-2.719,-2.719,-2.719,-2.719,-2.719,-2.719,-2.719,-2.719,-2.719,-2.719,-2.7353,-2.7869,-2.806,-2.7953,-2.8363,-2.829,-2.8075,-2.7952,-2.7923,-2.73,-2.7318,-2.737,-2.7232,-2.7289,-2.7503,-2.7503,-2.7503,-2.7503,-2.7536,-2.7703,-2.7881,-2.8145,-2.8471,-2.8908,-2.9035,-2.9099,-2.9067,-2.9067,-2.9099,-2.9194,-2.9289,-2.932,-2.9383,-2.9509,-2.954,-2.954,-2.9588,-2.9336,-2.9055,-2.8605,-2.8113,-2.7551,-2.6961,-2.6554,-2.6188,-2.5936,-2.5893,-2.5893,-2.5893,-2.5893,-2.5893,-2.5893,-2.5893,-2.5893,-2.5893,-2.5893,-2.5893,-2.5893,-2.5893,-2.5893,-2.5893,-2.5893,-2.5893,-2.5893,-2.5893,-2.5893,-2.5893,-2.5893,-2.5893,-3.0216,-3.0216,-3.0216,-3.0216,-3.0216,-3.0216,-3.0216,-3.0216,-3.0216,-3.0216,-3.0216,-3.0216,-3.0216,-3.0216,-3.0216,-3.0216,-3.0216,-3.0216,-3.0216,-3.0216,-3.0216,-3.0216,-3.0216,-3.0216,-3.0216,-3.0216,-3.0216,-3.0216,-3.0101,-2.986,-2.9332,-2.8735,-2.8253,-2.7793,-2.7316,-2.719,-2.719,-2.719,-2.719,-2.719,-2.719,-2.719,-2.719,-2.719,-2.719,-2.719,-2.7272,-2.7626,-2.7898,-2.7999,-2.8231,-2.8415,-2.8077,-2.798,-2.7533,-2.687,-2.7184,-2.7165,-2.7138,-2.7225,-2.7483,-2.7482,-2.7356,-2.7323,-2.7302,-2.7335,-2.7469,-2.7868,-2.8276,-2.8554,-2.8651,-2.8619,-2.8619,-2.8651,-2.8651,-2.8683,-2.8908,-2.9004,-2.9099,-2.9226,-2.9383,-2.9432,-2.9418,-2.9574,-2.9293,-2.9069,-2.8577,-2.7959,-2.7383,-2.6877,-2.6497,-2.6076,-2.5893,-2.5893,-2.5893,-2.5893,-2.5893,-2.5893,-2.5893,-2.5893,-2.5893,-2.5893,-2.5893,-2.5893,-2.5893,-2.5893,-2.5893,-2.5893,-2.5893,-2.5893,-2.5893,-2.5893,-2.5893,-2.5893,-2.5893,-3.0216,-3.0216,-3.017,-3.0216,-3.017,-3.017,-3.017,-3.017,-3.017,-3.0216,-3.0216,-3.0216,-3.0216,-3.0216,-3.0216,-3.0216,-3.0216,-3.0216,-3.0216,-3.0216,-3.0216,-3.0216,-3.0216,-3.0216,-3.0216,-3.0216,-3.0216,-3.0216,-3.0193,-3.0112,-2.9584,-2.8861,-2.8551,-2.8149,-2.7259,-2.719,-2.719,-2.719,-2.719,-2.7201,-2.7224,-2.7213,-2.719,-2.719,-2.719,-2.719,-2.719,-2.7394,-2.7423,-2.7423,-2.7423,-2.7429,-2.7342,-2.7342,-2.7042,-2.6835,-2.703,-2.7407,-2.7329,-2.7484,-2.7533,-2.7454,-2.7164,-2.6863,-2.6782,-2.6816,-2.6952,-2.7276,-2.7789,-2.821,-2.8392,-2.8522,-2.8554,-2.8457,-2.8327,-2.8392,-2.8522,-2.8189,-2.832,-2.8481,-2.85,-2.8944,-2.9166,-2.9401,-2.956,-2.9336,-2.9012,-2.8394,-2.7762,-2.7228,-2.6596,-2.6104,-2.5893,-2.5893,-2.5893,-2.5893,-2.5893,-2.5893,-2.5893,-2.5893,-2.5893,-2.5893,-2.5893,-2.5893,-2.5893,-2.5893,-2.5893,-2.5893,-2.5893,-2.5893,-2.5893,-2.5893,-2.5893,-2.5893,-2.5893,-2.9612,-2.9336,-2.9325,-2.9336,-2.9371,-2.9658,-2.9795,-2.9852,-3.008,-3.0216,-3.0216,-3.0216,-3.0216,-3.0216,-3.0216,-3.0216,-3.0216,-3.0216,-3.0216,-3.0216,-3.0216,-3.0216,-3.0216,-3.0216,-3.0216,-3.0216,-3.0216,-3.0216,-3.0216,-3.0124,-2.9699,-2.885,-2.8643,-2.8184,-2.7282,-2.719,-2.719,-2.719,-2.7213,-2.7339,-2.7465,-2.7362,-2.719,-2.719,-2.719,-2.719,-2.719,-2.719,-2.719,-2.719,-2.719,-2.719,-2.719,-2.7208,-2.7082,-2.6984,-2.7142,-2.7147,-2.7004,-2.7589,-2.7668,-2.7522,-2.7214,-2.7,-2.6506,-2.6242,-2.6461,-2.6905,-2.7121,-2.7503,-2.7868,-2.7954,-2.7789,-2.7689,-2.7656,-2.753,-2.7484,-2.7371,-2.7291,-2.7491,-2.769,-2.7999,-2.8403,-2.8771,-2.9008,-2.9083,-2.9,-2.8778,-2.8082,-2.7383,-2.6708,-2.5992,-2.5907,-2.5893,-2.5893,-2.5893,-2.5893,-2.5893,-2.5893,-2.5893,-2.5893,-2.5893,-2.5893,-2.5893,-2.5893,-2.5893,-2.5893,-2.5893,-2.5893,-2.5893,-2.5893,-2.5893,-2.5893,-2.5893,-2.5893,-2.8735,-2.8362,-2.8585,-2.8678,-2.8724,-2.929,-2.9531,-2.9577,-2.9988,-3.0216,-3.0216,-3.0216,-3.0216,-3.0216,-3.0216,-3.0216,-3.0216,-3.0216,-3.0216,-3.0216,-3.0216,-3.0216,-3.0216,-3.0216,-3.0216,-3.0216,-3.0216,-3.0216,-3.0216,-3.0112,-2.9688,-2.8746,-2.8689,-2.8138,-2.7442,-2.7213,-2.7247,-2.7442,-2.7472,-2.7644,-2.7828,-2.7621,-2.7403,-2.7236,-2.719,-2.719,-2.719,-2.719,-2.719,-2.719,-2.719,-2.719,-2.719,-2.7179,-2.7179,-2.7151,-2.7192,-2.711,-2.7115,-2.7403,-2.7717,-2.756,-2.7066,-2.6485,-2.5631,-2.5546,-2.5744,-2.6173,-2.6461,-2.6701,-2.6973,-2.7074,-2.6939,-2.6735,-2.6598,-2.6402,-2.6321,-2.6424,-2.6514,-2.6697,-2.6786,-2.6739,-2.7224,-2.7868,-2.8306,-2.8688,-2.8821,-2.8893,-2.8263,-2.7344,-2.6762,-2.6036,-2.5909,-2.5881,-2.5839,-2.5866,-2.5866,-2.5811,-2.5811,-2.5839,-2.5811,-2.5866,-2.5893,-2.5893,-2.5811,-2.5893,-2.5893,-2.5893,-2.5893,-2.5893,-2.5893,-2.5893,-2.5893,-2.5893,-2.5893,-2.7452,-2.7489,-2.8315,-2.8678,-2.8713,-2.9301,-2.9485,-2.9485,-2.9943,-3.0125,-3.008,-3.017,-3.008,-3.0125,-3.0034,-3.0023,-3.0125,-3.0216,-3.008,-3.008,-3.0216,-3.0125,-3.0125,-3.017,-3.0216,-3.0216,-3.0216,-3.0216,-3.0216,-3.0216,-2.9607,-2.885,-2.8712,-2.8069,-2.7522,-2.7282,-2.7587,-2.7816,-2.792,-2.7989,-2.8069,-2.792,-2.7679,-2.7305,-2.7213,-2.719,-2.719,-2.719,-2.719,-2.719,-2.719,-2.719,-2.719,-2.719,-2.719,-2.719,-2.719,-2.7122,-2.7202,-2.7348,-2.7394,-2.7149,-2.6602,-2.5827,-2.4918,-2.4933,-2.5111,-2.5312,-2.5721,-2.6,-2.607,-2.6035,-2.6173,-2.6,-2.5896,-2.5779,-2.5709,-2.5744,-2.5849,-2.5918,-2.5918,-2.5802,-2.5836,-2.6445,-2.7258,-2.767,-2.7992,-2.8032,-2.774,-2.7029,-2.665,-2.6172,-2.5981,-2.5854,-2.5757,-2.5715,-2.5578,-2.5439,-2.5342,-2.5522,-2.5633,-2.5688,-2.5481,-2.5508,-2.537,-2.566,-2.5839,-2.5674,-2.5647,-2.5839,-2.5893,-2.5893,-2.5893,-2.5893,-2.5893,-2.7584,-2.7357,-2.7715,-2.7987,-2.8269,-2.8502,-2.8735,-2.9013,-2.9198,-2.9279,-2.929,-2.9279,-2.929,-2.929,-2.929,-2.929,-2.9347,-2.929,-2.9325,-2.9417,-2.9566,-2.976,-2.9852,-3.0034,-3.0216,-3.017,-3.017,-3.0216,-3.0216,-3.0125,-2.9573,-2.8999,-2.8626,-2.8069,-2.7598,-2.7529,-2.7931,-2.8264,-2.8448,-2.854,-2.8758,-2.823,-2.7874,-2.7725,-2.7282,-2.7213,-2.719,-2.719,-2.719,-2.719,-2.719,-2.719,-2.719,-2.719,-2.719,-2.719,-2.719,-2.719,-2.7313,-2.7502,-2.771,-2.7263,-2.6623,-2.5765,-2.4754,-2.4835,-2.4953,-2.5087,-2.5194,-2.5406,-2.5861,-2.5896,-2.5861,-2.5511,-2.5288,-2.5182,-2.5123,-2.5123,-2.5099,-2.5194,-2.4993,-2.4778,-2.485,-2.4981,-2.5871,-2.665,-2.6925,-2.715,-2.6939,-2.6658,-2.6266,-2.5913,-2.5685,-2.5221,-2.5084,-2.5129,-2.5174,-2.5034,-2.4838,-2.4936,-2.4992,-2.4724,-2.4582,-2.4724,-2.4809,-2.4851,-2.4964,-2.516,-2.5328,-2.5495,-2.5729,-2.5893,-2.5893,-2.5866,-2.5893,-2.7573,-2.732,-2.732,-2.7489,-2.7799,-2.7951,-2.8175,-2.8502,-2.8678,-2.8678,-2.8678,-2.8678,-2.8678,-2.8678,-2.8724,-2.8781,-2.8828,-2.8781,-2.8724,-2.8863,-2.9106,-2.9255,-2.9382,-2.952,-2.96,-2.9738,-2.9749,-2.9703,-2.9658,-2.9703,-2.906,-2.8463,-2.8243,-2.7722,-2.7564,-2.7736,-2.8218,-2.8597,-2.8907,-2.9056,-2.932,-2.8689,-2.8069,-2.792,-2.7483,-2.7213,-2.719,-2.719,-2.719,-2.719,-2.719,-2.719,-2.719,-2.719,-2.719,-2.719,-2.719,-2.719,-2.7353,-2.7499,-2.7651,-2.7046,-2.6764,-2.6015,-2.5405,-2.4989,-2.4941,-2.4951,-2.492,-2.4957,-2.5453,-2.5241,-2.5135,-2.4814,-2.4778,-2.4671,-2.4575,-2.4503,-2.4442,-2.4442,-2.4298,-2.4334,-2.4406,-2.4539,-2.504,-2.5836,-2.6296,-2.6549,-2.655,-2.6252,-2.5839,-2.5486,-2.5197,-2.4666,-2.4209,-2.4318,-2.4405,-2.4281,-2.4153,-2.4108,-2.4079,-2.3846,-2.3875,-2.4179,-2.4208,-2.4005,-2.415,-2.4481,-2.4823,-2.5147,-2.5356,-2.5522,-2.5647,-2.5619,-2.5839,-2.7251,-2.732,-2.7214,-2.7204,-2.7251,-2.7809,-2.7987,-2.7977,-2.8211,-2.8341,-2.8247,-2.8341,-2.8341,-2.8341,-2.8049,-2.8049,-2.8107,-2.8247,-2.8247,-2.8143,-2.8143,-2.8491,-2.8678,-2.8713,-2.8806,-2.8771,-2.8771,-2.8817,-2.8771,-2.8817,-2.8213,-2.7711,-2.7491,-2.7385,-2.7245,-2.7748,-2.823,-2.8712,-2.9217,-2.947,-2.9435,-2.8999,-2.8551,-2.808,-2.7621,-2.7351,-2.7201,-2.719,-2.719,-2.719,-2.719,-2.719,-2.719,-2.719,-2.719,-2.719,-2.719,-2.719,-2.7231,-2.7219,-2.71,-2.6868,-2.6711,-2.6327,-2.5766,-2.5325,-2.4946,-2.4997,-2.4646,-2.4378,-2.4357,-2.4334,-2.437,-2.437,-2.437,-2.437,-2.4261,-2.4189,-2.4189,-2.4189,-2.4189,-2.4189,-2.4225,-2.4298,-2.4527,-2.5052,-2.5581,-2.5832,-2.5903,-2.5658,-2.5218,-2.4983,-2.4651,-2.4343,-2.3873,-2.3692,-2.3641,-2.3518,-2.3391,-2.3255,-2.3297,-2.3237,-2.3357,-2.3636,-2.3488,-2.319,-2.3505,-2.3888,-2.4005,-2.415,-2.4751,-2.4991,-2.516,-2.5244,-2.5342,-2.5684,-2.5722,-2.5732,-2.5732,-2.5877,-2.7051,-2.7421,-2.7078,-2.6532,-2.6186,-2.6186,-2.6186,-2.6186,-2.6186,-2.633,-2.6368,-2.6282,-2.6186,-2.6186,-2.633,-2.6665,-2.7047,-2.7342,-2.7673,-2.7861,-2.7955,-2.7966,-2.7872,-2.7966,-2.7876,-2.7734,-2.7334,-2.6955,-2.7037,-2.733,-2.7824,-2.8432,-2.9185,-2.9676,-2.9963,-2.9906,-2.9425,-2.8921,-2.8417,-2.7935,-2.7564,-2.7259,-2.7236,-2.719,-2.719,-2.719,-2.719,-2.719,-2.719,-2.719,-2.719,-2.719,-2.719,-2.719,-2.7179,-2.7133,-2.6961,-2.6887,-2.668,-2.6244,-2.6134,-2.5635,-2.5084,-2.4797,-2.4522,-2.4328,-2.4248,-2.4261,-2.4261,-2.4261,-2.4261,-2.4189,-2.4189,-2.4189,-2.4189,-2.4189,-2.4189,-2.4189,-2.4189,-2.4394,-2.4431,-2.4921,-2.4921,-2.4957,-2.4779,-2.4449,-2.4325,-2.41,-2.3875,-2.362,-2.342,-2.3169,-2.3001,-2.262,-2.2211,-2.2273,-2.2567,-2.2488,-2.2567,-2.2488,-2.2439,-2.2689,-2.2902,-2.2829,-2.3027,-2.3653,-2.4192,-2.4394,-2.441,-2.4439,-2.4884,-2.4884,-2.4884,-2.4884,-2.5041,-2.6022,-2.6322,-2.6013,-2.5285,-2.4884,-2.4933,-2.4933,-2.4982,-2.4982,-2.4884,-2.4884,-2.4884,-2.4943,-2.4943,-2.4933,-2.5266,-2.5751,-2.6196,-2.6484,-2.6474,-2.6665,-2.6675,-2.6628,-2.6559,-2.675,-2.6743,-2.6613,-2.6409,-2.6616,-2.713,-2.7833,-2.8288,-2.8847,-2.9218,-2.9521,-2.9477,-2.9274,-2.9,-2.8644,-2.8228,-2.7816,-2.7541,-2.7316,-2.719,-2.719,-2.719,-2.719,-2.719,-2.719,-2.719,-2.719,-2.719,-2.719,-2.719,-2.719,-2.7167,-2.7144,-2.719,-2.703,-2.6737,-2.6536,-2.6168,-2.5647,-2.5199,-2.4809,-2.451,-2.4407,-2.4223,-2.4223,-2.4189,-2.4189,-2.4189,-2.4189,-2.4189,-2.4189,-2.4189,-2.4189,-2.4189,-2.4189,-2.4261,-2.4225,-2.4261,-2.4189,-2.4189,-2.4154,-2.4108,-2.4024,-2.3875,-2.3686,-2.3447,-2.3169,-2.289,-2.2544,-2.2206,-2.1853,-2.1788,-2.2119,-2.1792,-2.1592,-2.1788,-2.1882,-2.1812,-2.1874,-2.2099,-2.2292,-2.2659,-2.3118,-2.3522,-2.3699,-2.3758,-2.4845,-2.4845,-2.4845,-2.4737,-2.4786,-2.4796,-2.4845,-2.4845,-2.4796,-2.4747,-2.4747,-2.4648,-2.455,-2.4698,-2.4747,-2.4648,-2.455,-2.4599,-2.4599,-2.4599,-2.4492,-2.4747,-2.4894,-2.5031,-2.5129,-2.5031,-2.5041,-2.5324,-2.5042,-2.5867,-2.6115,-2.5947,-2.5905,-2.6328,-2.707,-2.7597,-2.8034,-2.8481,-2.8782,-2.9037,-2.9006,-2.8866,-2.8735,-2.8499,-2.8256,-2.7972,-2.7672,-2.7462,-2.7275,-2.7183,-2.7149,-2.719,-2.719,-2.719,-2.719,-2.719,-2.719,-2.719,-2.719,-2.719,-2.719,-2.719,-2.719,-2.7167,-2.7082,-2.6806,-2.6485,-2.6145,-2.567,-2.5233,-2.4866,-2.4568,-2.4281,-2.4246,-2.42,-2.4189,-2.4189,-2.4189,-2.4189,-2.4189,-2.4189,-2.4189,-2.4189,-2.4189,-2.4189,-2.4189,-2.4189,-2.4189,-2.4189,-2.4189,-2.4154,-2.4108,-2.3917,-2.3604,-2.3352,-2.3247,-2.3039,-2.2832,-2.2428,-2.207,-2.1953,-2.1858,-2.18,-2.1716,-2.1493,-2.1443,-2.1498,-2.1572,-2.1655,-2.1862,-2.2056,-2.2304,-2.2768,-2.3207,-2.3416,-2.3288,-2.3279,-2.3279,-2.3279,-2.3279,-2.3288,-2.3578,-2.3967,-2.3529,-2.3279,-2.3229,-2.3288,-2.3429,-2.3229,-2.3279,-2.3329,-2.3329,-2.3279,-2.3238,-2.3329,-2.3529,-2.3669,-2.3868,-2.4066,-2.4026,-2.4026,-2.4115,-2.4285,-2.4926,-2.5577,-2.5849,-2.5927,-2.5772,-2.631,-2.6718,-2.7253,-2.77,-2.8147,-2.838,-2.8563,-2.8642,-2.8596,-2.8468,-2.8263,-2.8377,-2.8092,-2.7629,-2.7389,-2.7213,-2.7188,-2.6862,-2.6798,-2.719,-2.719,-2.719,-2.719,-2.719,-2.719,-2.719,-2.719,-2.719,-2.719,-2.719,-2.719,-2.7133,-2.7007,-2.6818,-2.6473,-2.618,-2.5727,-2.5233,-2.4855,-2.4545,-2.4372,-2.4292,-2.4189,-2.4189,-2.4189,-2.4189,-2.4189,-2.4189,-2.4189,-2.4189,-2.4189,-2.4189,-2.4189,-2.4189,-2.4189,-2.4189,-2.4189,-2.4189,-2.4154,-2.4085,-2.3833,-2.3752,-2.3629,-2.3386,-2.3132,-2.2731,-2.2478,-2.2465,-2.2315,-2.2086,-2.1866,-2.1666,-2.1446,-2.1328,-2.136,-2.1434,-2.1391,-2.1557,-2.1757,-2.2006,-2.2476,-2.2811,-2.2465,-2.2594,-2.2603,-2.2603,-2.2603,-2.2603,-2.2887,-2.3138,-2.2787,-2.2603,-2.2603,-2.2653,-2.2603,-2.2703,-2.2703,-2.2695,-2.2695,-2.2745,-2.2745,-2.2745,-2.2603,-2.2887,-2.3188,-2.3288,-2.3288,-2.3288,-2.3294,-2.3381,-2.4036,-2.4517,-2.4758,-2.5202,-2.5581,-2.5789,-2.5942,-2.6104,-2.6491,-2.7142,-2.7647,-2.8034,-2.8222,-2.8315,-2.8204,-2.8112,-2.8315,-2.7966,-2.7524,-2.7356,-2.7048,-2.6914,-2.6532,-2.6385,-2.6644,-2.6644,-2.6809,-2.6798,-2.6869,-2.7015,-2.7149,-2.719,-2.719,-2.719,-2.719,-2.719,-2.719,-2.7121,-2.7013,-2.6806,-2.6582,-2.6249,-2.567,-2.5176,-2.4843,-2.4533,-2.4372,-2.4212,-2.4189,-2.4189,-2.4189,-2.4189,-2.4189,-2.4189,-2.4189,-2.4189,-2.4189,-2.4189,-2.4189,-2.4189,-2.4189,-2.4189,-2.4189,-2.4177,-2.4177,-2.4108,-2.4028,-2.3948,-2.3798,-2.3545,-2.3247,-2.3052,-2.2983,-2.2731,-2.2454,-2.2122,-2.1835,-2.1673,-2.1532,-2.129,-2.1265,-2.1253,-2.1253,-2.1411,-2.1612,-2.1862,-2.2037,-2.2141,-2.2482,-2.2551,-2.256,-2.2603,-2.2603,-2.2644,-2.2603,-2.2594,-2.2603,-2.2603,-2.2603,-2.2603,-2.2603,-2.2603,-2.2603,-2.2603,-2.2603,-2.2603,-2.2603,-2.2603,-2.2745,-2.2695,-2.2644,-2.2735,-2.2652,-2.2615,-2.2664,-2.2434,-2.321,-2.4193,-2.4173,-2.4488,-2.4794,-2.5208,-2.5227,-2.5577,-2.6061,-2.6754,-2.7241,-2.7394,-2.762,-2.793,-2.7938,-2.796,-2.7934,-2.7695,-2.7238,-2.6649,-2.6507,-2.6246,-2.5973,-2.599,-2.6021,-2.6218,-2.6415,-2.6569,-2.6828,-2.7097,-2.719,-2.719,-2.719,-2.719,-2.719,-2.719,-2.719,-2.7075,-2.7059,-2.6806,-2.6582,-2.6122,-2.5509,-2.5096,-2.4717,-2.4441,-2.4281,-2.4189,-2.4189,-2.4189,-2.4189,-2.4189,-2.4189,-2.4189,-2.4189,-2.4189,-2.4189,-2.4189,-2.4189,-2.4164,-2.4164,-2.408,-2.408,-2.4189,-2.4189,-2.4166,-2.4097,-2.4143,-2.3959,-2.3648,-2.3556,-2.3511,-2.3167,-2.2754,-2.2547,-2.234,-2.2042,-2.1812,-2.1571,-2.1362,-2.1201,-2.1233,-2.1201,-2.1328,-2.1498,-2.158,-2.1602,-2.1704,-2.2004,-2.2337,-2.2585,-2.2603,-2.2585,-2.2603,-2.2603,-2.2568,-2.2594,-2.2585,-2.2603,-2.2603,-2.2603,-2.2603,-2.2603,-2.2603,-2.2603,-2.2603,-2.2603,-2.2551,-2.2577,-2.2525,-2.2431,-2.2201,-2.2163,-2.2259,-2.2514,-2.3356,-2.4093,-2.4191,-2.4303,-2.4545,-2.463,-2.4698,-2.4894,-2.5197,-2.579,-2.6235,-2.6332,-2.6965,-2.7489,-2.76,-2.7713,-2.7697,-2.7519,-2.7251,-2.6853,-2.6628,-2.6174,-2.5969,-2.5897,-2.5864,-2.6093,-2.6415,-2.6268,-2.6487,-2.6839,-2.6974,-2.6962,-2.7097,-2.7149,-2.719,-2.719,-2.719,-2.7167,-2.7133,-2.7059,-2.6806,-2.6513,-2.5899,-2.5348,-2.4946,-2.4533,-2.4372,-2.4223,-2.4189,-2.4189,-2.4189,-2.4189,-2.4189,-2.4189,-2.4189,-2.4189,-2.4189,-2.4189,-2.4164,-2.4055,-2.4018,-2.3776,-2.3813,-2.4152,-2.4189,-2.4189,-2.4189,-2.4189,-2.4116,-2.3838,-2.3887,-2.391,-2.3626,-2.3236,-2.3098,-2.2891,-2.2536,-2.2192,-2.1871,-2.1652,-2.1431,-2.1201,-2.1201,-2.1201,-2.134,-2.1411,-2.1268,-2.143,-2.1645,-2.185,-2.207,-2.2038,-2.2088,-2.2088,-2.2038,-2.2038,-2.2173,-2.2414,-2.2594,-2.2594,-2.2603,-2.256,-2.256,-2.2603,-2.2603,-2.2603,-2.2517,-2.2457,-2.2439,-2.2362,-2.2201,-2.2021,-2.2004,-2.2247,-2.2664,-2.2908,-2.3295,-2.3572,-2.3835,-2.3967,-2.3967,-2.3967,-2.4165,-2.447,-2.4913,-2.5109,-2.5401,-2.6332,-2.7214,-2.7452,-2.7437,-2.7421,-2.7331,-2.7121,-2.6848,-2.6432,-2.5969,-2.5138,-2.4911,-2.47,-2.4765,-2.4861,-2.4978,-2.5411,-2.606,-2.6351,-2.6393,-2.6569,-2.6839,-2.6745,-2.688,-2.6921,-2.719,-2.7156,-2.7156,-2.6978,-2.6818,-2.6358,-2.5853,-2.5406,-2.4912,-2.4579,-2.4349,-2.4189,-2.4189,-2.4189,-2.4189,-2.4189,-2.4189,-2.4189,-2.4189,-2.4043,-2.408,-2.3666,-2.3641,-2.3556,-2.3398,-2.3398,-2.3666,-2.4043,-2.4189,-2.4189,-2.4189,-2.4116,-2.3861,-2.3706,-2.3517,-2.3745,-2.3741,-2.358,-2.3362,-2.3029,-2.2685,-2.2307,-2.1929,-2.1686,-2.1399,-2.1201,-2.1201,-2.1201,-2.1265,-2.1002,-2.1328,-2.1336,-2.1379,-2.1405,-2.1413,-2.1439,-2.143,-2.1422,-2.143,-2.1533,-2.2165,-2.2414,-2.2448,-2.2457,-2.2457,-2.2397,-2.2259,-2.2345,-2.2362,-2.2362,-2.2115,-2.2004,-2.1978,-2.1996,-2.2013,-2.2004,-2.2158,-2.2469,-2.2635,-2.2678,-2.261,-2.2603,-2.2653,-2.2603,-2.2644,-2.2987,-2.3438,-2.3786,-2.3926,-2.4766,-2.579,-2.6476,-2.687,-2.7013,-2.7003,-2.6812,-2.6648,-2.6382,-2.5865,-2.5263,-2.4478,-2.3887,-2.364,-2.3551,-2.3574,-2.3651,-2.4296,-2.4882,-2.501,-2.5389,-2.5735,-2.6091,-2.6185,-2.6227,-2.6362,-2.6622,-2.6704,-2.6704,-2.6794,-2.6635,-2.6455,-2.5956,-2.5477,-2.4964,-2.456,-2.4333,-2.4152,-2.4152,-2.4152,-2.4116,-2.4116,-2.4007,-2.4007,-2.3897,-2.3813,-2.3519,-2.315,-2.2804,-2.2681,-2.2558,-2.267,-2.2905,-2.3361,-2.3703,-2.374,-2.3545,-2.3482,-2.3176,-2.315,-2.3228,-2.3725,-2.4005,-2.4039,-2.3798,-2.3418,-2.3109,-2.2742,-2.2364,-2.1852,-2.1697,-2.1422,-2.1201,-2.1201,-2.1201,-2.0626,-2.0977,-2.0985,-2.1131,-2.1362,-2.1388,-2.1405,-2.1396,-2.1379,-2.1405,-2.1388,-2.1473,-2.1627,-2.1619,-2.1627,-2.1679,-2.1807,-2.1756,-2.167,-2.1619,-2.1841,-2.1687,-2.167,-2.1884,-2.1978,-2.2013,-2.203,-2.2073,-2.2379,-2.2457,-2.2508,-2.2594,-2.2603,-2.2603,-2.2603,-2.2644,-2.2795,-2.3138,-2.3429,-2.3728,-2.4362,-2.505,-2.5187,-2.5382,-2.5392,-2.5333,-2.5285,-2.5256,-2.5015,-2.4525,-2.4021,-2.3532,-2.3079,-2.2805,-2.2662,-2.2624,-2.2658,-2.3217,-2.3717,-2.3846,-2.4233,-2.4489,-2.4628,-2.4585,-2.4628,-2.466,-2.484,-2.483,-2.4967,-2.5368,-2.5355,-2.5426,-2.5121,-2.4709,-2.422,-2.4108,-2.3906,-2.3934,-2.4007,-2.3934,-2.3849,-2.3593,-2.3224,-2.3102,-2.2916,-2.2718,-2.2408,-2.2031,-2.1993,-2.1832,-2.1642,-2.1794,-2.1993,-2.2107,-2.2247,-2.251,-2.2483,-2.2494,-2.2606,-2.2681,-2.3065,-2.3934,-2.4177,-2.3936,-2.3916,-2.3712,-2.3417,-2.2818,-2.2365,-2.1868,-2.1865,-2.172,-2.1378,-2.1138,-2.1042]}]]